     2.11           OBSERVATION DATA    G (GPS)             RINEX VERSION / TYPE
teqc 2010Oct21 OPUS Account 20111028 16:49:23UTC            PGM / RUN BY / DATE
Q 1522                                                      MARKER NAME
1170                                                        MARKER NUMBER
CSMIDDLETON NGS                                             OBSERVER / AGENCY
4624K01634 TRIMBLE NETR5 NP 70.55 / SP 451.54               REC # / TYPE / VERS
12668881 TRM41249.00 NONE                                   ANT # / TYPE
  -738054.0980 -5496299.3771  3140268.1193                  APPROX POSITION XYZ
        2.0000        0.0000        0.0000                  ANTENNA: DELTA H/E/N
     1     1                                                WAVELENGTH FACT L1/2
     5    L1    L2    C1    P1    P2                        # / TYPES OF OBSERV
  2011     8    25     0     0    0.0000000     GPS         TIME OF FIRST OBS
                                                            END OF HEADER
 11  8 25  0  0  0.0000000  0  9G12G10G25G09G17G05G04G30G02
 -17335495.551 8 -13486189.787 7  21391808.055
 -20019899.96048 -15552137.45246  20889515.0394                   20889515.8444
  -3115645.925 7  -2413516.218 6  24036957.945
  -2200693.81146  -1458077.13744  23728540.0474                   23728543.0904
  -8343952.905 6  -6457771.157 6  23182950.227
 -13983187.106 7 -10871550.369 7  22096026.352
 -16322918.53648 -12660740.77845  21612850.9844                   21612852.6954
  -1334110.66646   -994471.47943  24037270.9384                   24037274.3984
 -21776227.98848 -16920245.59446  20596339.1724                   20596337.3674
 11  8 25  0  0 30.0000000  0  9G12G10G25G09G17G05G04G30G02
 -17393417.054 8 -13531323.375 7  21380786.188
 -20022658.08347 -15554286.60146  20888990.0234                   20888990.9344
  -3214370.122 7  -2490444.079 6  24018170.320
  -2120274.30547  -1395412.70644  23743843.8914                   23743847.0124
  -8288919.329 6  -6414887.900 6  23193423.383
 -14075161.045 7 -10943218.255 7  22078524.047
 -16246911.10948 -12601514.22345  21627314.3204                   21627316.4924
  -1435152.71246  -1073205.42243  24018042.8754                   24018047.2544
 -21779353.79848 -16922681.26546  20595744.0704                   20595742.5044
 11  8 25  0  1  0.0000000  0  9G12G10G25G09G17G05G04G30G02
 -17450896.403 8 -13576112.435 7  21369847.914
 -20024781.96148 -15555941.54646  20888585.6884                   20888587.1724
  -3312905.141 7  -2567224.514 6  23999419.883
  -2039695.58847  -1332624.19244  23759176.9924                   23759180.6724
  -8233725.739 6  -6371879.939 6  23203925.500
 -14166841.417 7 -11014657.393 7  22061077.719
 -16170749.88648 -12542167.84045  21641807.8204                   21641809.3364
  -1535954.48146  -1151752.18143  23998860.5784                   23998864.8834
 -21782180.36348 -16924883.75946  20595206.3134                   20595204.8794
 11  8 25  0  1 30.0000000  0  9G12G10G25G09G17G05G04G30G02
 -17507934.940 8 -13620558.018 7  21358993.938
 -20026274.85247 -15557104.80046  20888301.7734                   20888302.7664
  -3411252.110 7  -2643858.448 6  23980704.797
  -1958964.80947  -1269717.21744  23774539.6174                   23774543.6724
  -8178375.074 6  -6328749.601 6  23214458.586
 -14258229.134 7 -11085868.486 7  22043687.320
 -16094440.72748 -12482706.19845  21656328.8284                   21656330.6914
  -1636516.75846  -1230112.36843  23979725.0704                   23979727.3164
 -21784712.45848 -16926856.80446  20594724.5704                   20594722.8714
 11  8 25  0  2  0.0000000  0  9G12G10G25G09G17G05G04G30G02
 -17564528.089 8 -13664656.536 7  21348224.391
 -20027134.12748 -15557774.33946  20888138.2664                   20888139.3324
  -3509406.129 7  -2720342.017 6  23962026.789
  -1878083.05547  -1206692.60144  23789930.1884                   23789934.6564
  -8122864.714 7  -6285494.839 6  23225021.766
 -14349318.793 7 -11156847.327 7  22026353.000
 -16017983.16148 -12423128.89945  21670878.2814                   21670880.1724
  -1736834.70046  -1308282.07443  23960634.0634                   23960636.6414
 -21786948.57548 -16928599.21746  20594298.8984                   20594297.4454
 11  8 25  0  2 30.0000000  0  9G12G10G25G09G17G05G04G30G02
 -17620673.775 8 -13708406.386 7  21337540.633
 -20027359.97148 -15557950.29246  20888095.4224                   20888096.2074
  -3607364.736 6  -2796673.308 6  23943384.617
  -1797053.77647  -1143553.02644  23805349.7194                   23805354.4224
  -8067194.485 6  -6242115.501 6  23235616.164
 -14440107.740 7 -11227591.837 7  22009076.336
 -15941379.50348 -12363437.77245  21685455.0944                   21685457.4694
  -1836905.44646  -1386259.24143  23941591.6884                   23941594.3594
 -21788890.06148 -16930112.05146  20593929.6334                   20593927.8554
 11  8 25  0  3  0.0000000  0  9G12G10G25G09G17G05G04G30G02
 -17676371.043 8 -13751806.818 7  21326941.352
 -20026953.08447 -15557633.21546  20888172.5004                   20888173.5204
  -3705126.451 7  -2872851.190 7  23924782.414
  -1715881.45647  -1080301.98844  23820796.6094                   23820801.1454
  -8011364.827 7  -6198611.922 6  23246240.094
 -14530594.388 7 -11298100.821 7  21991857.281
 -15864632.90648 -12303635.26945  21700059.6644                   21700061.8164
  -1936727.34746  -1464042.47643  23922596.4694                   23922597.9344
 -21790539.26247 -16931397.11146  20593615.4064                   20593614.0164
 11  8 25  0  3 30.0000000  0  9G12G10G25G09G17G05G04G30G02
 -17731617.501 8 -13794855.976 7  21316428.234
 -20025912.96348 -15556822.69546  20888370.3134                   20888371.3204
  -3802688.669 7  -2948873.639 7  23906216.602
  -1634569.70947  -1016942.30944  23836270.1954                   23836274.6954
  -7955375.404 7  -6154983.815 6  23256894.563
 -14620775.925 7 -11368372.039 7  21974696.484
 -15787745.37448 -12243722.94145  21714691.2504                   21714693.1134
  -2036297.72446  -1541629.67543  23903648.4774                   23903649.7384
 -21791897.20848 -16932455.23446  20593356.9694                   20593355.3834
 11  8 25  0  4  0.0000000  0  9G12G10G25G09G17G05G04G30G02
 -17786410.133 8 -13837551.507 7  21306001.625
 -20024238.82148 -15555518.14246  20888689.2814                   20888689.7704
  -3900047.808 7  -3024737.830 6  23887690.336
  -1553120.84346   -953475.82343  23851769.3134                   23851774.3714
  -7899224.999 6  -6111230.315 6  23267579.883
 -14710648.474 7 -11438402.478 7  21957594.289
 -15710717.84748 -12183701.50745  21729348.9694                   21729350.8284
  -2135612.74446  -1619017.92443  23884749.4844                   23884751.5554
 -21792964.14548 -16933286.59146  20593154.0864                   20593152.7344
 11  8 25  0  4 30.0000000  0  9G12G10G25G09G17G05G04G30G02
 -17840747.060 8 -13879891.936 7  21295661.531
 -20021930.85047 -15553719.69646  20889128.5004                   20889129.1524
  -3997201.385 7  -3100441.832 6  23869202.219
  -1471538.50846   -889905.28344  23867294.6024                   23867298.7384
  -7842912.953 6  -6067350.858 6  23278295.484
 -14800209.293 7 -11508190.036 7  21940550.867
 -15633552.50148 -12123572.70045  21744033.0314                   21744034.9024
  -2234669.56046  -1696204.96543  23865899.6414                   23865901.7894
 -21793740.95248 -16933891.88146  20593006.3204                   20593004.6254
 11  8 25  0  5  0.0000000  0  9G12G10G25G09G17G05G04G30G02
 -17894626.486 8 -13921875.880 7  21285408.742
 -20018989.46948 -15551427.68546  20889687.6564                   20889688.4144
  -4094147.248 7  -3175984.016 6  23850754.328
  -1389826.36946   -826233.62544  23882844.0314                   23882848.8524
  -7786439.321 7  -6023345.485 6  23289041.641
 -14889456.203 7 -11577732.974 7  21923568.148
 -15556251.54548 -12063338.22045  21758743.0784                   21758744.8054
  -2333465.97246  -1773189.09043  23847099.0784                   23847100.8554
 -21794229.39248 -16934272.46646  20592913.2034                   20592911.6054
 11  8 25  0  5 30.0000000  0  9G12G10G25G09G17G05G04G30G02
 -17948045.814 8 -13963501.291 7  21275243.000
 -20015413.99147 -15548641.56346  20890368.0394                   20890369.0474
  -4190882.275 7  -3251361.891 7  23832345.727
  -1307987.59546   -762463.28844  23898417.6174                   23898421.8954
  -7729803.451 7  -5979213.700 6  23299819.844
 -14978385.956 7 -11647028.787 7  21906645.258
 -15478816.76948 -12002999.44845  21773478.3054                   21773479.9494
  -2431998.68647  -1849967.76444  23828349.3284                   23828351.6134
 -21794430.18748 -16934428.91946  20592875.1564                   20592873.3164
 11  8 25  0  6  0.0000000  0  9G12G10G25G09G17G05G04G30G02
 -18001002.610 8 -14004766.308 7  21265165.648
 -20011204.37848 -15545361.31746  20891169.3284                   20891170.2584
  -4287403.840 7  -3326573.401 6  23813978.586
  -1226025.58646   -698596.92744  23914014.3204                   23914018.5164
  -7673004.741 6  -5934954.990 6  23310627.328
 -15066995.457 7 -11716075.060 7  21889783.281
 -15401250.09948 -11942557.90945  21788239.3134                   21788240.6764
  -2530264.87346  -1926538.72743  23809649.8444                   23809651.9574
 -21794344.28148 -16934361.97046  20592891.5864                   20592889.9184
 11  8 25  0  6 30.0000000  0  9G12G10G25G09G17G05G04G30G02
 -18053494.709 8 -14045669.212 7  21255176.469
 -20006360.44448 -15541586.80146  20892091.2584                   20892092.0864
  -4383708.913 7  -3401616.255 6  23795652.234
  -1143943.27446   -634636.81843  23929633.5004                   23929638.3794
  -7616042.422 6  -5890568.813 6  23321467.914
 -15155282.002 7 -11784869.682 7  21872983.102
 -15323552.85848 -11882014.62445  21803023.8364                   21803026.1884
  -2628261.33246  -2002899.52243  23791001.6884                   23791004.3324
 -21793972.64548 -16934072.37146  20592962.2584                   20592960.6294
 11  8 25  0  7  0.0000000  0  9G12G10G25G09G17G05G04G30G02
 -18105520.756 8 -14086208.976 7  21245276.836
 -20000882.61848 -15537318.32646  20893133.5394                   20893134.5354
  -4479795.838 7  -3476489.097 6  23777367.469
  -1061744.97446   -570586.34843  23945276.1414                   23945280.8984
  -7558916.895 7  -5846055.461 6  23332338.367
 -15243243.036 7 -11853410.654 7  21856244.367
 -15245728.13348 -11821371.99945  21817833.5394                   21817835.6564
  -2725986.08147  -2079048.61343  23772405.4384                   23772407.7974
 -21793316.93548 -16933561.42146  20593087.0704                   20593085.1524
 11  8 25  0  7 30.0000000  0  9G12G10G25G09G17G05G04G30G02
 -18157077.564 8 -14126383.083 7  21235465.719
 -19994770.30148 -15532555.45746  20894296.5944                   20894297.5434
  -4575660.814 7  -3551188.996 6  23759124.789
   -979432.95746   -506447.21443  23960939.6334                   23960943.7274
  -7501626.945 7  -5801413.981 6  23343240.055
 -15330875.049 7 -11921695.243 7  21839568.977
 -15167776.59248 -11760630.55545  21832667.4144                   21832668.7894
  -2823435.27947  -2154982.97243  23753861.3754                   23753863.7194
 -21792377.43248 -16932829.34246  20593265.5554                   20593264.1564
 11  8 25  0  8  0.0000000  0  9G12G10G25G09G17G05G04G30G02
 -18208164.370 8 -14166190.964 7  21225744.539
 -19988024.67348 -15527299.09346  20895580.0474                   20895580.7934
  -4671302.629 7  -3625715.010 6  23740924.656
   -897011.91046   -442223.19543  23976623.7894                   23976627.6684
  -7444173.337 7  -5756644.999 6  23354173.250
 -15418176.627 7 -11989722.366 7  21822955.539
 -15089701.70848 -11699792.99745  21847524.6094                   21847526.0474
  -2920607.56747  -2230701.56143  23735370.4454                   23735371.4304
 -21791156.43948 -16931877.91646  20593498.2814                   20593496.3984
 11  8 25  0  8 30.0000000  0  9G12G10G25G09G17G05G04G30G02
 -18258777.560 8 -14205629.791 7  21216112.891
 -19980644.14748 -15521548.00746  20896984.6954                   20896985.2664
  -4766716.802 7  -3700063.650 7  23722767.320
   -814483.38546   -377915.39043  23992328.6024                   23992332.2894
  -7386553.771 6  -5711746.714 6  23365137.508
 -15505143.151 7 -12057488.405 7  21806406.875
 -15011503.47448 -11638859.32245  21862404.7424                   21862406.5784
  -3017498.23347  -2306200.70943  23716931.1954                   23716933.9884
 -21789653.53548 -16930706.82246  20593784.2114                   20593782.1954
 11  8 25  0  9  0.0000000  0  9G12G10G25G09G17G05G04G30G02
 -18308916.041 8 -14244698.717 7  21206571.789
 -19972630.36348 -15515303.47946  20898509.5164                   20898510.5434
  -4861901.995 7  -3774233.782 6  23704654.430
   -731852.11446   -313527.51043  24008052.6254                   24008056.5704
  -7328769.128 7  -5666719.758 6  23376135.203
 -15591773.286 7 -12124992.321 7  21789920.984
 -14933185.02148 -11577831.97445  21877308.9064                   21877310.1454
  -3114105.70147  -2381479.15443  23698547.6174                   23698550.1724
 -21787870.84948 -16929317.71146  20594123.4534                   20594121.7894
 11  8 25  0  9 30.0000000  0  9G12G10G25G09G17G05G04G30G02
 -18358577.717 8 -14283396.111 7  21197121.188
 -19963983.59748 -15508565.72546  20900154.7504                   20900155.2114
  -4956855.433 7  -3848223.435 6  23686585.891
   -649121.24147   -249062.05543  24023796.1174                   24023800.4614
  -7270818.823 7  -5621563.719 6  23387161.148
 -15678064.030 7 -12192231.780 7  21773500.383
 -14854748.06648 -11516712.30345  21892234.8134                   21892236.3134
  -3210427.01346  -2456534.68843  23680218.3444                   23680221.0004
 -21785809.12648 -16927711.16946  20594515.6724                   20594514.0004
 11  8 25  0 10  0.0000000  0  9G12G10G25G09G17G05G04G30G02
 -18407759.999 8 -14321719.939 7  21187762.188
 -19954702.89948 -15501333.99746  20901920.6414                   20901921.5944
  -5051573.777 6  -3922029.814 6  23668560.344
   -566293.66047   -184521.26844  24039558.2194                   24039562.3204
  -7212701.787 6  -5576277.781 6  23398221.063
 -15764011.734 7 -12259203.931 7  21757145.227
 -14776193.89348 -11455501.27545  21907183.4774                   21907184.1564
  -3306458.70146  -2531364.47243  23661943.8444                   23661946.8284
 -21783469.56448 -16925888.12946  20594961.0164                   20594959.1564
 11  8 25  0 10 30.0000000  0  9G12G10G25G09G17G05G04G30G02
 -18456461.474 8 -14359669.127 7  21178494.602
 -19944789.11148 -15493608.95546  20903807.4064                   20903808.3554
  -5146055.055 7  -3995651.519 6  23650581.570
   -483373.61047   -119908.38843  24055337.0864                   24055341.5704
  -7154418.425 7  -5530862.223 6  23409311.602
 -15849614.658 8 -12325907.432 7  21740855.453
 -14697524.96448 -11394200.82645  21922153.6804                   21922154.9384
  -3402198.66346  -2605966.97543  23643725.5634                   23643726.9104
 -21780853.57948 -16923849.68946  20595458.5944                   20595456.7814
 11  8 25  0 11  0.0000000  0  9G12G10G25G09G17G05G04G30G02
 -18504679.498 8 -14397241.585 7  21169318.969
 -19934242.26648 -15485390.61446  20905814.1094                   20905815.1174
  -5240295.995 7  -4069085.940 6  23632648.344
   -400363.59447    -55225.40343  24071134.0234                   24071138.0124
  -7095967.863 7  -5485316.383 6  23420434.695
 -15934869.373 8 -12392339.593 7  21724631.641
 -14618742.67848 -11332812.04645  21937145.4774                   21937146.6844
  -3497643.37446  -2680339.41443  23625562.9304                   23625564.2734
 -21777961.71748 -16921596.28746  20596008.7584                   20596006.9924
 11  8 25  0 11 30.0000000  0  9G12G10G25G09G17G05G04G30G02
 -18552412.824 8 -14434436.357 7  21160235.766
 -19923063.21748 -15476679.65446  20907941.8594                   20907942.7624
  -5334294.564 7  -4142331.490 6  23614761.102
   -317267.46947      9524.72144  24086945.8754                   24086951.0084
  -7037350.086 7  -5439640.262 6  23431589.633
 -16019773.562 7 -12458498.615 7  21708474.789
 -14539849.33448 -11271336.74245  21952157.8134                   21952159.8524
  -3592790.78147  -2754480.13143  23607456.5864                   23607458.5634
 -21774795.73348 -16919129.27446  20596611.7504                   20596609.7034
 11  8 25  0 12  0.0000000  0  9G12G10G25G09G17G05G04G30G02
 -18599658.991 8 -14471251.552 7  21151245.227
 -19911252.13448 -15467476.19646  20910189.2274                   20910190.4924
  -5428048.010 7  -4215386.060 7  23596920.352
   -234088.41647     74339.44043  24102775.0314                   24102779.7424
  -6978564.538 7  -5393833.394 6  23442776.320
 -16104324.505 7 -12524382.388 7  21692385.453
 -14460846.79748 -11209776.35345  21967191.9064                   21967193.4414
  -3687637.86147  -2828386.89544  23589407.9144                   23589409.7424
 -21771356.56948 -16916449.40046  20597265.4144                   20597264.0594
 11  8 25  0 12 30.0000000  0  9G12G10G25G09G17G05G04G30G02
 -18646415.433 8 -14507685.121 7  21142347.563
 -19898808.24648 -15457779.65246  20912557.1644                   20912558.2774
  -5521552.807 7  -4288246.845 7  23579126.813
   -150828.87646    139216.86944  24118618.4844                   24118623.3874
  -6919610.065 7  -5347894.918 6  23453994.875
 -16188518.637 8 -12589988.113 7  21676363.531
 -14381735.96048 -11148131.57245  21982246.2194                   21982247.5704
  -3782180.88146  -2902056.69543  23571417.0084                   23571419.1684
 -21767644.41748 -16913556.80146  20597972.0634                   20597970.1804
 11  8 25  0 13  0.0000000  0  9G12G10G25G09G17G05G04G30G02
 -18692681.153 8 -14543736.332 7  21133543.969
 -19885732.95348 -15447591.10246  20915045.3524                   20915046.5084
  -5614807.215 7  -4360912.534 7  23561381.258
    -67493.29046    204153.50644  24134476.9774                   24134481.9654
  -6860487.224 7  -5301825.212 6  23465245.656
 -16272354.175 7 -12655314.427 7  21660410.375
 -14302519.49848 -11086404.49145  21997320.7734                   21997322.3054
  -3876417.94446  -2975488.07443  23553483.1644                   23553485.8984
 -21763661.47648 -16910453.21146  20598730.1954                   20598728.3834
 11  8 25  0 13 30.0000000  0  9G12G10G25G09G17G05G04G30G02
 -18738454.414 8 -14579403.790 7  21124833.117
 -19872026.88548 -15436911.03246  20917653.4694                   20917654.9104
  -5707808.628 7  -4433381.107 7  23543683.070
     15914.82946    269146.70843  24150349.2114                   24150354.0004
  -6801195.818 7  -5255624.180 6  23476528.672
 -16355828.560 7 -12720359.318 7  21644525.773
 -14223199.40948 -11024596.65145  22012414.5084                   22012416.1884
  -3970346.39546  -3048679.00443  23535609.8754                   23535612.0274
 -21759408.91748 -16907139.51646  20599539.1414                   20599537.4614
 11  8 25  0 14  0.0000000  0  9G12G10G25G09G17G05G04G30G02
 -18783731.496 8 -14614684.630 7  21116217.492
 -19857689.05948 -15425738.68346  20920382.0314                   20920382.5274
  -5800553.144 7  -4505649.504 7  23526035.016
     99393.91046    334195.15943  24166235.1954                   24166239.7544
  -6741734.051 7  -5209290.413 6  23487843.789
 -16438937.630 8 -12785119.538 7  21628710.406
 -14143775.99848 -10962708.32245  22027528.5004                   22027530.2934
  -4063962.00746  -3121626.11543  23517795.1024                   23517796.9844
 -21754886.62448 -16903615.63446  20600400.0084                   20600398.0634
 11  8 25  0 14 30.0000000  0  9G12G10G25G09G17G05G04G30G02
 -18828512.815 8 -14649579.160 7  21107695.766
 -19842721.92048 -15414075.96346  20923230.1254                   20923230.7854
  -5893040.130 7  -4577717.236 7  23508434.875
    182938.16946    399294.40543  24182133.4304                   24182138.3554
  -6682103.713 7  -5162825.259 6  23499190.898
 -16521680.984 7 -12849594.813 7  21612964.789
 -14064253.33947 -10900742.64445  22042661.3444                   22042662.9104
  -4157264.12046  -3194329.04543  23500040.1334                   23500041.4774
 -21750097.65248 -16899883.95146  20601311.3364                   20601309.3714
 11  8 25  0 15  0.0000000  0  9G12G10G25G09G17G05G04G30G02
 -18872794.186 8 -14684084.109 7  21099269.406
 -19827123.74048 -15401921.52946  20926198.2584                   20926199.3094
  -5985264.753 7  -4649580.529 7  23490885.188
    266546.73147    464443.77143  24198042.4614                   24198048.0704
  -6622302.138 7  -5116226.694 6  23510570.797
 -16604053.326 7 -12913780.964 7  21597289.672
 -13984630.95547 -10838699.26145  22057812.8834                   22057814.8484
  -4250247.79047  -3266783.72444  23482346.2894                   23482348.1174
 -21745041.17448 -16895943.82446  20602273.5864                   20602271.3244
 11  8 25  0 15 30.0000000  0  9G12G10G25G09G17G05G04G30G02
 -18916574.332 8 -14718198.498 7  21090938.227
 -19810895.30048 -15389275.97545  20929286.3284                   20929287.3554
  -6077224.498 7  -4721237.447 7  23473385.602
    350216.15246    529640.51943  24213965.9144                   24213970.6024
  -6562329.230 6  -5069494.627 6  23521982.898
 -16686052.979 7 -12977676.713 7  21581685.602
 -13904910.77747 -10776579.67745  22072983.0634                   22072984.7894
  -4342910.31446  -3338988.19043  23464712.6884                   23464715.2074
 -21739718.52248 -16891796.29646  20603286.2194                   20603284.5354
 11  8 25  0 16  0.0000000  0  9G12G10G25G09G17G05G04G30G02
 -18959853.849 8 -14751922.788 7  21082702.586
 -19794039.63948 -15376141.68546  20932494.0554                   20932495.6954
  -6168919.150 7  -4792687.781 6  23455936.555
    433940.41346    594880.00243  24229897.2814                   24229902.8404
  -6502187.065 7  -5022630.672 6  23533428.164
 -16767679.279 8 -13041281.546 7  21566152.469
 -13825097.02747 -10714387.17545  22088171.0394                   22088173.1954
  -4435251.34347  -3410942.15543  23447141.2814                   23447143.4104
 -21734133.41248 -16887444.24746  20604349.1884                   20604347.4924
 11  8 25  0 16 30.0000000  0  9G12G10G25G09G17G05G04G30G02
 -19002626.909 8 -14785252.429 7  21074562.859
 -19776553.56548 -15362516.15846  20935821.1174                   20935822.7344
  -6260342.300 7  -4863926.571 7  23438539.469
    517720.01346    660162.60743  24245841.2664                   24245845.9024
  -6441871.824 7  -4975631.826 6  23544905.398
 -16848925.765 8 -13104590.432 7  21550691.945
 -13745187.70447 -10652120.20745  22103377.5084                   22103379.6214
  -4527264.30347  -3482640.48343  23429631.1954                   23429633.2544
 -21728282.84948 -16882885.35746  20605462.3364                   20605460.4734
 11  8 25  0 17  0.0000000  0  9G12G10G25G09G17G05G04G30G02
 -19044895.363 8 -14818188.870 7  21066519.617
 -19758441.53948 -15348402.87446  20939268.4224                   20939269.1804
  -6351495.154 7  -4934954.736 7  23421193.844
    601548.11146    725482.97543  24261792.5944                   24261797.5084
  -6381386.723 7  -4928500.622 6  23556415.891
 -16929793.652 8 -13167604.279 7  21535303.328
 -13665188.31747 -10589783.05445  22118600.8754                   22118602.4534
  -4618950.26647  -3554084.01243  23412184.3134                   23412186.2384
 -21722172.03148 -16878123.67146  20606625.3364                   20606623.2034
 11  8 25  0 17 30.0000000  0  9G12G10G25G09G17G05G04G30G02
 -19086655.066 8 -14850728.892 7  21058572.875
 -19739701.79448 -15333800.45946  20942833.9614                   20942835.1684
  -6442372.652 7  -5005768.340 7  23403900.328
    685423.66346    790840.34843  24277753.9844                   24277758.1954
  -6320728.523 7  -4881234.550 6  23567959.227
 -17010277.876 8 -13230319.194 7  21519987.453
 -13585098.22447 -10527375.22545  22133841.3594                   22133843.0984
  -4710304.08347  -3625268.73944  23394799.8674                   23394801.7854
 -21715799.64948 -16873158.16646  20607837.9304                   20607835.9884
 11  8 25  0 18  0.0000000  0  9G12G10G25G09G17G05G04G30G02
 -19127905.110 8 -14882871.762 7  21050723.250
 -19720335.80948 -15318710.07646  20946519.4534                   20946520.2274
  -6532972.733 7  -5076365.777 7  23386659.984
    769342.70546    856231.57443  24293723.3524                   24293727.9024
  -6259898.183 7  -4833834.317 6  23579533.523
 -17090376.930 8 -13292733.967 7  21504745.203
 -13504919.90347 -10464898.63945  22149098.5784                   22149100.9534
  -4801323.57246  -3696192.94643  23377479.1804                   23377481.3874
 -21709167.32148 -16867990.10246  20609100.3674                   20609098.0434
 11  8 25  0 18 30.0000000  0  9G12G10G25G09G17G05G04G30G02
 -19168642.973 8 -14914615.546 7  21042971.289
 -19700343.55648 -15303131.67846  20950323.4924                   20950324.7424
  -6623292.189 7  -5146744.543 7  23369472.719
    853302.48746    921654.55143  24309699.7504                   24309705.1294
  -6198894.862 6  -4786299.295 6  23591142.750
 -17170087.350 8 -13354845.901 7  21489576.391
 -13424654.63347 -10402354.30645  22164373.4064                   22164374.4414
  -4892005.39947  -3766854.11343  23360222.6094                   23360224.3484
 -21702276.20848 -16862620.39346  20610411.3444                   20610409.5004
 11  8 25  0 19  0.0000000  0  9G12G10G25G09G17G05G04G30G02
 -19208867.256 8 -14945959.132 7  21035316.688
 -19679726.50848 -15287066.44046  20954246.6884                   20954247.6254
  -6713328.741 7  -5216902.817 7  23352338.938
    937299.53646    987106.55243  24325684.6334                   24325690.0864
  -6137718.633 6  -4738629.572 6  23602783.359
 -17249407.000 8 -13416653.363 7  21474482.703
 -13344303.95547 -10339743.40745  22179662.7344                   22179665.0124
  -4982347.17246  -3837250.24843  23343032.3524                   23343033.4454
 -21695127.49248 -16857049.95246  20611771.1174                   20611769.9064
 11  8 25  0 19 30.0000000  0  9G12G10G25G09G17G05G04G30G02
 -19248576.325 8 -14976901.244 7  21027760.227
 -19658485.36348 -15270514.87546  20958289.1484                   20958290.1024
  -6803080.004 7  -5286838.803 7  23335259.406
   1021330.36146   1052584.88043  24341674.1954                   24341680.1994
  -6076369.007 7  -4690824.698 6  23614458.414
 -17328333.306 8 -13478154.294 7  21459463.125
 -13263870.26747 -10277067.82045  22194969.1334                   22194970.8954
  -5072346.38747  -3907379.47543  23325904.6254                   23325906.3914
 -21687722.53548 -16851279.85046  20613180.8364                   20613179.2664
 11  8 25  0 20  0.0000000  0  9G12G10G25G09G17G05G04G30G02
 -19287768.279 8 -15007440.411 7  21020302.219
 -19636620.10748 -15253476.98546  20962450.0164                   20962451.0004
  -6892542.473 7  -5356549.768 7  23318235.500
   1105392.51446   1118087.58543  24357671.5394                   24357676.8204
  -6014845.045 7  -4642884.044 6  23626166.711
 -17406862.991 8 -13539346.200 7  21444519.797
 -13183354.27047 -10214328.10745  22210291.2584                   22210292.7464
  -5161999.40947  -3977238.94943  23308844.8674                   23308845.4224
 -21680061.71348 -16845310.36946  20614638.4064                   20614636.3204
 11  8 25  0 20 30.0000000  0  9G12G10G25G09G17G05G04G30G02
 -19326442.768 8 -15037576.366 7  21012942.578
 -19614133.36148 -15235954.83646  20966728.8444                   20966730.0234
  -6981715.300 7  -5426035.027 7  23301265.820
   1189480.85146   1183610.67543  24373673.9614                   24373679.5594
  -5953148.319 6  -4594808.669 6  23637906.742
 -17484995.456 8 -13600228.579 7  21429651.195
 -13102759.45847 -10151526.97644  22225627.5864                   22225629.5904
  -5251305.26346  -4046827.93944  23291850.3914                   23291852.0234
 -21672148.15148 -16839143.94546  20616144.5234                   20616142.6134
 11  8 25  0 21  0.0000000  0  9G12G10G25G09G17G05G04G30G02
 -19364595.927 8 -15067306.077 7  21005682.414
 -19591023.65448 -15217947.25346  20971126.3054                   20971127.6564
  -7070593.725 7  -5495290.862 6  23284353.656
   1273594.42545   1249153.49243  24389679.6174                   24389686.0634
  -5891276.324 6  -4546596.785 6  23649681.023
 -17562725.777 8 -13660797.576 7  21414859.930
 -13022085.44347 -10088664.13045  22240978.9844                   22240981.0434
  -5340259.00546  -4116142.48944  23274923.6254                   23274925.0984
 -21663980.89248 -16832779.83346  20617698.5864                   20617696.6604
 11  8 25  0 21 30.0000000  0  9G12G10G25G09G17G05G04G30G02
 -19402227.637 8 -15096629.464 7  20998521.563
 -19567293.56948 -15199456.25446  20975642.4534                   20975643.6094
  -7159176.561 7  -5564316.404 6  23267496.891
   1357728.44546   1314712.19543  24405690.3444                   24405696.2304
  -5829230.294 6  -4498249.315 6  23661487.914
 -17640053.216 8 -13721052.659 7  21400145.250
 -12941335.24447 -10025741.93945  22256345.4224                   22256347.4884
  -5428859.43047  -4185181.75044  23258062.9064                   23258065.3284
 -21655562.37148 -16826219.93646  20619300.1094                   20619298.9184
 11  8 25  0 22  0.0000000  0  9G12G10G25G09G17G05G04G30G02
 -19439335.187 8 -15125544.421 7  20991459.875
 -19542943.00347 -15180481.77746  20980275.7034                   20980276.7274
  -7247460.223 7  -5633108.795 7  23250696.945
   1441880.61646   1380285.01943  24421704.5084                   24421711.4024
  -5767009.150 6  -4449765.363 6  23673327.609
 -17716974.065 8 -13780990.915 7  21385507.508
 -12860509.73647  -9962761.04145  22271726.9774                   22271727.7584
  -5517102.87947  -4253942.84844  23241270.8364                   23241272.9064
 -21646892.59748 -16819464.25446  20620950.1724                   20620948.2854
 11  8 25  0 22 30.0000000  0  9G12G10G25G09G17G05G04G30G02
 -19475918.097 8 -15154050.571 7  20984498.461
 -19517973.51948 -15161025.01646  20985027.0864                   20985028.1174
  -7335442.833 7  -5701666.566 7  23233954.328
   1526047.08146   1445869.01443  24437720.5864                   24437726.7384
  -5704613.241 6  -4401145.238 6  23685201.906
 -17793486.816 8 -13840611.167 7  21370947.383
 -12779610.95347  -9899723.05745  22287120.9064                   22287123.2624
  -5604987.13647  -4322424.03344  23224547.1094                   23224549.1254
 -21637973.95948 -16812514.65646  20622647.4774                   20622645.8554
 11  8 25  0 23  0.0000000  0  9G12G10G25G09G17G05G04G30G02
 -19511972.325 8 -15182144.754 7  20977638.078
 -19492384.16748 -15141085.23946  20989896.5474                   20989897.6484
  -7423119.930 7  -5769986.322 7  23217269.742
   1610226.56846   1511463.15543  24453738.8984                   24453745.8634
  -5642040.353 6  -4352387.206 6  23697109.148
 -17869586.973 8 -13899909.922 7  21356465.797
 -12698639.01647  -9836628.04045  22302529.5084                   22302531.0594
  -5692507.82746  -4390621.92544  23207893.3674                   23207895.1914
 -21628805.64848 -16805370.49946  20624392.2344                   20624390.5634
 11  8 25  0 23 30.0000000  0  9G12G10G25G09G17G05G04G30G02
 -19547499.955 8 -15209828.601 7  20970876.836
 -19466179.34048 -15120665.87646  20994883.5554                   20994884.5084
  -7510492.056 7  -5838068.413 7  23200643.234
   1694412.50246   1577062.34843  24469759.8524                   24469766.4414
  -5579293.610 7  -4303493.703 6  23709049.352
 -17945275.353 8 -13958887.817 7  21342062.742
 -12617598.64247  -9773479.71645  22317950.4064                   22317953.0044
  -5779665.34946  -4458536.82444  23191306.8204                   23191308.9064
 -21619391.78248 -16798035.00746  20626183.7034                   20626181.9734
 11  8 25  0 24  0.0000000  0  9G12G10G25G09G17G05G04G30G02
 -19582495.707 8 -15237098.005 7  20964217.484
 -19439356.30547 -15099764.78846  20999988.1804                   20999988.7704
  -7597552.660 7  -5905907.777 7  23184076.422
   1778605.52046   1642667.02642  24485781.6884                   24485787.7774
  -5516368.615 7  -4254461.281 6  23721024.328
 -18020545.629 8 -14017539.904 7  21327739.289
 -12536487.46647  -9710276.21445  22333385.2894                   22333387.6054
  -5866453.07147  -4526163.55444  23174791.4694                   23174794.6994
 -21609730.25548 -16790506.53346  20628021.8914                   20628020.5634
 11  8 25  0 24 30.0000000  0  9G12G10G25G09G17G05G04G30G02
 -19616961.007 8 -15263954.068 7  20957658.984
 -19411919.52947 -15078385.46146  21005208.7894                   21005209.5784
  -7684302.659 7  -5973505.094 7  23167568.516
   1862799.15846   1708272.15043  24501803.8054                   24501810.7894
  -5453268.864 6  -4205292.677 6  23733031.133
 -18095398.586 8 -14075866.831 7  21313495.078
 -12455310.79347  -9647021.69545  22348833.2194                   22348835.2344
  -5952871.82447  -4593502.75544  23158346.6644                   23158349.8014
 -21599825.24248 -16782788.32746  20629907.0164                   20629905.2194
 11  8 25  0 25  0.0000000  0  9G12G10G25G09G17G05G04G30G02
 -19650892.254 8 -15290393.987 7  20951202.094
 -19383867.54247 -15056526.75746  21010546.9304                   21010547.9734
  -7770736.989 7  -6040856.429 7  23151120.703
   1946992.52545   1773877.17642  24517825.2274                   24517832.3404
  -5389991.526 7  -4155985.734 6  23745073.273
 -18169829.603 8 -14133864.970 7  21299331.203
 -12374067.78247  -9583715.45945  22364293.2664                   22364294.4884
  -6038916.38147  -4660550.41944  23141973.1804                   23141975.5554
 -21589675.69048 -16774879.57046  20631838.4534                   20631836.6914
 11  8 25  0 25 30.0000000  0  9G12G10G25G09G17G05G04G30G02
 -19684288.862 8 -15316417.292 7  20944846.836
 -19355202.26247 -15034190.16446  21016001.5864                   21016002.4614
  -7856853.747 7  -6107960.361 7  23134733.266
   2031181.89945   1839478.92442  24533845.6414                   24533853.5084
  -5326537.387 7  -4106540.995 6  23757147.359
 -18243837.174 8 -14191533.137 7  21285248.016
 -12292760.70147  -9520359.32245  22379765.3364                   22379767.4694
  -6124584.93047  -4727305.04244  23125670.9454                   23125674.0084
 -21579283.17448 -16766781.49246  20633816.0474                   20633814.4574
 11  8 25  0 26  0.0000000  0  9G12G10G25G09G17G05G04G30G02
 -19717149.401 8 -15342022.903 7  20938593.703
 -19325925.19248 -15011376.84946  21021572.8134                   21021573.8444
  -7942651.000 7  -6174815.294 7  23118406.219
   2115363.52946   1905074.77942  24549865.6724                   24549872.8954
  -5262906.731 7  -4056958.762 6  23769256.359
 -18317419.512 8 -14248869.964 7  21271245.953
 -12211391.65147  -9456954.90145  22395249.8914                   22395251.7854
  -6209875.36547  -4793765.04444  23109440.6094                   23109442.9534
 -21568649.82648 -16758495.75346  20635839.6334                   20635837.7384
 11  8 25  0 26 30.0000000  0  9G12G10G25G09G17G05G04G30G02
 -19749472.294 8 -15367209.554 7  20932442.273
 -19296037.42448 -14988087.66546  21027260.4144                   21027262.0044
  -8028125.791 7  -6241418.971 7  23102140.906
   2199534.09046   1970661.99842  24565882.1564                   24565889.2934
  -5199098.845 7  -4007238.375 6  23781398.469
 -18390573.644 8 -14305873.116 7  21257324.961
 -12129961.98847  -9393503.24945  22410744.9064                   22410747.5744
  -6294784.57547  -4859928.00244  23093282.9454                   23093285.6334
 -21557776.41448 -16750022.95746  20637908.7114                   20637906.9964
 11  8 25  0 27  0.0000000  0  9G12G10G25G09G17G05G04G30G02
 -19781255.143 8 -15391975.383 7  20926394.688
 -19265538.48348 -14964322.24446  21033064.3204                   21033065.1804
  -8113274.128 7  -6307768.258 7  23085937.359
   2283692.16846   2036239.43442  24581897.5394                   24581904.0704
  -5135112.254 6  -3957378.749 6  23793574.750
 -18463295.780 8 -14362539.652 7  21243486.523
 -12048471.90747  -9330004.50145  22426252.2894                   22426253.7734
  -6379308.56547  -4925790.77644  23077198.5164                   23077200.8674
 -21546662.84048 -16741363.00846  20640023.0314                   20640021.6374
 11  8 25  0 27 30.0000000  0  9G12G10G25G09G17G05G04G30G02
 -19812498.310 8 -15416320.697 7  20920449.102
 -19234431.91147 -14940083.34346  21038983.6414                   21038984.3984
  -8198095.524 7  -6373862.809 6  23069796.352
   2367832.19146   2101802.86143  24597909.0234                   24597916.4104
  -5070948.868 6  -3907381.373 6  23805784.148
 -18535585.931 8 -14418869.576 7  21229729.875
 -11966924.97747  -9266461.46344  22441770.0474                   22441771.8594
  -6463446.70247  -4991352.89944  23061188.0004                   23061189.8204
 -21535312.34148 -16732518.45046  20642183.6094                   20642182.0164
 11  8 25  0 28  0.0000000  0  9G12G10G25G09G17G05G04G30G02
 -19843198.365 8 -15440242.789 7  20914607.203
 -19202716.75347 -14915370.22046  21045018.2194                   21045020.0824
  -8282585.211 7  -6439698.874 6  23053718.820
   2451953.60846   2167351.72943  24613916.7194                   24613924.5474
  -5006606.234 6  -3857244.289 6  23818028.984
 -18607439.730 8 -14474859.497 7  21216056.570
 -11885320.54347  -9202873.63044  22457298.9224                   22457300.7034
  -6547194.30447  -5056610.64344  23045250.5394                   23045252.9574
 -21523723.82648 -16723488.41646  20644388.4614                   20644386.9104
 11  8 25  0 28 30.0000000  0  9G12G10G25G09G17G05G04G30G02
 -19873354.725 8 -15463741.236 7  20908868.578
 -19170395.39647 -14890184.75746  21051169.1024                   21051169.9384
  -8366741.534 7  -6505275.204 6  23037703.672
   2536052.17746   2232882.83743  24629920.9924                   24629927.8204
  -4942085.316 6  -3806968.290 6  23830306.539
 -18678855.339 8 -14530507.954 7  21202466.617
 -11803661.33447  -9139243.09444  22472838.1414                   22472839.7584
  -6630549.55947  -5121562.74244  23029389.2504                   23029391.2734
 -21511899.62848 -16714274.74346  20646638.5474                   20646637.0204
 11  8 25  0 29  0.0000000  0  9G12G10G25G09G17G05G04G30G02
 -19902965.935 8 -15486814.892 7  20903233.813
 -19137469.16847 -14864527.93646  21057434.6804                   21057435.9494
  -8450561.842 7  -6570589.670 7  23021753.414
   2620124.88246   2298393.77343  24645918.7664                   24645926.0474
  -4877385.789 6  -3756553.130 6  23842618.703
 -18749830.653 8 -14585813.331 7  21188960.563
 -11721948.57447  -9075570.84844  22488387.5474                   22488389.8754
  -6713509.71447  -5186206.93944  23013602.2584                   23013604.0084
 -21499840.74848 -16704878.20046  20648933.0474                   20648931.6764
 11  8 25  0 29 30.0000000  0  9G12G10G25G09G17G05G04G30G02
 -19932031.510 8 -15509463.377 7  20897702.789
 -19103939.62947 -14838401.02546  21063815.4924                   21063816.4064
  -8534044.198 7  -6635640.805 7  23005867.500
   2704167.63246   2363881.35243  24661911.3914                   24661919.9344
  -4812508.206 6  -3705999.240 6  23854964.273
 -18820364.002 8 -14640774.328 7  21175538.320
 -11640184.49347  -9011858.59444  22503946.5394                   22503948.0864
  -6796072.92747  -5250541.85044  22997890.4694                   22997891.1024
 -21487548.91748 -16695300.14146  20651272.0944                   20651270.7774
 11  8 25  0 30  0.0000000  0  9G12G10G25G09G17G05G04G30G02
 -19960548.569 8 -15531684.432 7  20892276.195
 -19069806.82147 -14811804.03846  21070310.7584                   21070311.8984
  -8617184.545 7  -6700425.440 7  22990046.266
   2788179.21946   2429344.70043  24677899.9454                   24677906.9614
  -4747450.658 6  -3655305.069 6  23867344.391
 -18890451.542 8 -14695387.939 7  21162201.320
 -11558368.91547  -8948106.23644  22519515.9304                   22519517.7894
  -6878235.03946  -5314564.17744  22982256.0634                   22982257.1294
 -21475024.11748 -16685540.55246  20653655.7274                   20653653.7424
 11  8 25  0 30 30.0000000  0  9G12G10G25G09G17G05G04G30G02
 -19988517.177 8 -15553478.143 7  20886954.063
 -19035073.41747 -14784739.04346  21076920.1954                   21076921.2154
  -8699981.843 7  -6764942.767 6  22974290.266
   2872154.88046   2494779.96743  24693880.5944                   24693886.9494
  -4682214.435 6  -3604471.708 6  23879758.594
 -18960092.430 8 -14749653.508 7  21148948.844
 -11476505.19847  -8884316.35244  22535093.8834                   22535095.6604
  -6959994.83647  -5378273.04144  22966696.6414                   22966699.1644
 -21462268.88648 -16675601.40846  20656082.8134                   20656081.1294
 11  8 25  0 31  0.0000000  0  9G12G10G25G09G17G05G04G30G02
 -20015935.423 8 -15574842.996 7  20881736.258
 -18999740.38747 -14757206.80546  21083644.0234                   21083645.3954
  -8782432.880 7  -6829190.263 7  22958600.336
   2956092.07046   2560185.33843  24709853.0004                   24709859.6804
  -4616799.186 6  -3553498.829 6  23892206.750
 -19029284.371 8 -14803569.249 7  21135782.078
 -11394593.96347  -8820489.42744  22550680.9454                   22550683.0784
  -7041349.27447  -5441666.05944  22951215.5004                   22951217.5704
 -21449283.93648 -16665483.26346  20658553.8914                   20658552.2854
 11  8 25  0 31 30.0000000  0  9G12G10G25G09G17G05G04G30G02
 -20042801.586 8 -15595777.659 7  20876623.953
 -18963808.18947 -14729207.69846  21090481.3914                   21090482.7814
  -8864533.948 7  -6893165.081 6  22942977.000
   3039988.80345   2625559.09542  24725818.4064                   24725825.0784
  -4551203.337 6  -3502385.270 6  23904688.734
 -19098023.584 8 -14857132.217 7  21122701.211
 -11312635.54747  -8756625.77644  22566276.8754                   22566279.0164
  -7122294.45747  -5504740.18044  22935812.5004                   22935814.2624
 -21436069.09548 -16655185.97446  20661068.3984                   20661067.1954
 11  8 25  0 32  0.0000000  0  9G12G10G25G09G17G05G04G30G02
 -20069115.269 8 -15616281.816 7  20871616.273
 -18927279.38248 -14700743.68546  21097432.6804                   21097433.9884
  -8946283.855 7  -6956866.258 6  22927420.227
   3123840.86845   2690898.07442  24741773.8984                   24741782.2774
  -4485428.050 6  -3451131.833 6  23917205.094
 -19166309.445 8 -14910341.926 7  21109706.820
 -11230632.96347  -8692727.69244  22581881.8674                   22581884.6254
  -7202829.10447  -5567494.40444  22920487.1644                   22920489.3364
 -21422627.09048 -16644711.67746  20663626.2814                   20663624.8014
 11  8 25  0 32 30.0000000  0  9G12G10G25G09G17G05G04G30G02
 -20094875.252 8 -15636354.510 7  20866714.578
 -18890155.40647 -14671815.92246  21104497.5554                   21104498.1884
  -9027679.870 7  -7020291.678 6  22911931.570
   3207645.27445   2756199.92942  24757721.7734                   24757730.3754
  -4419473.338 6  -3399738.624 6  23929756.750
 -19234139.231 8 -14963196.243 7  21096799.648
 -11148587.37447  -8628796.13044  22597494.4304                   22597497.0274
  -7282950.58946  -5629926.65244  22905240.6644                   22905243.1214
 -21408958.61948 -16634060.92846  20666227.3524                   20666225.5274
 11  8 25  0 33  0.0000000  0  9G12G10G25G09G17G05G04G30G02
 -20120078.970 8 -15655993.764 7  20861918.898
 -18852436.45847 -14642424.53446  21111675.1484                   21111675.9494
  -9108718.376 7  -7083438.515 7  22896510.250
 -56574559.90255 -43827336.83052  24773658.6484                   24773670.1884
  -4353337.865 6  -3348204.567 6  23942341.375
 -19301509.831 8 -15015692.765 7  21083978.844
 -11066499.01647  -8564831.18444  22613115.0634                   22613117.9414
  -7362655.13846  -5692034.04044  22890073.6094                   22890075.6604
 -21395064.01348 -16623233.95646  20668871.3054                   20668869.8674
 11  8 25  0 33 30.0000000  0  9G12G10G25G09G17G05G04G30G02
 -20144726.285 8 -15675199.459 7  20857228.234
 -18814124.93847 -14612571.40545  21118965.2894                   21118966.1174
  -9189397.625 7  -7146305.397 7  22881157.070
 -56490858.61555 -43762115.37952  24789586.7424                   24789598.0784
  -4287022.137 6  -3296530.026 6  23954961.313
 -19368419.791 8 -15067830.345 7  21071246.539
 -10984370.33447  -8500834.85944  22628744.3284                   22628746.4144
  -7441941.04947  -5753815.22344  22874985.6334                   22874988.0664
 -21380945.20948 -16612232.29546  20671557.9534                   20671556.3984
 11  8 25  0 34  0.0000000  0  9G12G10G25G09G17G05G04G30G02
 -20168816.118 8 -15693970.749 7  20852644.078
 -18775222.53847 -14582257.84346  21126368.1254                   21126369.2624
  -9269715.360 7  -7208890.586 7  22865873.023
 -56407214.13045 -43696938.17442  24805506.2114                   24805517.0084
  -4220526.532 6  -3244715.313 6  23967614.359
 -19434867.538 8 -15119607.757 7  21058602.117
 -10902202.89447  -8436808.28444  22644380.1644                   22644382.5394
  -7520806.07947  -5815268.42944  22859978.1644                   22859980.0474
 -21366603.64548 -16601057.05046  20674287.3054                   20674285.6844
 11  8 25  0 34 30.0000000  0  9G12G10G25G09G17G05G04G30G02
 -20192346.849 8 -15712306.381 7  20848166.211
 -18735729.98048 -14551484.41346  21133883.3914                   21133883.8674
  -9349667.907 7  -7271191.199 7  22850659.031
 -56323628.414 5                  24821411.492
  -4153849.555 6  -3192759.288 6  23980303.234
 -19500849.323 8 -15171022.079 7  21046045.836
 -10819996.98147  -8372751.75944  22660023.0474                   22660025.1954
  -7599246.44747  -5876390.73744  22845051.5864                   22845053.0394
 -21352039.31448 -16589708.21346  20677058.4534                   20677057.0824
 11  8 25  0 35  0.0000000  0  9G12G10G25G09G17G05G04G30G02
 -20215318.747 8 -15730206.553 7  20843794.594
 -18695650.57448 -14520253.71446  21141510.2194                   21141511.1484
  -9429254.443 7  -7333206.623 7  22835514.203
 -56240106.324 6                  24837305.938
  -4086992.917 6  -3140663.254 6  23993026.188
 -19566364.998 8 -15222073.211 7  21033578.547
 -10737755.86847  -8308667.80144  22675673.7274                   22675675.7544
  -7677261.40647  -5937181.53744  22830205.7814                   22830207.3134
 -21337255.21348 -16578188.14446  20679871.9694                   20679870.2814
 11  8 25  0 35 30.0000000  0  9G12G10G25G09G17G05G04G30G02
 -20237721.545 8 -15747663.282 7  20839531.656
 -18654976.52947 -14488559.64945  21149250.3134                   21149251.2114
  -9508463.289 7  -7394927.732 7  22820441.234
 -56156641.581 6                  24853188.352
  -4019947.514 6  -3088420.138 6  24005784.344
 -19631403.384 8 -15272752.419 7  21021202.227
 -10655471.58347  -8244550.22244  22691331.3984                   22691334.3754
  -7754839.11947  -5997631.65444  22815442.6954                   22815444.5664
 -21322243.27548 -16566490.53446  20682728.8134                   20682727.0004
 11  8 25  0 36  0.0000000  0  8G12G10G25G17G05G04G30G02
 -20259570.390 8 -15764688.337 7  20835373.961
 -18613725.65047 -14456416.10545  21157100.0004                   21157100.8404
  -9587308.179 7  -7456365.261 7  22805437.602
  -3952729.353 6  -3036042.432 6  24018575.445
 -19695978.499 8 -15323070.642 7  21008913.734
 -10573161.92947  -8180412.85845  22706994.3594                   22706997.0274
  -7831993.44547  -6057751.85944  22800760.6094                   22800762.4304
 -21307021.00648 -16554629.02446  20685625.7034                   20685623.4264
 11  8 25  0 36 30.0000000  0  8G12G10G25G17G05G04G30G02
 -20280854.896 8 -15781273.667 7  20831323.789
 -18571890.63248 -14423817.39246  21165061.0394                   21165061.7664
  -9665777.378 7  -7517510.044 7  22790505.219
  -3885328.905 6  -2983522.643 6  24031400.914
 -19760079.017 8 -15373019.050 7  20996716.102
 -10490818.89147  -8116249.50045  22722664.6564                   22722666.4774
  -7908712.56247  -6117532.94444  22786162.1024                   22786162.7274
 -21291580.29048 -16542597.30846  20688563.2194                   20688561.8914
 11  8 25  0 37  0.0000000  0  8G12G10G25G17G05G04G30G02
 -20301576.005 8 -15797419.975 7  20827380.359
 -18529474.67747 -14390765.97745  21173132.4224                   21173133.4494
  -9743870.180 7  -7578361.505 7  22775644.813
  -3817748.292 6  -2930862.477 6  24044261.781
 -19823704.925 8 -15422597.644 7  20984608.211
 -10408445.67147  -8052062.61344  22738338.9844                   22738341.2544
  -7984995.80447  -6176974.36344  22771645.8204                   22771646.2424
 -21275923.93948 -16530397.56046  20691543.3204                   20691541.5944
 11  8 25  0 37 30.0000000  0  8G12G10G25G17G05G04G30G02
 -20321730.157 8 -15813124.507 7  20823545.305
 -18486477.22747 -14357261.46245  21181314.4924                   21181315.3874
  -9821581.537 7  -7638915.770 7  22760856.828
  -3749985.001 6  -2878059.955 6  24057156.578
 -19886851.434 8 -15471802.663 7  20972592.148
 -10326041.05147  -7987851.26344  22754020.4384                   22754023.1454
  -8060838.18247  -6236072.29544  22757213.0944                   22757213.8164
 -21260050.50248 -16518028.66046  20694563.6884                   20694562.3364
 11  8 25  0 38  0.0000000  0  8G12G10G25G17G05G04G30G02
 -20341318.743 8 -15828388.328 7  20819817.734
 -18442901.80248 -14323306.56745  21189606.6094                   21189607.3134
  -9898910.907 7  -7699172.420 7  22746141.297
  -3682040.499 6  -2825116.263 6  24070085.781
 -19949518.507 8 -15520634.116 7  20960666.383
 -10243608.39147  -7923618.06144  22769707.1024                   22769709.2304
  -8136239.09947  -6294826.18544  22742864.9064                   22742865.2664
 -21243963.98748 -16505493.72346  20697624.6884                   20697623.4454
 11  8 25  0 38 30.0000000  0  8G12G10G25G17G05G04G30G02
 -20360339.528 8 -15843209.717 7  20816198.414
 -18398749.32247 -14288902.02645  21198008.8524                   21198009.4844
  -9975855.031 7  -7759128.838 6  22731499.570
  -3613914.240 6  -2772030.875 6  24083049.961
 -20011703.511 8 -15569089.924 7  20948833.594
 -10161148.02547  -7859363.27544  22785398.7814                   22785400.8714
  -8211195.29146  -6353233.57844  22728601.2424                   22728601.7504
 -21227663.52748 -16492792.08346  20700726.7664                   20700725.2344
 11  8 25  0 39  0.0000000  0  8G12G10G25G17G05G04G30G02
 -20378792.720 8 -15857588.826 8  20812686.914
 -18354022.67047 -14254050.07345  21206519.3364                   21206521.0124
 -10052412.277 7  -7818783.836 6  22716931.414
  -3545606.948 6  -2718804.442 6  24096048.695
 -20073405.120 8 -15617169.060 7  20937092.188
 -10078662.23847  -7795088.66144  22801095.0784                   22801097.3014
  -8285705.12747  -6411293.14744  22714422.0004                   22714422.7774
 -21211151.63548 -16479925.68346  20703868.9694                   20703866.7854
 11  8 25  0 39 30.0000000  0  8G12G10G25G17G05G04G30G02
 -20396676.488 8 -15871524.223 7  20809283.469
 -18308722.69347 -14218751.39745  21215139.6724                   21215141.2894
 -10128579.276 7  -7878134.719 6  22702436.320
  -3477117.501 6  -2665436.093 6  24109081.539
 -20134620.640 8 -15664869.415 7  20925442.539
  -9996151.42347  -7730794.51944  22816796.6094                   22816798.6214
  -8359765.29847  -6469002.33144  22700329.1724                   22700329.8364
 -21194428.54948 -16466894.72046  20707051.0864                   20707049.3954
 11  8 25  0 40  0.0000000  0  8G12G10G25G17G05G04G30G02
 -20413990.272 8 -15885015.483 7  20805988.500
 -18262851.43547 -14183007.55345  21223869.1334                   21223870.1644
 -10204353.950 7  -7937179.896 6  22688017.430
  -3408446.271 6  -2611926.089 6  24122149.867
 -20195348.304 8 -15712189.636 7  20913886.570
  -9913617.61747  -7666482.48044  22832502.0704                   22832503.7624
  -8433373.84247  -6526359.59944  22686321.7974                   22686323.0434
 -21177495.64148 -16453700.26246  20710273.5704                   20710271.9654
 11  8 25  0 40 30.0000000  0  8G12G10G25G17G05G04G30G02
 -20430733.168 8 -15898061.893 7  20802802.844
 -18216410.77247 -14146820.01045  21232706.5164                   21232707.1054
 -10279733.913 7  -7995917.525 7  22673672.844
  -3339593.088 6  -2558274.310 6  24135252.266
 -20255586.289 8 -15759128.282 7  20902423.727
  -9831061.65047  -7602153.17444  22848212.2344                   22848213.8204
  -8506528.25547  -6583363.01344  22672401.0784                   22672401.7154
 -21160354.32848 -16440343.41346  20713535.4614                   20713533.6914
 11  8 25  0 41  0.0000000  0  8G12G10G25G17G05G04G30G02
 -20446904.225 8 -15910662.713 7  20799725.664
 -18169402.10847 -14110189.86746  21241651.4924                   21241652.9884
 -10354716.266 7  -8054345.313 7  22659403.961
  -3270558.138 6  -2504480.873 6  24148388.680
 -20315332.239 8 -15805683.513 7  20891054.500
  -9748484.42747  -7537807.30944  22863925.7274                   22863928.0474
  -8579225.71247  -6640010.35145  22658567.3444                   22658568.1764
 -21143005.44348 -16426824.81746  20716837.2114                   20716834.8484
 11  8 25  0 41 30.0000000  0  8G12G10G25G17G05G04G30G02
 -20462502.719 8 -15922817.362 7  20796757.117
 -18121827.50347 -14073118.73746  21250705.2504                   21250705.9614
 -10429298.752 7  -8112461.516 7  22645211.250
  -3201341.145 6  -2450545.630 6  24161560.266
 -20374584.206 8 -15851853.831 7  20879779.016
  -9665887.46047  -7473446.06144  22879643.0634                   22879645.6804
  -8651463.97547  -6696299.86844  22644821.0704                   22644821.9104
 -21125450.21348 -16413145.41546  20720177.3834                   20720175.0704
 11  8 25  0 42  0.0000000  0  8G12G10G25G17G05G04G30G02
 -20477528.192 8 -15934525.520 7  20793897.992
 -18073689.37247 -14035608.49645  21259865.6174                   21259866.4964
 -10503479.398 7  -8170264.589 7  22631095.633
  -3131942.870 6  -2396469.095 6  24174766.406
 -20433341.374 8 -15897638.597 7  20868597.992
  -9583272.49047  -7409070.79644  22895364.4844                   22895366.8284
  -8723241.25247  -6752230.17745  22631161.9774                   22631163.7034
 -21107690.17548 -16399306.43546  20723557.0634                   20723555.3284
 11  8 25  0 42 30.0000000  0  8G12G10G25G17G05G04G30G02
 -20491980.187 8 -15945786.806 7  20791147.617
 -18024989.97547 -13997660.90445  21269132.5314                   21269133.2814
 -10577255.770 7  -8227752.659 7  22617056.703
  -3062363.030 6  -2342251.050 6  24188006.750
 -20491601.732 8 -15943036.228 7  20857511.258
  -9500640.99347  -7344682.65644  22911088.8204                   22911091.2304
  -8794555.09147  -6807799.36444  22617591.4844                   22617592.9804
 -21089726.29748 -16385308.61546  20726975.8284                   20726974.0824
 11  8 25  0 43  0.0000000  0  8G12G10G25G17G05G04G30G02
 -20505855.963 8 -15956599.096 7  20788507.500
 -17975729.20147 -13959275.88646  21278506.8284                   21278508.2704
 -10650623.852 7  -8284922.560 7  22603094.875
  -2992599.906 6  -2287890.152 6  24201282.094
 -20549361.544 8 -15988043.842 7  20846520.406
  -9417992.16647  -7280281.01844  22926816.5474                   22926819.0124
  -8865401.32547  -6863004.20245  22604109.4774                   22604111.4144
 -21071558.26748 -16371151.70846  20730432.6644                   20730431.2114
 11  8 25  0 43 30.0000000  0  8G12G10G25G17G05G04G30G02
 -20519157.263 7 -15966963.744 7  20785975.969
 -17925911.09647 -13920456.57245  21287986.7424                   21287987.8984
 -10723583.334 7  -8341774.083 7  22589211.469
  -2922655.951 6  -2233388.465 6  24214592.742
 -20606621.105 8 -16032661.630 7  20835623.836
  -9335329.56547  -7215868.63144  22942546.8754                   22942549.1294
  -8935779.99747  -6917844.69244  22590716.8524                   22590718.4104
 -21053189.32648 -16356838.25346  20733928.5864                   20733926.7234
 11  8 25  0 44  0.0000000  0  8G12G10G25G17G05G04G30G02
 -20531880.493 8 -15976877.946 7  20783555.227
 -17875534.67147 -13881202.21345  21297573.0314                   21297574.1724
 -10796128.890 7  -8398303.062 7  22575406.055
  -2852528.175 7  -2178743.497 6  24227938.500
 -20663375.794 8 -16076886.028 7  20824823.781
  -9252651.35647  -7151444.06644  22958280.0864                   22958282.2974
  -9005685.58747  -6972316.54744  22577413.9064                   22577416.2464
 -21034617.59048 -16342366.76446  20737462.4924                   20737460.6524
 11  8 25  0 44 30.0000000  0  8G12G10G25G17G05G04G30G02
 -20544028.748 8 -15986344.115 7  20781243.344
 -17824605.86147 -13841517.42545  21307264.6414                   21307265.7154
 -10868261.949 7  -8454510.599 7  22561679.820
  -2782220.330 7  -2123958.176 6  24241316.563
 -20719627.645 8 -16120718.599 7  20814119.430
  -9169962.72247  -7087011.43144  22974014.7194                   22974017.6414
  -9075119.83747  -7026421.13145  22564200.7734                   22564203.7624
 -21015848.05748 -16327741.15446  20741034.1884                   20741032.0434
 11  8 25  0 45  0.0000000  0  8G12G10G25G17G05G04G30G02
 -20555597.868 8 -15995359.016 7  20779041.727
 -17773123.37247 -13801401.19645  21317061.1884                   21317061.9344
 -10939976.725 7  -8510392.223 7  22548032.953
  -2711729.052 7  -2069029.908 6  24254730.586
 -20775371.410 8 -16164155.260 7  20803511.414
  -9087261.13747  -7022568.64244  22989752.3674                   22989754.3284
  -9144076.75847  -7080153.77244  22551078.8524                   22551081.3914
 -20996878.29148 -16312959.51646  20744643.7114                   20744641.9344
 11  8 25  0 45 30.0000000  0  8G12G10G25G17G05G04G30G02
 -20566589.988 8 -16003924.313 7  20776949.867
 -17721091.75247 -13760857.08346  21326962.4224                   21326963.3524
 -11011273.524 7  -8565948.131 7  22534465.188
  -2641056.964 6  -2013960.762 6  24268179.375
 -20830608.135 8 -16207196.817 7  20793000.273
  -9004550.57346  -6958118.89344  23005492.0864                   23005494.1844
  -9212556.89747  -7133514.92344  22538047.6564                   22538049.6214
 -20977712.17848 -16298024.88346  20748291.2974                   20748289.1174
 11  8 25  0 46  0.0000000  0  8G12G10G25G17G05G04G30G02
 -20577001.891 8 -16012037.492 7  20774968.773
 -17668510.54047 -13719884.70945  21336968.6564                   21336969.5634
 -11082147.355 7  -8621174.458 7  22520978.625
  -2570201.487 6  -1958748.718 6  24281662.320
 -20885333.389 8 -16249839.841 7  20782586.438
  -8921829.74246  -6893661.14944  23021232.7814                   23021234.8714
  -9280555.25147  -7186500.62445  22525107.8204                   22525110.3634
 -20958348.22148 -16282936.08146  20751976.0554                   20751974.0554
 11  8 25  0 46 30.0000000  0  8G12G10G25G17G05G04G30G02
 -20586834.373 8 -16019699.171 7  20773097.875
 -17615383.21947 -13678486.80845  21347078.2894                   21347079.3714
 -11152597.179 7  -8676070.380 7  22507571.953
  -2499164.001 7  -1903394.888 6  24295180.547
 -20939546.642 8 -16292083.898 7  20772270.117
  -8839100.94746  -6829197.20044  23036976.6564                   23036978.6724
  -9348071.00147  -7239110.29845  22512260.3984                   22512262.5664
 -20938788.92748 -16267695.06746  20755698.1334                   20755695.8164
 11  8 25  0 47  0.0000000  0  8G12G10G25G17G05G04G30G02
 -20596087.242 7 -16026909.206 7  20771336.977
 -17561711.59947 -13636664.77045  21357290.9064                   21357292.4964
 -11222620.739 7  -8730634.164 7  22494247.297
  -2427944.779 6  -1847899.366 6  24308732.930
 -20993246.530 8 -16333927.921 7  20762051.125
  -8756365.47446  -6764728.03044  23052719.9224                   23052722.3834
  -9415101.77847  -7291342.04945  22499504.4924                   22499506.7624
 -20919035.37748 -16252302.69046  20759456.6804                   20759455.1644
 11  8 25  0 47 30.0000000  0  9G12G10G25G29G17G05G04G30G02
 -20604759.253 7 -16033666.625 7  20769686.656
 -17507497.87147 -13594420.30745  21367607.9694                   21367608.9534
 -11292215.574 7  -8784863.844 7  22481003.297
   -703861.96316   -535668.79916  24656899.234
  -2356543.732 6  -1792262.217 6  24322320.430
 -21046430.940 8 -16375370.282 7  20751930.859
  -8673624.24746  -6700254.38944  23068465.0474                   23068467.1524
  -9481645.33147  -7343194.15545  22486842.1564                   22486843.2774
 -20899088.34748 -16236759.54246  20763252.8054                   20763250.4884
 11  8 25  0 48  0.0000000  0  9G12G10G25G29G17G05G04G30G02
 -20612844.634 7 -16039966.928 7  20768148.172
 -17452738.44147 -13551750.63945  21378028.3914                   21378029.4804
 -11361373.828 7  -8838753.348 7  22467843.070
   -784375.719 6   -598406.688 6  24641578.320
  -2284955.447 6  -1736479.236 6  24335943.047
 -21099093.211 8 -16416405.775 7  20741909.242
  -8590873.01946  -6635772.97044  23084212.7894                   23084214.8284
  -9547693.84047  -7394660.49645  22474273.1884                   22474274.6254
 -20878943.52448 -16221062.27046  20767086.1954                   20767084.0274
 11  8 25  0 48 30.0000000  0  9G12G10G25G29G17G05G04G30G02
 -20620353.978 7 -16045818.373 7  20766719.422
 -17397446.42847 -13508665.96845  21388550.6414                   21388551.6724
 -11430103.905 7  -8892309.206 7  22454764.508
   -864966.330 6   -661204.480 6  24626242.398
  -2213190.895 6  -1680558.809 6  24349599.977
 -21151242.178 8 -16457041.304 7  20731985.680
  -8508123.55246  -6571292.90244  23099959.0314                   23099960.9844
  -9613255.84847  -7445747.76145  22461797.9694                   22461798.3714
 -20858612.76248 -16205220.09946  20770954.9844                   20770953.2464
 11  8 25  0 49  0.0000000  0  9G12G10G25G29G17G05G04G30G02
 -20627280.742 7 -16051215.852 7  20765401.070
 -17341618.41547 -13465163.63245  21399173.7584                   21399175.4104
 -11498397.771 7  -8945525.183 7  22441768.484
   -945627.505 6   -724057.263 5  24610893.211
  -2141243.911 6  -1624496.247 6  24363290.750
 -21202870.391 8 -16497271.044 7  20722161.148
  -8425370.94346  -6506810.37744  23115706.6414                   23115708.5984
  -9678323.37947  -7496449.70645  22449415.4774                   22449416.3244
 -20838091.43748 -16189229.44546  20774860.0234                   20774857.9844
 11  8 25  0 49 30.0000000  0  9G12G10G25G29G17G05G04G30G02
 -20633626.066 8 -16056160.266 7  20764193.766
 -17285257.86047 -13421246.32445  21409898.8674                   21409900.0234
 -11566254.505 7  -8998400.523 7  22428855.641
  -1026359.940 6   -786965.647 6  24595530.133
  -2069116.219 6  -1568292.907 6  24377016.359
 -21253977.690 8 -16537094.888 7  20712436.055
  -8342617.86147  -6442327.52344  23131453.9694                   23131456.4734
  -9742895.66947  -7546765.74445  22437127.9064                   22437128.7974
 -20817381.88548 -16173092.12146  20778800.8054                   20778799.0084
 11  8 25  0 50  0.0000000  0  9G12G10G25G29G17G05G04G30G02
 -20639387.860 8 -16060649.982 7  20763097.063
 -17228364.97047 -13376914.22645  21420725.3834                   21420726.2114
 -11633670.268 7  -9050932.242 7  22416026.938
  -1107161.958 6   -849928.147 6  24580153.695
  -1996806.458 6  -1511947.667 6  24390775.719
 -21304560.900 8 -16576510.338 7  20702809.758
  -8259863.74347  -6377843.81844  23147201.6884                   23147203.7854
  -9806968.95247  -7596692.91645  22424934.3914                   22424936.0864
 -20796483.57148 -16156807.71246  20782777.6254                   20782775.8204
 11  8 25  0 50 30.0000000  0  9G12G10G25G29G17G05G04G30G02
 -20644566.183 8 -16064685.045 7  20762111.727
 -17170942.51347 -13332169.48045  21431652.2584                   21431653.4144
 -11700642.802 7  -9103118.605 7  22403282.461
  -1188032.578 6   -912944.158 6  24564764.539
  -1924314.877 6  -1455460.757 6  24404570.453
 -21354618.611 8 -16615516.316 7  20693284.102
  -8177109.80446  -6313360.25043  23162948.4774                   23162950.9264
  -9870541.02247  -7646229.55445  22412837.6724                   22412839.0864
 -20775397.73848 -16140377.18546  20786790.3984                   20786788.0824
 11  8 25  0 51  0.0000000  0  9G12G10G25G29G17G05G04G30G02
 -20649161.123 8 -16068265.533 7  20761237.406
 -17112993.35147 -13287014.29745  21442680.0004                   21442680.8594
 -11767170.611 7  -9154958.410 7  22390622.453
  -1268972.155 6   -976013.884 6  24549361.813
  -1851642.004 6  -1398832.556 6  24418399.602
 -21404149.913 8 -16654112.101 7  20683858.602
  -8094357.80646  -6248878.18543  23178695.7584                   23178698.1174
  -9933610.59747  -7695374.63345  22400835.5164                   22400836.6604
 -20754126.18948 -16123801.93746  20790838.0314                   20790836.2074
 11  8 25  0 51 30.0000000  0  9G12G10G25G29G17G05G04G30G02
 -20653171.691 8 -16071390.641 7  20760474.211
 -17054518.37047 -13241449.39045  21453807.5394                   21453808.2074
 -11833250.665 7  -9206449.317 7  22378048.250
  -1349979.371 7  -1039136.398 6  24533947.188
  -1778787.298 6  -1342062.659 6  24432262.758
 -21453152.632 8 -16692295.995 7  20674533.914
  -8011607.83246  -6184397.71043  23194442.9144                   23194444.8484
  -9996174.71347  -7744125.82945  22388930.5784                   22388931.2304
 -20732669.15648 -16107082.16246  20794921.1024                   20794918.9494
 11  8 25  0 52  0.0000000  0  9G12G10G25G29G17G05G04G30G02
 -20656598.345 7 -16074060.775 7  20759822.117
 -16995521.48747 -13195477.80745  21465034.0004                   21465034.9774
 -11898881.741 7  -9257590.376 7  22365558.742
  -1431054.717 6  -1102311.939 6  24518518.633
  -1705751.827 6  -1285151.895 6  24446162.211
 -21501626.080 8 -16730067.495 8  20665309.539
  -7928862.17047  -6119920.59343  23210189.2194                   23210191.3914
 -10058232.26847  -7792482.31345  22377121.0634                   22377122.6294
 -20711028.69348 -16090219.45746  20799039.2344                   20799037.7344
 11  8 25  0 52 30.0000000  0  9G12G10G25G29G17G05G04G30G02
 -20659440.446 8 -16076275.403 7  20759281.398
 -16936004.00847 -13149100.56045  21476360.0234                   21476360.8134
 -11964061.016 7  -9308379.379 7  22353155.320
  -1512196.699 6  -1165539.413 6  24503078.516
  -1632535.143 6  -1228100.022 6  24460095.297
 -21549568.461 8 -16767425.166 8  20656186.391
  -7846121.03346  -6055447.00144  23225933.8594                   23225935.6174
 -10119780.52947  -7840441.94144  22365408.8594                   22365409.8914
 -20689205.32948 -16073214.23046  20803192.0474                   20803190.2304
 11  8 25  0 53  0.0000000  0  9G12G10G25G29G17G05G04G30G02
 -20661699.445 7 -16078035.666 7  20758851.219
 -16875970.10447 -13102320.90545  21487783.2664                   21487785.0784
 -12028787.961 7  -9358815.917 7  22340838.273
  -1593406.853 6  -1228820.022 6  24487624.039
  -1559138.943 6  -1170908.203 6  24474061.945
 -21596979.841 8 -16804369.063 8  20647164.461
  -7763387.22747  -5990979.11444  23241677.9614                   23241680.5004
 -10180819.25147  -7888004.52745  22353793.6804                   22353794.7704
 -20667201.58148 -16056068.44146  20807378.7664                   20807377.4064
 11  8 25  0 53 30.0000000  0  9G12G10G25G29G17G05G04G30G02
 -20663372.598 8 -16079339.423 7  20758532.578
 -16815419.60447 -13055138.71245  21499306.4614                   21499307.3204
 -12093057.855 7  -9408896.313 7  22328607.656
  -1674681.849 6  -1292151.147 6  24472158.328
  -1485561.154 6  -1113574.871 5  24488063.531
 -21643856.494 8 -16840896.300 8  20638243.969
  -7680659.24447  -5926515.77644  23257420.2974                   23257422.7544
 -10241343.75247  -7935166.45545  22342275.6724                   22342276.5554
 -20645016.08348 -16038781.02946  20811601.0084                   20811599.1914
 11  8 25  0 54  0.0000000  0  9G12G10G25G29G17G05G04G30G02
 -20664459.882 7 -16080186.657 7  20758326.391
 -16754354.94947 -13007555.87845  21510926.5864                   21510927.4104
 -12156868.718 7  -9458619.030 7  22316464.883
  -1756021.279 6  -1355532.431 6  24456680.164
  -1411801.906 6  -1056100.109 5  24502098.117
 -21690197.092 8 -16877005.829 7  20629425.602
  -7597938.26047  -5862057.92844  23273161.7504                   23273164.4064
 -10301352.23147  -7981926.26745  22330856.7194                   22330857.4184
 -20622650.07148 -16021352.96046  20815856.7974                   20815855.1844
 11  8 25  0 54 30.0000000  0  8G12G10G25G29G05G04G30G02
 -20664954.736 7 -16080572.254 7  20758232.250
 -16692771.98847 -12959569.16945  21522645.1804                   21522645.9264
 -12220211.814 8  -9507977.268 7  22304411.602
  -1837418.038 6  -1418958.369 5  24441190.438
 -21735993.702 8 -16912691.459 8  20620710.859
  -7515218.79447  -5797601.23144  23288902.5474                   23288905.5004
 -10360836.08547  -8028277.27045  22319536.7194                   22319537.5554
 -20600098.09548 -16003779.97946  20820148.3674                   20820147.1484
 11  8 25  0 55  0.0000000  0  8G12G10G25G29G05G04G30G02
 -20664870.879 7 -16080506.917 7  20758247.852
 -16630687.19647 -12911191.40245  21534459.5314                   21534460.1134
 -12283099.102 7  -9556980.326 7  22292444.047
  -1918885.649 6  -1482439.532 5  24425688.063
 -21781259.024 8 -16947963.109 8  20612097.211
  -7432515.70747  -5733157.32844  23304640.7584                   23304643.2934
 -10419807.41447  -8074228.92145  22308315.2664                   22308315.8554
 -20577375.14048 -15986073.77746  20824472.3914                   20824470.8524
 11  8 25  0 55 30.0000000  0  8G12G10G25G29G05G04G30G02
 -20664201.489 7 -16079985.320 7  20758375.078
 -16568096.60447 -12862419.51345  21546370.3054                   21546371.1884
 -12345521.925 8  -9605621.470 7  22280565.547
  -2000416.650 6  -1545970.045 6  24410172.672
 -21825984.796 8 -16982814.328 8  20603585.945
  -7349823.43747  -5668721.84344  23320376.5234                   23320379.1884
 -10478257.75447  -8119774.60345  22297192.3204                   22297193.1024
 -20554475.81548 -15968230.14746  20828830.0084                   20828828.1644
 11  8 25  0 56  0.0000000  0  8G12G10G25G29G05G04G30G02
 -20662947.123 8 -16079007.905 7  20758614.219
 -16505001.74447 -12813254.70545  21558376.5784                   21558377.8874
 -12407477.590 7  -9653898.601 7  22268776.320
  -2082010.113 6  -1609549.311 5  24394645.352
 -21870169.782 8 -17017244.157 8  20595177.984
  -7267142.60347  -5604295.26844  23336110.1954                   23336112.6914
 -10536184.57047  -8164912.35145  22286169.6724                   22286170.7974
 -20531400.46048 -15950249.35446  20833221.1954                   20833219.3054
 11  8 25  0 56 30.0000000  0  8G12G10G25G29G05G04G30G02
 -20661105.695 8 -16077573.026 8  20758964.555
 -16441403.95647 -12763697.98745  21570478.9304                   21570479.6214
 -12468963.064 8  -9701809.331 7  22257075.453
  -2163664.773 6  -1673176.280 5  24379107.898
 -21913811.634 8 -17051250.766 8  20586873.172
  -7184472.96347  -5539877.41244  23351841.9924                   23351844.3164
 -10593584.95347  -8209639.87945  22275245.9844                   22275248.0084
 -20508149.12948 -15932131.44046  20837645.6484                   20837644.1684
 11  8 25  0 57  0.0000000  0  8G12G10G25G29G05G04G30G02
 -20658679.484 8 -16075682.480 7  20759426.695
 -16377308.38247 -12713753.38245  21582676.2034                   21582676.9774
 -12529978.513 8  -9749353.838 7  22245464.820
  -2245381.634 6  -1736851.664 6  24363556.547
 -21956911.567 8 -17084835.101 8  20578671.266
  -7101818.01647  -5475471.00744  23367571.0474                   23367573.2774
 -10650459.33247  -8253957.55145  22264423.5634                   22264425.0824
 -20484725.45548 -15913879.23146  20842103.1024                   20842101.5004
 11  8 25  0 57 30.0000000  0  8G12G10G25G29G05G04G30G02
 -20655665.316 8 -16073333.790 7  20760000.055
 -16312713.57147 -12663419.76545  21594968.5314                   21594969.0984
 -12590518.368 8  -9796527.735 7  22233944.469
  -2327156.510 6  -1800572.263 6  24347995.781
 -21999464.317 8 -17117993.052 8  20570573.867
  -7019174.79747  -5411073.73944  23383297.4304                   23383299.4734
 -10706802.17247  -8297861.01845  22253701.5634                   22253703.1024
 -20461126.60948 -15895490.52046  20846593.4064                   20846591.9144
 11  8 25  0 58  0.0000000  0  8G12G10G25G29G05G04G30G02
 -20652068.399 8 -16070531.004 7  20760684.297
 -16247627.59047 -12612703.39545  21607353.3444                   21607354.6884
 -12650585.991 8  -9843333.660 7  22222513.945
  -2408994.257 6  -1864341.889 6  24332422.648
 -22041474.440 8 -17150728.186 8  20562579.523
  -6936550.00046  -5346690.81644  23399020.5634                   23399022.5864
 -10762617.09047  -8341353.15445  22243080.8134                   22243082.3204
 -20437359.30948 -15876970.55446  20851116.5394                   20851114.4574
 11  8 25  0 58 30.0000000  0  8G12G10G25G29G05G04G30G02
 -20647883.986 8 -16067270.434 7  20761480.383
 -16182047.74247 -12561602.22545  21619832.4774                   21619834.1724
 -12710174.275 8  -9889766.076 7  22211174.578
  -2490889.354 6  -1928156.180 6  24316838.602
 -22082935.750 8 -17183035.656 8  20554689.297
  -6853939.33146  -5282318.92543  23414739.8284                   23414743.0554
 -10817897.19747  -8384428.52245  22232561.1724                   22232562.1764
 -20413419.36848 -15858316.06746  20855672.3984                   20855670.6564
 11  8 25  0 59  0.0000000  0  8G12G10G25G29G05G04G30G02
 -20643112.892 8 -16063552.704 7  20762388.719
 -16115977.82547 -12510119.17645  21632405.5784                   21632406.8094
 -12769282.177 7  -9935824.149 7  22199926.539
  -2572841.999 6  -1992015.309 6  24301242.867
 -22123847.712 8 -17214915.083 7  20546904.297
  -6771344.84846  -5217959.60443  23430457.3754                   23430459.5274
 -10872641.66247  -8427086.52145  22222143.4144                   22222145.2974
 -20389308.78648 -15839528.61846  20860260.3914                   20860258.9574
 11  8 25  0 59 30.0000000  0  8G12G10G25G29G05G04G30G02
 -20637758.234 8 -16059380.246 8  20763407.508
 -16049422.51247 -12458257.89345  21645071.0864                   21645071.7774
 -12827910.141 8  -9981508.253 7  22188770.133
  -2654853.809 6  -2055920.501 5  24285636.398
 -22164211.992 8 -17246367.737 8  20539222.984
  -6688769.60346  -5153615.30143  23446171.6414                   23446173.4614
 -10926850.99747  -8469327.55145  22211827.7274                   22211828.7974
 -20365030.83448 -15820610.75646  20864880.2734                   20864878.8284
 11  8 25  1  0  0.0000000  0  8G12G10G25G29G05G04G30G02
 -20631815.502 8 -16054749.554 8  20764538.039
 -15982380.18547 -12406017.11545  21657828.6804                   21657829.7114
 -12886052.086 8 -10026813.655 7  22177705.852
  -2736920.169 6  -2119868.282 6  24270019.734
 -22204023.477 8 -17277389.640 8  20531647.719
  -6606210.70246  -5089283.71543  23461881.1644                   23461883.1024
 -10980519.47147  -8511147.11845  22201615.0704                   22201616.0124
 -20340582.54148 -15801560.16146  20869532.5314                   20869531.1454
 11  8 25  1  0 30.0000000  0  8G12G10G25G29G05G04G30G02
 -20625288.613 8 -16049663.673 7  20765780.477
 -15914856.95247 -12353401.61445  21670677.4774                   21670678.7034
 -12943709.662 8 -10071741.626 7  22166734.453
  -2819044.073 6  -2183860.868 6  24254391.969
 -22243284.345 8 -17307982.499 8  20524176.367
  -6523672.44346  -5024968.19343  23477587.7814                   23477590.1914
 -11033648.81147  -8552546.59945  22191504.8754                   22191506.3834
 -20315968.50648 -15782380.41246  20874216.7814                   20874214.9344
 11  8 25  1  1  0.0000000  0  8G12G10G25G29G05G04G30G02
 -20618176.314 8 -16044121.629 8  20767133.758
 -15846854.32347 -12300412.54245  21683618.6884                   21683619.3324
 -13000879.372 8 -10116289.440 7  22155855.117
  -2901223.024 7  -2247896.349 6  24238754.477
 -22281992.184 8 -17338144.414 8  20516810.211
  -6441154.10546  -4960668.27443  23493290.5004                   23493294.3484
 -11086235.77247  -8593523.46145  22181497.7734                   22181499.0204
 -20291188.19348 -15763071.09646  20878932.3134                   20878930.3364
 11  8 25  1  1 30.0000000  0  8G12G10G25G29G05G04G30G02
 -20610478.227 8 -16038123.113 7  20768598.703
 -15778373.64747 -12247050.97845  21696649.2194                   21696650.1484
 -13057558.396 8 -10160454.897 7  22145069.477
  -2983455.615 7  -2311973.641 6  24223106.734
 -22320145.205 8 -17367874.014 8  20509550.344
  -6358655.87846  -4896383.96143  23508990.4144                   23508992.7734
 -11138277.74947  -8634075.65145  22171594.6024                   22171595.9924
 -20266241.88548 -15743632.42046  20883679.2424                   20883677.7344
 11  8 25  1  2  0.0000000  0  8G12G10G25G29G05G04G30G02
 -20602198.396 8 -16031671.316 7  20770174.281
 -15709421.43247 -12193321.98745  21709770.9694                   21709771.6134
 -13113748.734 8 -10204239.570 7  22134377.102
  -3065745.123 7  -2376095.261 6  24207447.180
 -22357746.091 8 -17397173.374 8  20502394.836
  -6276182.55947  -4832119.08843  23524684.1254                   23524686.4224
 -11189776.96147  -8674204.91145  22161794.6024                   22161796.0234
 -20241134.25648 -15724068.05446  20888456.7274                   20888455.3794
 11  8 25  1  2 30.0000000  0  8G12G10G25G29G05G04G30G02
 -20593333.008 8 -16024763.223 7  20771861.375
 -15639996.43047 -12139224.58745  21722982.2194                   21722983.1134
 -13169444.505 8 -10247638.859 7  22123778.148
  -3148086.477 6  -2440257.282 6  24191776.930
 -22394789.963 8 -17426038.693 8  20495345.531
  -6193730.95347  -4767871.07644  23540375.0864                   23540376.3524
 -11240727.79147  -8713906.85245  22152098.9224                   22152100.0124
 -20215862.37548 -15704375.70246  20893266.1414                   20893264.6134
 11  8 25  1  3  0.0000000  0  8G12G10G25G29G05G04G30G02
 -20583882.736 8 -16017399.375 7  20773659.766
 -15570101.44048 -12084760.95945  21736282.8914                   21736283.4344
 -13224644.154 8 -10290651.582 7  22113274.398
  -3230479.560 6  -2504459.660 6  24176098.602
 -22431276.262 8 -17454469.550 8  20488402.547
  -6111302.14547  -4703640.86344  23556060.1414                   23556062.4654
 -11291128.87447  -8753180.43245  22142508.0784                   22142509.4454
 -20190427.64048 -15684556.44846  20898106.3834                   20898104.7624
 11  8 25  1  3 30.0000000  0  8G12G10G25G29G05G04G30G02
 -20573848.883 8 -16009580.780 7  20775568.992
 -15499740.05247 -12029933.89945  21749671.5004                   21749672.6134
 -13279346.797 8 -10333276.989 7  22102864.383
  -3312924.335 6  -2568702.257 6  24160408.789
 -22467205.177 8 -17482466.068 8  20481565.281
  -6028897.99047  -4639429.87444  23571741.2894                   23571743.3134
 -11340979.51047  -8792025.08745  22133021.1804                   22133023.1294
 -20164832.07748 -15664611.86646  20902977.1254                   20902975.1374
 11  8 25  1  4  0.0000000  0  8G12G10G25G29G05G04G30G02
 -20563228.535 8 -16001305.191 7  20777589.820
 -15428911.48948 -11974742.82745  21763150.3524                   21763150.9884
 -13333547.191 8 -10375511.041 7  22092550.688
  -3395416.781 6  -2632981.983 5  24144711.930
 -22502572.184 8 -17510024.747 8  20474835.445
  -5946515.94847  -4575236.06744  23587418.0394                   23587419.8444
 -11390274.69947  -8830436.91045  22123641.0554                   22123643.2114
 -20139073.00948 -15644539.87446  20907878.7034                   20907877.0944
 11  8 25  1  4 30.0000000  0  8G12G10G25G29G05G04G30G02
 -20552025.188 8 -15992575.304 7  20779721.680
 -15357621.91148 -11919192.49845  21776715.6724                   21776717.0354
 -13387247.022 8 -10417355.058 7  22082331.461
  -3477959.599 6  -2697300.933 6  24129004.461
 -22537379.899 8 -17537147.604 8  20468211.477
  -5864160.49647  -4511062.98844  23603089.3054                   23603092.1334
 -11439016.32447  -8868417.40945  22114365.8054                   22114366.9024
 -20113154.94848 -15624343.98646  20912810.7194                   20912809.1994
 11  8 25  1  5  0.0000000  0  8G12G10G25G29G05G04G30G02
 -20540239.821 8 -15983391.901 7  20781964.594
 -15285873.91947 -11863285.00045  21790368.8754                   21790370.7974
 -13440444.500 8 -10458807.626 7  22072208.688
  -3560552.036 6  -2761658.586 6  24113287.805
 -22571627.676 8 -17563834.157 8  20461694.242
  -5781832.17847  -4446911.06543  23618755.5704                   23618758.4104
 -11487202.96147  -8905965.42845  22105195.8284                   22105197.2504
 -20087079.12948 -15604025.17846  20917772.8984                   20917771.2734
 11  8 25  1  5 30.0000000  0  8G12G10G25G29G05G04G30G02
 -20527870.783 8 -15973753.689 8  20784317.977
 -15213668.81547 -11807021.28845  21804109.2424                   21804110.4494
 -13493136.095 8 -10499865.997 7  22062181.492
  -3643191.593 6  -2826052.929 6  24097561.695
 -22605312.859 8 -17590082.326 8  20455284.383
  -5699530.19246  -4382779.67743  23634416.8914                   23634420.1914
 -11534831.27447  -8943078.41045  22096132.8674                   22096134.4414
 -20060844.55348 -15583582.65646  20922765.1644                   20922763.2304
 11  8 25  1  6  0.0000000  0  8G12G10G25G29G05G04G30G02
 -20514920.520 8 -15963662.582 8  20786782.609
 -15141010.40648 -11750404.35545  21817935.3524                   21817936.9614
 -13545321.487 8 -10540529.913 7  22052251.250
  -3725878.973 6  -2890484.522 6  24081826.500
 -22638436.041 8 -17615892.569 8  20448981.000
  -5617256.74946  -4318670.54043  23650073.8054                   23650076.9224
 -11581901.18447  -8979756.25945  22087175.2034                   22087176.7034
 -20034453.56348 -15563018.25446  20927787.3524                   20927785.5634
 11  8 25  1  6 30.0000000  0  8G12G10G25G29G05G04G30G02
 -20501387.316 8 -15953117.226 7  20789357.883
 -15067899.45047 -11693434.80845  21831848.1644                   21831849.5594
 -13596996.974 8 -10580796.511 7  22042417.648
  -3808611.253 6  -2954951.155 6  24066083.273
 -22670994.668 8 -17641262.898 8  20442785.563
  -5535010.79846  -4254582.79043  23665724.2194                   23665727.5204
 -11628409.23947  -9015996.29145  22078325.3204                   22078326.8204
 -20007905.28848 -15542331.28646  20932839.5704                   20932837.3594
 11  8 25  1  7  0.0000000  0  8G12G10G25G29G05G04G30G02
 -20487274.325 8 -15942120.095 7  20792043.648
 -14994341.45947 -11636116.89345  21845845.7814                   21845846.4614
 -13648163.526 8 -10620666.533 7  22032681.250
  -3891390.378 6  -3019454.286 6  24050331.281
 -22702990.695 8 -17666194.834 8  20436696.461
  -5452795.77646  -4190519.19743  23681369.3364                   23681372.0554
 -11674356.71747  -9051799.51445  22069582.1334                   22069583.3284
 -19981203.56248 -15521524.72746  20937920.5784                   20937918.3674
 11  8 25  1  7 30.0000000  0  8G12G10G25G29G05G04G30G02
 -20472579.947 8 -15930669.940 7  20794839.789
 -14920337.02447 -11578451.10645  21859928.6644                   21859929.7234
 -13698817.325 8 -10660136.995 7  22023041.531
  -3974213.359 6  -3083991.603 6  24034570.086
 -22734420.989 8 -17690685.947 8  20430715.727
  -5370610.41346  -4126478.68743  23697008.6414                   23697011.3984
 -11719739.94047  -9087163.04745  22060946.1804                   22060946.8754
 -19954346.95748 -15500597.49846  20943030.5944                   20943029.0824
 11  8 25  1  8  0.0000000  0  8G12G10G25G29G05G04G30G02
 -20457308.194 8 -15918769.877 7  20797745.688
 -14845891.96947 -11520441.98045  21874095.2034                   21874095.4964
 -13748959.732 8 -10699208.983 7  22013500.313
  -4057082.624 7  -3148564.989 6  24018800.891
 -22765288.198 8 -17714738.284 8  20424842.070
  -5288458.44346  -4062464.20243  23712641.3674                   23712643.8524
 -11764560.66647  -9122088.26845  22052416.5634                   22052417.2814
 -19927339.66348 -15479552.84446  20948170.1484                   20948168.5314
 11  8 25  1  8 30.0000000  0  8G12G10G25G29G05G04G30G02
 -20441453.759 8 -15906415.779 7  20800762.938
 -14771003.37647 -11462087.24445  21888345.9454                   21888347.3134
 -13798583.474 8 -10737876.817 7  22004057.039
  -4139991.967 6  -3213169.637 6  24003023.234
 -22795586.068 8 -17738346.986 8  20419076.453
  -5206334.95746  -3998471.87643  23728268.4454                   23728271.5394
 -11808811.79347  -9156569.64545  22043996.1414                   22043996.5744
 -19900176.92448 -15458387.08146  20953338.9924                   20953337.5514
 11  8 25  1  9  0.0000000  0  8G12G10G25G29G05G04G30G02
 -20425021.985 8 -15893611.812 7  20803889.555
 -14695678.89947 -11403392.84445  21902679.7894                   21902681.1134
 -13847691.509 8 -10776142.777 7  21994712.609
  -4222944.763 7  -3277808.104 6  23987237.664
 -22825318.392 8 -17761515.022 8  20413418.555
  -5124245.41146  -3934506.06743  23743890.0864                   23743893.4534
 -11852496.67247  -9190609.78645  22035682.8674                   22035683.8364
 -19872864.27848 -15437104.48446  20958536.6024                   20958534.9384
 11  8 25  1  9 30.0000000  0  8G12G10G25G29G05G04G30G02
 -20408010.118 8 -15880355.824 7  20807127.031
 -14619917.83947 -11344358.26945  21917096.7584                   21917097.7074
 -13896278.903 8 -10814003.073 7  21985466.125
  -4305936.598 7  -3342477.019 6  23971445.563
 -22854481.308 8 -17784239.334 8  20407868.961
  -5042187.38447  -3870564.78443  23759505.7114                   23759508.4224
 -11895610.60347  -9224205.03245  22027478.2194                   22027479.5784
 -19845399.08948 -15415703.03146  20963763.0554                   20963760.9964
 11  8 25  1 10  0.0000000  0  8G12G10G25G29G05G04G30G02
 -20390421.180 8 -15866650.175 7  20810474.203
 -14543724.89747 -11284987.13345  21931595.4694                   21931596.5864
 -13944346.162 8 -10851458.053 7  21976319.789
  -4388969.053 7  -3407177.578 6  23955644.359
 -22883076.629 8 -17806521.378 8  20402427.656
  -4960163.62547  -3806650.19843  23775114.5084                   23775116.9654
 -11938154.30247  -9257355.93045  22019382.9144                   22019383.8594
 -19817784.62648 -15394185.25646  20969017.8054                   20969016.0124
 11  8 25  1 10 30.0000000  0  8G12G10G25G29G05G04G30G02
 -20372255.918 8 -15852495.436 7  20813930.844
 -14467102.74847 -11225281.58145  21946175.6804                   21946177.6094
 -13991891.604 8 -10888506.426 7  21967271.711
  -4472041.313 7  -3471909.190 6  23939835.914
 -22911103.254 8 -17828360.275 8  20397093.945
  -4878174.61947  -3742762.67543  23790716.9064                   23790718.7584
 -11980126.45147  -9290061.46845  22011395.7034                   22011396.5234
 -19790021.80648 -15372551.87846  20974301.0164                   20974299.2034
 11  8 25  1 11  0.0000000  0  8G12G10G25G29G05G04G30G02
 -20353513.595 8 -15837891.051 7  20817497.477
 -14390052.96447 -11165242.79745  21960838.4064                   21960839.3054
 -14038912.208 8 -10925145.824 7  21958324.086
  -4555151.036 7  -3536670.009 6  23924021.359
 -22938559.434 8 -17849754.673 8  20391869.453
  -4796219.65646  -3678901.68943  23806312.0234                   23806314.1844
 -12021524.27447  -9322319.48845  22003517.7424                   22003518.7074
 -19762110.08948 -15350802.47446  20979612.4774                   20979610.6334
 11  8 25  1 11 30.0000000  0  8G12G10G25G29G05G04G30G02
 -20334195.339 8 -15822837.868 7  20821173.664
 -14312578.81847 -11104873.34445  21975581.5314                   21975582.1844
 -14085406.898 8 -10961375.444 7  21949476.648
  -4638297.513 6  -3601459.451 6  23908198.281
 -22965445.314 8 -17870704.694 8  20386753.102
  -4714300.09947  -3615068.29243  23821901.1484                   23821903.2384
 -12062347.09047  -9354129.44145  21995749.5784                   21995750.7424
 -19734050.93248 -15328938.18546  20984951.9614                   20984950.2584
 11  8 25  1 12  0.0000000  0  8G12G10G25G29G05G04G30G02
 -20314302.437 8 -15807336.936 7  20824958.914
 -14234683.51147 -11044175.70945  21990403.9304                   21990405.4184
 -14131374.667 8 -10997194.458 7  21940728.695
  -4721480.506 6  -3666277.319 6  23892369.445
 -22991760.620 8 -17891210.099 8  20381745.781
  -4632417.03646  -3551263.34343  23837482.7114                   23837485.0394
 -12102594.11747  -9385490.73845  21988090.9304                   21988091.8674
 -19705845.76148 -15306960.11246  20990319.1334                   20990317.4494
 11  8 25  1 12 30.0000000  0  8G12G10G25G29G05G04G30G02
 -20293836.095 8 -15791389.150 7  20828853.531
 -14156370.06947 -10983152.25645  22005306.8204                   22005307.8524
 -14176814.250 8 -11032601.897 7  21932082.281
  -4804699.248 7  -3731123.125 6  23876534.055
 -23017505.253 8 -17911270.828 8  20376846.313
  -4550571.36446  -3487487.47643  23853057.9144                   23853059.7854
 -12142264.43747  -9416402.65145  21980541.7894                   21980543.3444
 -19677495.44748 -15284868.95446  20995714.1254                   20995712.2464
 11  8 25  1 13  0.0000000  0  8G12G10G25G29G05G04G30G02
 -20272794.125 8 -15774992.825 7  20832857.883
 -14077638.39647 -10921802.90645  22020288.7424                   22020289.7664
 -14221721.173 8 -11067594.291 7  21923536.719
  -4887949.934 6  -3795993.745 6  23860691.273
 -23042675.814 8 -17930884.231 8  20372056.445
  -4468761.05147  -3423739.23743  23868625.3204                   23868627.1764
 -12181353.90147  -9446861.94445  21973103.2814                   21973104.9734
 -19648997.95748 -15262663.11646  21001136.8444                   21001135.2704
 11  8 25  1 13 30.0000000  0  8G12G10G25G29G05G04G30G02
 -20251180.161 8 -15758150.796 7  20836970.961
 -13998493.97347 -10860131.91645  22035349.5004                   22035350.3244
 -14266096.582 8 -11102172.505 7  21915092.156
  -4971234.307 6  -3860890.641 6  23844842.938
 -23067274.655 8 -17950052.138 8  20367375.867
  -4386989.13546  -3360020.89643  23884184.7424                   23884188.8634
 -12219863.85247  -9476869.67145  21965775.4454                   21965777.3754
 -19620356.83348 -15240345.36146  21006587.1484                   21006585.6484
 11  8 25  1 14  0.0000000  0  8G12G10G25G29G05G04G30G02
 -20228993.597 8 -15740862.576 7  20841192.734
 -13918938.66347 -10798140.77645  22050488.4224                   22050489.3134
 -14309937.656 8 -11136334.370 7  21906749.492
  -5054549.594 6  -3925811.607 6  23828988.414
 -23091299.622 8 -17968772.861 8  20362803.961
  -4305255.08346  -3296332.05843  23899739.1024                   23899742.6454
 -12257791.96747  -9506424.02445  21958557.7734                   21958558.4024
 -19591571.80048 -15217915.45146  21012064.9454                   21012062.7664
 11  8 25  1 14 30.0000000  0  8G12G10G25G29G05G04G30G02
 -20206236.315 8 -15723129.637 7  20845523.313
 -13838975.83147 -10735832.08145  22065704.4614                   22065705.6254
 -14353243.972 8 -11170079.548 7  21898508.438
  -5137896.332 7  -3990757.123 6  23813128.367
 -23114751.799 8 -17987047.280 8  20358341.063
  -4223560.45646  -3232673.91843  23915284.9384                   23915288.0984
 -12295138.13647  -9535524.92245  21951451.2034                   21951452.6844
 -19562644.71148 -15195374.85646  21017569.3674                   21017567.3404
 11  8 25  1 15  0.0000000  0  8G12G10G25G29G05G04G30G02
 -20182909.630 8 -15704953.017 7  20849962.461
 -13758608.53847 -10673208.24545  22080998.4384                   22080998.6764
 -14396014.188 8 -11203406.987 7  21890369.953
  -5221273.669 6  -4055726.437 6  23797261.711
 -23137630.646 8 -18004874.917 8  20353987.094
  -4141905.88746  -3169047.04043  23930824.0234                   23930826.8594
 -12331901.14347  -9564171.38845  21944455.7814                   21944456.9774
 -19533576.26048 -15172724.11746  21023100.7504                   21023099.2304
 11  8 25  1 15 30.0000000  0  8G12G10G25G29G05G04G30G02
 -20159013.684 8 -15686332.817 7  20854509.352
 -13677839.18747 -10610271.08545  22096367.8524                   22096369.3324
 -14438246.469 8 -11236315.246 7  21882333.313
  -5304680.077 7  -4120718.419 6  23781390.227
 -23159935.336 8 -18022255.182 8  20349742.828
  -4060291.55946  -3105451.47443  23946354.5864                   23946357.3834
 -12368079.67247  -9592362.42645  21937570.7504                   21937572.1954
 -19504366.78448 -15149963.48046  21028659.2584                   21028657.6994
 11  8 25  1 16  0.0000000  0  8G12G10G25G29G05G04G30G02
 -20134549.680 8 -15667269.963 7  20859164.914
 -13596670.41247 -10547022.71745  22111813.5164                   22111815.1564
 -14479939.117 8 -11268803.009 7  21874398.758
  -5388114.227 7  -4185731.979 6  23765513.711
 -23181665.561 8 -18039187.808 8  20345607.656
  -3978717.95946  -3041887.63443  23961877.0084                   23961880.6414
 -12403672.25747  -9620096.88645  21930797.5394                   21930799.2774
 -19475017.11548 -15127093.62346  21034244.6174                   21034243.0634
 11  8 25  1 16 30.0000000  0  8G12G10G25G29G05G04G30G02
 -20109517.905 8 -15647764.698 7  20863928.313
 -13515104.69747 -10483465.04145  22127335.8834                   22127336.5164
 -14521090.205 8 -11300868.789 7  21866568.172
  -5471574.441 6  -4250765.872 6  23749631.594
 -23202820.312 8 -18055672.002 8  20341581.961
  -3897185.03846  -2978355.56843  23977393.0394                   23977395.4654
 -12438677.50447  -9647373.68345  21924136.6484                   21924138.2194
 -19445527.39648 -15104114.62646  21039856.1094                   21039854.6254
 11  8 25  1 17  0.0000000  0  8G12G10G25G29G05G04G30G02
 -20083920.232 8 -15627818.479 7  20868799.188
 -13433145.47347 -10419600.72145  22142931.7974                   22142932.7074
 -14561699.347 8 -11332512.264 7  21858840.609
  -5555060.696 7  -4315820.022 6  23733744.516
 -23223400.169 8 -18071708.239 8  20337666.031
  -3815694.36446  -2914856.29743  23992899.6954                   23992902.1884
 -12473095.16047  -9674192.61245  21917586.8134                   21917588.4304
 -19415899.46248 -15081027.93146  21045494.0314                   21045492.4414
 11  8 25  1 17 30.0000000  0  8G12G10G25G29G05G04G30G02
 -20057757.052 8 -15607431.594 7  20873778.391
 -13350794.91047 -10355431.48545  22158602.6954                   22158604.2194
 -14601764.401 8 -11363731.797 7  21851216.336
  -5638571.301 7  -4380893.134 6  23717852.430
 -23243404.296 8 -18087295.859 8  20333859.320
  -3734245.67646  -2851389.80743  24008398.6644                   24008401.7234
 -12506923.58947  -9700552.41345  21911149.2734                   21911150.9104
 -19386133.31048 -15057833.53646  21051158.3444                   21051156.9304
 11  8 25  1 18  0.0000000  0  8G12G10G25G29G05G04G30G02
 -20031029.769 8 -15586605.150 7  20878863.953
 -13268056.28847 -10290959.85045  22174347.1954                   22174348.2774
 -14641284.471 8 -11394526.644 7  21843696.305
  -5722105.583 7  -4445984.685 6  23701956.453
 -23262832.974 8 -18102435.068 8  20330162.117
  -3652840.06946  -2787956.85743  24023890.0864                   24023893.2854
 -12540162.06247  -9726452.51545  21904823.9304                   21904825.7114
 -19356230.17648 -15034532.39946  21056848.8674                   21056847.0354
 11  8 25  1 18 30.0000000  0  8G12G10G25G29G05G04G30G02
 -20003738.226 7 -15565339.026 7  20884057.602
 -13184931.31647 -10226187.15245  22190165.5704                   22190165.9184
 -14680256.925 8 -11424894.791 7  21836280.078
  -5805661.102 7  -4511092.804 6  23686056.625
 -23281684.470 8 -18117124.524 8  20326574.805
  -3571476.68746  -2724556.84043  24039372.7974                   24039376.2544
 -12572808.41047  -9751891.21245  21898612.0234                   21898612.7934
 -19326189.50447 -15011124.07846  21062565.7034                   21062563.5394
 11  8 25  1 19  0.0000000  0  8G12G10G25G29G05G04G30G02
 -19975885.516 8 -15543635.633 7  20889357.555
 -13101424.57147 -10161117.00245  22206056.7814                   22206057.2974
 -14718682.634 8 -11454836.899 7  21828967.820
  -5889238.771 7  -4576218.196 6  23670152.188
 -23299961.026 8 -18131365.974 8  20323096.883
  -3490158.14746  -2661191.79543  24054847.4774                   24054849.9224
 -12604863.96947  -9776869.56045  21892512.3134                   21892512.9414
 -19296014.01648 -14987610.71546  21068307.6484                   21068305.6604
 11  8 25  1 19 30.0000000  0  8G12G10G25G29G05G04G30G02
 -19947472.960 7 -15521495.999 7  20894764.828
 -13017539.03047 -10095751.66545  22222019.1254                   22222020.5744
 -14756560.234 8 -11484351.897 7  21821759.977
  -5972837.499 7  -4641360.029 6  23654244.102
 -23317662.139 8 -18145159.025 8  20319728.414
  -3408884.86346  -2597861.98343  24070312.4454                   24070315.7074
 -12636327.52947  -9801386.61545  21886524.8134                   21886525.5234
 -19265704.56447 -14963992.96946  21074075.0474                   21074073.5784
 11  8 25  1 20  0.0000000  0  8G12G10G25G29G05G04G30G02
 -19918500.047 8 -15498919.720 7  20900277.789
 -12933276.06747 -10030092.21644  22238053.6884                   22238054.9694
 -14793886.907 8 -11513437.616 7  21814656.867
  -6056454.692 7  -4706516.232 6  23638331.836
 -23334786.168 8 -18158502.405 8  20316469.742
  -3327655.82546  -2534566.66843  24085770.7584                   24085773.6294
 -12667196.74247  -9825440.54545  21880650.2504                   21880651.1954
 -19235260.25548 -14940270.14746  21079868.4384                   21079866.7304
 11  8 25  1 20 30.0000000  0  8G12G10G25G29G05G04G30G02
 -19888968.742 8 -15475908.324 7  20905897.727
 -12848639.61247  -9964141.76245  22254159.6564                   22254161.2344
 -14830662.174 8 -11542093.649 7  21807658.625
  -6140089.866 7  -4771686.435 6  23622416.500
 -23351333.744 8 -18171396.593 8  20313320.828
  -3246472.49246  -2471306.97343  24101219.1024                   24101222.4884
 -12697471.53147  -9849031.27645  21874888.8594                   21874890.0824
 -19204682.73748 -14916443.52046  21085687.2734                   21085685.8284
 11  8 25  1 21  0.0000000  0  8G12G10G25G29G05G04G30G02
 -19858878.937 8 -15452461.731 7  20911623.336
 -12763630.76947  -9897901.13044  22270336.3204                   22270337.9734
 -14866883.497 8 -11570318.054 7  21800766.047
  -6223740.613 7  -4836868.776 6  23606498.719
 -23367303.306 8 -18183840.385 8  20310281.898
  -3165333.91646  -2408082.16943  24116659.3914                   24116662.4774
 -12727149.72547  -9872157.12745  21869241.8594                   21869242.4064
 -19173971.26048 -14892512.51746  21091531.4534                   21091530.2154
 11  8 25  1 21 30.0000000  0  8G12G10G25G29G05G04G30G02
 -19828231.761 8 -15428580.846 7  20917455.039
 -12678252.69047  -9831372.78044  22286582.9304                   22286585.1564
 -14902549.748 8 -11598109.932 7  21793978.945
  -6307405.845 7  -4902062.387 6  23590578.094
 -23382695.182 8 -18195834.023 8  20307352.875
  -3084240.45046  -2344892.54243  24132090.8754                   24132093.6454
 -12756230.55947  -9894817.51145  21863707.4614                   21863708.8714
 -19143126.68848 -14868477.77346  21097400.5944                   21097399.2304
 11  8 25  1 22  0.0000000  0  8G12G10G25G29G05G04G30G02
 -19797032.063 8 -15404269.396 7  20923392.727
 -12592511.93047  -9764561.82544  22302898.6644                   22302900.7154
 -14937663.268 8 -11625471.097 7  21787297.008
  -6391087.787 7  -4967269.065 6  23574653.359
 -23397512.622 8 -18207380.064 8  20304533.320
  -3003196.33546  -2281741.32943  24147513.6334                   24147516.0004
 -12784716.77047  -9917014.54245  21858287.0634                   21858287.8634
 -19112153.31848 -14844342.69446  21103294.8364                   21103293.1604
 11  8 25  1 22 30.0000000  0  8G12G10G25G29G05G04G30G02
 -19765278.503 8 -15379526.377 7  20929435.133
 -12506408.55147  -9697468.29344  22319283.5394                   22319285.3054
 -14972220.423 8 -11652398.752 7  21780720.906
  -6474783.217 7  -5032486.209 6  23558726.273
 -23411753.181 8 -18218476.577 8  20301823.055
  -2922199.23746  -2218626.79543  24162925.7194                   24162929.0904
 -12812605.09847  -9938745.69745  21852979.6254                   21852981.0944
 -19081049.34448 -14820105.84046  21109213.5554                   21109212.2734
 11  8 25  1 23  0.0000000  0  8G12G10G25G29G05G04G30G02
 -19732971.507 8 -15354352.108 7  20935582.336
 -12419943.99747  -9630093.34944  22335737.3914                   22335739.0634
 -15006218.754 8 -11678890.952 7  21774251.383
  -6558489.325 6  -5097711.694 6  23542797.102
 -23425415.520 8 -18229122.524 8  20299223.227
  -2841248.42546  -2155548.29643  24178331.3524                   24178333.8244
 -12839893.46147  -9960009.35145  21847787.2344                   21847788.4384
 -19049814.34448 -14795766.88546  21115157.7424                   21115156.2424
 11  8 25  1 23 30.0000000  0  8G12G10G25G29G05G04G30G02
 -19700113.345 7 -15328748.360 7  20941835.391
 -12333122.74547  -9562440.43644  22352259.2664                   22352260.7384
 -15039658.466 8 -11704947.855 7  21767887.852
  -6642206.030 6  -5162945.439 6  23526866.258
 -23438500.912 8 -18239318.920 8  20296733.117
  -2760345.62246  -2092507.17643  24193726.7034                   24193729.5514
 -12866582.47147  -9980805.97145  21842708.4304                   21842709.5124
 -19018449.36347 -14771326.64246  21121126.0164                   21121124.6174
 11  8 25  1 24  0.0000000  0  8G12G10G25G29G05G04G30G02
 -19666705.278 8 -15302716.118 7  20948192.969
 -12245947.51947  -9494511.70344  22368847.9454                   22368849.2274
 -15072538.374 8 -11730568.579 7  21761631.336
  -6725931.930 6  -5228186.376 6  23510934.227
 -23451009.450 8 -18249065.807 8  20294352.914
  -2679491.04646  -2029503.65243  24209112.5474                   24209115.9304
 -12892671.33547 -10001134.96145  21837743.7584                   21837745.0474
 -18986955.72747 -14746786.14646  21127119.4614                   21127117.9344
 11  8 25  1 24 30.0000000  0  8G12G10G25G29G05G04G30G02
 -19632747.348 7 -15276255.403 7  20954654.641
 -12158420.11347  -9426308.57044  22385504.1954                   22385505.7074
 -15104856.546 8 -11755751.552 7  21755481.320
  -6809665.373 6  -5293433.218 6  23495000.156
 -23462940.467 8 -18258362.683 8  20292082.570
  -2598684.34946  -1966537.47843  24224489.0474                   24224492.5864
 -12918158.50447 -10020995.09345  21832894.1954                   21832895.0594
 -18955333.29447 -14722145.28546  21133136.9844                   21133135.4024
 11  8 25  1 25  0.0000000  0  8G12G10G25G29G05G04G30G02
 -19598244.912 8 -15249370.407 7  20961220.336
 -12070546.54847  -9357835.68044  22402226.6094                   22402227.3164
 -15136614.880 8 -11780498.307 7  21749437.625
  -6893407.905 6  -5358687.172 6  23479065.117
 -23474296.640 8 -18267211.623 8  20289921.609
  -2517928.97446  -1903611.23443  24239856.7034                   24239859.9734
 -12943046.35747 -10040388.22745  21828158.3754                   21828158.8794
 -18923585.45147 -14697406.70046  21139178.3594                   21139176.9184
 11  8 25  1 25 30.0000000  0  8G12G10G25G29G05G04G30G02
 -19563196.527 8 -15222060.001 7  20967890.031
 -11982327.43447  -9289093.52044  22419013.4694                   22419014.9804
 -15167810.180 8 -11804806.325 7  21743501.109
  -6977156.071 7  -5423945.468 6  23463127.531
 -23485075.937 8 -18275611.059 8  20287870.070
  -2437222.83646  -1840723.33843  24255214.5394                   24255217.9344
 -12967332.02147 -10059312.11545  21823536.4924                   21823537.7194
 -18891710.85747 -14672569.36246  21145243.7344                   21145241.9924
 11  8 25  1 26  0.0000000  0  8G12G10G25G29G05G04G30G02
 -19527602.399 8 -15194324.332 7  20974663.328
 -11893764.70747  -9220083.61344  22435866.8834                   22435867.4844
 -15198440.359 8 -11828674.004 7  21737672.344
  -7060907.289 7  -5489206.160 6  23447190.805
 -23495277.786 8 -18283560.529 8  20285929.031
  -2356565.56546  -1777873.54243  24270562.9384                   24270566.7664
 -12991013.83648 -10077765.47945  21819029.9614                   21819031.5514
 -18859709.11448 -14647632.93846  21151333.3594                   21151331.7704
 11  8 25  1 26 30.0000000  0  8G12G10G25G29G05G04G30G02
 -19491467.321 8 -15166167.147 7  20981539.742
 -11804863.93647  -9150810.29144  22452783.3444                   22452784.9804
 -15228507.329 8 -11852102.806 7  21731951.148
  -7144663.346 7  -5554470.635 6  23431252.383
 -23504905.166 8 -18291062.362 8  20284097.039
  -2275960.30846  -1715064.23943  24285902.4844                   24285904.5984
 -13014094.20647 -10095750.19245  21814638.2114                   21814639.3404
 -18827583.53347 -14622600.01246  21157446.8524                   21157445.3284
 11  8 25  1 27  0.0000000  0  9G12G10G25G29G26G05G04G30G02
 -19454788.937 8 -15137586.607 7  20988519.352
 -11715624.43147  -9081273.01044  22469765.1884                   22469766.7734
 -15258006.491 8 -11875089.159 7  21726337.492
  -7228419.451 7  -5619735.096 6  23415313.906
   -327866.06356   -215288.37952  24819180.0084                   24819186.4614
 -23513954.192 8 -18298113.542 8  20282374.961
  -2195403.74746  -1652292.87543  24301231.5634                   24301234.1134
 -13036568.90647 -10113262.96045  21810361.0704                   21810362.3404
 -18795331.15647 -14597468.28746  21163583.9144                   21163582.4614
 11  8 25  1 27 30.0000000  0  9G12G10G25G29G26G05G04G30G02
 -19417576.943 8 -15108590.264 7  20995600.648
 -11626057.35647  -9011480.49244  22486809.5394                   22486810.6804
 -15286945.157 8 -11897638.764 7  21720830.586
  -7312182.171 7  -5685004.725 6  23399374.352
   -422117.46346   -288730.74642  24801244.9144                   24801251.9104
 -23522433.681 8 -18304720.912 8  20280761.484
  -2114904.43046  -1589566.09243  24316550.3754                   24316552.9804
 -13058445.70747 -10130309.83145  21806198.1884                   21806199.5084
 -18762960.78148 -14572244.62546  21169744.0864                   21169742.2544
 11  8 25  1 28  0.0000000  0  9G12G10G25G29G26G05G04G30G02
 -19379821.156 8 -15079170.198 7  21002785.250
 -11536153.87647  -8941425.84444  22503917.5704                   22503918.5314
 -15315310.684 8 -11919741.780 7  21715433.055
  -7395938.851 7  -5750269.603 6  23383436.125
   -516486.65846   -362264.94743  24783287.0394                   24783293.4024
 -23530331.895 8 -18310875.339 8  20279258.203
  -2034451.10346  -1526875.18643  24331859.9534                   24331861.3324
 -13079712.33047 -10146881.22045  21802151.0474                   21802152.9734
 -18730461.40347 -14546920.43346  21175928.7424                   21175927.1254
 11  8 25  1 28 30.0000000  0  9G12G10G25G29G26G05G04G30G02
 -19341528.211 8 -15049331.571 7  21010072.344
 -11445922.10647  -8871115.38044  22521087.8364                   22521089.2194
 -15343107.380 8 -11941401.545 7  21710143.438
  -7479693.172 7  -5815532.651 6  23367497.992
   -610975.53846   -435892.41143  24765306.3444                   24765312.0004
 -23537654.577 8 -18316581.319 8  20277864.359
  -1954049.23246  -1464224.38843  24347158.7114                   24347162.4104
 -13100373.57147 -10162980.88245  21798219.5554                   21798220.7624
 -18697838.73648 -14521500.16246  21182136.5084                   21182135.0084
 11  8 25  1 29  0.0000000  0  9G12G10G25G29G26G05G04G30G02
 -19302699.663 8 -15019075.579 7  21017461.086
 -11355364.87547  -8800551.33444  22538320.6954                   22538322.0204
 -15370334.422 7 -11962617.432 7  21704962.094
  -7563444.063 6  -5880793.026 6  23351560.352
   -705581.53746   -509611.13143  24747302.6414                   24747308.8634
 -23544402.021 8 -18321839.045 8  20276580.641
  -1873699.19946  -1401613.98343  24362449.9924                   24362452.7624
 -13120428.96448 -10178608.47745  21794403.1094                   21794404.8164
 -18665093.46748 -14495984.36046  21188367.7274                   21188365.9264
 11  8 25  1 29 30.0000000  0  9G12G10G25G29G26G05G04G30G02
 -19263337.679 8 -14988403.923 7  21024951.391
 -11264485.39146  -8729736.17244  22555614.1024                   22555615.5314
 -15396991.341 8 -11983389.040 7  21699889.789
  -7647190.338 6  -5946049.784 6  23335624.781
   -800302.06546   -583419.11843  24729278.3834                   24729283.2624
 -23550574.645 8 -18326648.865 8  20275405.938
  -1793401.82646  -1339044.62043  24377730.3914                   24377733.1254
 -13139878.54547 -10193763.99745  21790702.2274                   21790703.1914
 -18632226.47948 -14470373.72346  21194622.2504                   21194620.8484
 11  8 25  1 30  0.0000000  0  9G12G10G25G29G26G05G04G30G02
 -19223443.413 8 -14957317.497 7  21032543.117
 -11173286.41046  -8658672.06644  22572969.1334                   22572969.9804
 -15423076.982 8 -12003715.521 7  21694925.773
  -7730930.115 6  -6011301.449 6  23319688.914
   -895133.95646   -657313.85643  24711232.3134                   24711237.5004
 -23556172.678 8 -18331010.947 8  20274340.633
  -1713156.85046  -1276516.09843  24392999.1804                   24393003.5904
 -13158721.56448 -10208446.87745  21787116.2894                   21787117.5204
 -18599238.19148 -14444668.57746  21200899.7974                   21200898.0554
 11  8 25  1 30 30.0000000  0  9G12G10G25G29G26G05G04G30G02
 -19183019.313 8 -14925818.227 7  21040235.391
 -11081771.74146  -8587361.93144  22590383.6024                   22590384.8054
 -15448591.512 8 -12023596.982 7  21690070.563
  -7814663.384 7  -6076548.076 6  23303755.719
   -990074.94846   -731293.62743  24693165.4614                   24693171.2624
 -23561197.608 8 -18334926.457 8  20273384.695
  -1632965.48946  -1214029.31443  24408259.9534                   24408263.5824
 -13176958.72847 -10222657.65545  21783645.5474                   21783647.8874
 -18566130.16848 -14418870.12046  21207199.8134                   21207198.1334
 11  8 25  1 31  0.0000000  0  9G12G10G25G29G26G05G04G30G02
 -19142065.205 8 -14893905.964 7  21048028.430
 -10989942.40946  -8515806.64144  22607857.7344                   22607859.3554
 -15473532.456 8 -12043031.481 7  21685324.813
  -7898386.921 7  -6141787.114 6  23287823.008
  -1085120.53846   -805354.87543  24675078.5704                   24675084.3014
 -23565647.813 8 -18338394.126 8  20272537.531
  -1552826.48146  -1151583.38043  24423509.5084                   24423512.7154
 -13194587.83247 -10236394.63345  21780291.1804                   21780292.6254
 -18532901.06148 -14392977.31546  21213523.4614                   21213521.8134
 11  8 25  1 31 30.0000000  0  9G12G10G25G29G26G05G04G30G02
 -19100585.735 8 -14861584.317 7  21055922.039
 -10897803.91847  -8444010.40644  22625391.9224                   22625392.9304
 -15497901.470 8 -12062020.325 7  21680687.297
  -7982101.853 6  -6207019.406 6  23271892.016
  -1180270.16446   -879497.26943  24656971.5004                   24656977.4804
 -23569526.054 8 -18341416.121 8  20271799.609
  -1472742.73546  -1089180.46343  24438749.1724                   24438752.2854
 -13211611.11548 -10249659.53045  21777051.3914                   21777053.5314
 -18499553.97448 -14366992.58046  21219869.0084                   21219867.5354
 11  8 25  1 32  0.0000000  0  9G12G10G25G29G26G05G04G30G02
 -19058579.312 8 -14828852.064 7  21063915.617
 -10805356.00447  -8371973.08044  22642983.7814                   22642984.7304
 -15521694.886 8 -12080560.632 7  21676159.539
  -8065803.710 6  -6272241.538 6  23255964.242
  -1275517.89746   -953716.01243  24638846.9144                   24638852.6884
 -23572829.855 8 -18343990.485 8  20271171.273
  -1392711.47146  -1026818.41743  24453978.8444                   24453981.3524
 -13228025.32248 -10262449.82745  21773928.3754                   21773929.9064
 -18466086.82448 -14340914.28846  21226238.0084                   21226235.9024
 11  8 25  1 32 30.0000000  0  9G12G10G25G29G26G05G04G30G02
 -19016049.205 8 -14795711.740 7  21072008.875
 -10712603.11547  -8299698.14644  22660634.2894                   22660635.4344
 -15544913.759 8 -12098653.253 7  21671741.086
  -8149492.978 7  -6337453.875 6  23240038.492
  -1370862.78846  -1028010.55243  24620702.5004                   24620708.2424
 -23575561.664 8 -18346119.147 8  20270651.195
  -1312734.51246   -964498.74443  24469197.2734                   24469200.7464
 -13243831.92548 -10274766.65445  21770920.5234                   21770921.7234
 -18432501.12248 -14314743.60846  21232628.6094                   21232626.7624
 11  8 25  1 33  0.0000000  0  9G12G10G25G29G26G05G04G30G02
 -18972996.599 8 -14762164.281 7  21080201.484
 -10619547.79547  -8227187.51244  22678342.2814                   22678343.5664
 -15567556.824 8 -12116297.170 7  21667432.000
  -8233167.582 7  -6402654.786 6  23224115.922
  -1466300.65946  -1102377.53043  24602541.9614                   24602546.5944
 -23577721.006 8 -18347801.744 8  20270240.445
  -1232811.33146   -902220.98643  24484406.8834                   24484409.3134
 -13259030.15748 -10286609.44345  21768028.1884                   21768029.1564
 -18398797.02548 -14288480.68246  21239042.3674                   21239040.7384
 11  8 25  1 33 30.0000000  0  9G12G10G25G29G26G05G04G30G02
 -18929425.325 8 -14728212.653 7  21088492.898
 -10526194.81647  -8154444.93744  22696106.4694                   22696108.1604
 -15589625.176 8 -12133493.283 7  21663232.555
  -8316827.734 6  -6467844.434 6  23208196.148
  -1561830.72546  -1176816.32643  24584362.6724                   24584367.8244
 -23579310.208 8 -18349040.059 8  20269937.703
  -1152944.37146   -839986.98843  24499605.2814                   24499608.0434
 -13273621.57448 -10297979.37745  21765251.3834                   21765252.8094
 -18364977.03548 -14262127.44246  21245478.1094                   21245476.8204
 11  8 25  1 34  0.0000000  0  9G12G10G25G29G26G05G04G30G02
 -18885335.054 8 -14693856.630 7  21096882.938
 -10432544.98047  -8081471.06244  22713927.2424                   22713928.8324
 -15611116.173 8 -12150239.504 7  21659142.820
  -8400469.774 7  -6533019.994 6  23192279.438
  -1657447.80246  -1251322.93543  24566167.8134                   24566172.5204
 -23580328.007 8 -18349833.133 8  20269743.969
  -1073131.61846   -777795.26243  24514793.4774                   24514796.3754
 -13287604.00247 -10308874.77345  21762590.8594                   21762591.5784
 -18331039.51648 -14235682.64146  21251935.8674                   21251934.7584
 11  8 25  1 34 30.0000000  0  9G12G10G25G29G26G05G04G30G02
 -18840728.291 8 -14659098.123 7  21105371.563
 -10338602.43747  -8008269.08744  22731804.5164                   22731805.6484
 -15632030.454 8 -12166536.337 7  21655163.852
  -8484093.619 7  -6598181.373 6  23176366.656
  -1753150.09546  -1325895.94243  24547955.6884                   24547960.5704
 -23580776.152 8 -18350182.329 8  20269659.086
   -993374.66246   -715647.02843  24529969.8284                   24529972.7664
 -13300978.55048 -10319296.49745  21760045.7344                   21760046.8834
 -18296986.48648 -14209147.82646  21258416.1024                   21258414.8164
 11  8 25  1 35  0.0000000  0  9G12G10G25G29G26G05G04G30G02
 -18795606.866 8 -14623938.594 7  21113957.664
 -10244369.46647  -7934840.79744  22749735.4924                   22749737.2194
 -15652367.136 8 -12182383.089 7  21651293.148
  -8567697.614 7  -6663327.308 6  23160457.320
  -1848934.26146  -1400532.72642  24529727.7584                   24529733.3794
 -23580654.671 8 -18350087.652 8  20269682.000
   -913673.38746   -653542.12443  24545136.6254                   24545139.6094
 -13313744.72647 -10329244.16345  21757616.1414                   21757617.3834
 -18262817.99448 -14182523.02646  21264918.4694                   21264916.7464
 11  8 25  1 35 30.0000000  0  9G12G10G25G29G26G05G04G30G02
 -18749971.702 8 -14588378.748 7  21122641.750
 -10149848.23347  -7861187.92444  22767723.1954                   22767724.7034
 -15672124.618 8 -12197778.503 7  21647533.414
  -8651279.527 7  -6728456.019 6  23144551.797
  -1944796.05746  -1475230.04642  24511486.0394                   24511491.3794
 -23579963.180 8 -18349548.816 8  20269813.828
   -834026.81746   -591479.84943  24560294.0784                   24560295.4264
 -13325901.41248 -10338716.89945  21755303.0394                   21755303.4304
 -18228533.24448 -14155807.63846  21271442.6644                   21271440.5044
 11  8 25  1 36  0.0000000  0  9G12G10G25G29G26G05G04G30G02
 -18703825.593 8 -14552420.764 7  21131423.234
 -10055042.70147  -7787313.51144  22785763.5944                   22785765.4804
 -15691303.688 8 -12212723.227 7  21643883.984
  -8734838.673 7  -6793567.000 6  23128651.086
  -2040733.82846  -1549986.54642  24493229.2274                   24493234.6214
 -23578703.833 7 -18348567.491 8  20270053.109
   -754436.61846   -529461.54143  24575438.1414                   24575441.0744
 -13337449.97048 -10347715.77345  21753105.2734                   21753106.5354
 -18194134.37947 -14129003.33146  21277988.1174                   21277986.8554
 11  8 25  1 36 30.0000000  0  9G12G10G25G29G26G05G04G30G02
 -18657170.374 8 -14516066.067 7  21140301.313
  -9959955.29047  -7713219.41644  22803858.5474                   22803859.7464
 -15709903.689 8 -12227216.717 7  21640344.203
  -8818373.790 7  -6858659.302 6  23112754.883
  -2136744.40546  -1624799.74643  24474959.1954                   24474964.0744
 -23576876.705 8 -18347143.738 8  20270400.688
   -674902.70646   -467487.06643  24590572.1884                   24590576.6604
 -13348390.17447 -10356240.60745  21751023.5234                   21751024.7114
 -18159621.47147 -14102110.16046  21284556.2814                   21284554.2854
 11  8 25  1 37  0.0000000  0  9G12G10G25G29G26G05G04G30G02
 -18610007.660 8 -14479315.926 7  21149276.555
  -9864588.63246  -7638907.75644  22822006.3444                   22822008.0634
 -15727923.722 8 -12241258.302 7  21636915.070
  -8901882.836 7  -6923731.241 6  23096863.633
  -2232824.06346  -1699666.91342  24456674.8984                   24456680.6994
 -23574482.336 8 -18345277.984 8  20270856.430
   -595424.97446   -405556.35843  24605697.3444                   24605700.5394
 -13358721.60047 -10364291.06545  21749057.7274                   21749058.9964
 -18124994.60048 -14075128.18146  21291145.5234                   21291144.0004
 11  8 25  1 37 30.0000000  0  9G12G10G25G29G26G05G04G30G02
 -18562338.994 8 -14442171.528 7  21158347.398
  -9768945.34347  -7564380.51344  22840206.7114                   22840208.4574
 -15745362.783 8 -12254847.158 7  21633596.531
  -8985363.750 7  -6988781.333 6  23080977.516
  -2328969.32946  -1774585.11043  24438379.8134                   24438384.5084
 -23571520.821 8 -18342970.300 8  20271420.039
   -516003.16746   -343669.25743  24620810.7114                   24620814.5004
 -13368443.71447 -10371866.74245  21747207.1484                   21747209.0824
 -18090253.73447 -14048057.37946  21297756.3914                   21297754.3914
 11  8 25  1 38  0.0000000  0  9G12G10G25G29G26G05G04G30G02
 -18514168.100 8 -14404635.798 7  21167513.680
  -9673030.30047  -7489641.53944  22858458.5944                   22858460.1954
 -15762222.614 8 -12267984.696 7  21630388.008
  -9068817.141 7  -7053809.958 6  23065097.766
  -2425178.92146  -1849553.46043  24420071.9144                   24420076.3714
 -23567994.763 8 -18340222.695 8  20272090.945
   -436639.17046   -281827.22643  24635914.0864                   24635917.0864
 -13377558.70948 -10378969.32545  21745473.1804                   21745473.8754
 -18055401.51547 -14020899.79746  21304388.6564                   21304386.9024
 11  8 25  1 38 30.0000000  0  9G12G10G25G29G26G05G04G30G02
 -18465494.979 8 -14366708.706 7  21176775.680
  -9576844.78646  -7414691.79244  22876762.2034                   22876763.4844
 -15778501.009 8 -12280669.159 7  21627290.336
  -9152239.482 7  -7118814.413 6  23049222.320
  -2521448.39846  -1924568.42443  24401752.4614                   24401756.0394
 -23563903.087 8 -18337034.359 8  20272869.570
   -357331.94746   -220029.33243  24651004.3284                   24651008.5434
 -13386064.91847 -10385597.53345  21743854.3674                   21743855.6414
 -18020436.69248 -13993654.47846  21311041.9924                   21311040.5084
 11  8 25  1 39  0.0000000  0  9G12G10G25G29G26G05G04G30G02
 -18416322.357 8 -14328392.399 7  21186133.180
  -9480391.77946  -7339533.62644  22895115.9144                   22895118.0084
 -15794198.036 8 -12292900.607 7  21624303.797
  -9235629.813 7  -7183793.911 6  23033353.734
  -2617774.87347  -1999627.80243  24383421.7584                   24383426.6414
 -23559247.640 8 -18333406.724 8  20273755.680
   -278081.68346   -158275.84343  24666085.8674                   24666089.3134
 -13393962.83847 -10391751.74945  21742351.3444                   21742352.5744
 -17985359.90948 -13966321.91246  21317716.8134                   21317715.2344
 11  8 25  1 39 30.0000000  0  9G12G10G25G29G26G05G04G30G02
 -18366652.548 8 -14289688.680 7  21195585.430
  -9383674.77647  -7264169.76644  22913520.9144                   22913522.8524
 -15809313.893 8 -12304679.204 7  21621427.266
  -9318987.260 6  -7248747.783 6  23017490.867
  -2714155.55046  -2074729.48443  24365080.6644                   24365085.2464
 -23554029.177 8 -18329340.373 8  20274748.313
   -198889.41546    -96567.57542  24681155.8204                   24681158.9574
 -13401253.27447 -10397432.59745  21740964.5164                   21740965.2304
 -17950172.67648 -13938903.28246  21324412.7114                   21324411.0944
 11  8 25  1 40  0.0000000  0  8G12G10G25G29G26G05G30G02
 -18316485.601 8 -14250597.570 7  21205131.352
  -9286694.86147  -7188601.01144  22931975.4304                   22931977.0554
 -15823846.468 8 -12316003.295 7  21618661.805
  -9402308.034 7  -7313673.027 6  23001636.438
  -2810585.77446  -2149869.70943  24346730.9304                   24346735.3524
 -23548246.851 8 -18324834.656 8  20275848.617
 -13407934.54647 -10402638.78045  21739692.7274                   21739693.7344
 -17914873.03648 -13911397.05746  21331130.0234                   21331128.0004
 11  8 25  1 40 30.0000000  0  8G12G10G25G29G26G05G30G02
 -18265827.072 8 -14211123.433 7  21214771.789
  -9189457.62347  -7112831.76144  22950479.8754                   22950481.1804
 -15837798.194 8 -12326874.775 7  21616006.656
  -9485593.595 7  -7378570.892 6  22985787.273
  -2907064.86546  -2225048.03843  24328371.1804                   24328375.1954
 -23541904.345 8 -18319892.422 8  20277055.609
 -13414009.53948 -10407372.53145  21738536.4224                   21738537.5784
 -17879464.22248 -13883805.75746  21337867.9924                   21337866.4454
 11  8 25  1 41  0.0000000  0  8G12G10G25G29G26G05G30G02
 -18214677.496 8 -14171266.649 7  21224505.156
  -9091965.19947  -7036863.65844  22969031.2504                   22969033.1214
 -15851167.851 8 -12337292.707 7  21613462.367
  -9568841.473 7  -7443439.374 6  22969945.547
  -3003588.84446  -2300261.36243  24310003.8444                   24310007.5944
 -23535001.475 8 -18314513.543 8  20278369.609
 -13419477.54248 -10411633.30945  21737496.3204                   21737497.4494
 -17843945.74147 -13856129.00746  21344626.8984                   21344625.6414
 11  8 25  1 41 30.0000000  0  8G12G10G25G29G26G05G30G02
 -18163037.846 8 -14131027.984 7  21234331.992
  -8994219.16147  -6960697.91944  22987632.2194                   22987633.3794
 -15863954.050 8 -12347255.986 7  21611029.297
  -9652048.850 7  -7508276.271 6  22954111.680
  -3100153.37546  -2375506.27243  24291627.4844                   24291631.7464
 -23527537.691 8 -18308697.588 8  20279789.563
 -13424337.65948 -10415420.41945  21736571.3674                   21736572.1644
 -17808316.66648 -13828366.09146  21351406.5864                   21351405.3834
 11  8 25  1 42  0.0000000  0  8G12G10G25G29G26G05G30G02
 -18110909.944 8 -14090408.855 7  21244251.563
  -8896222.37147  -6884336.82844  23006280.9454                   23006281.9804
 -15876156.693 8 -12356764.567 7  21608707.086
  -9735214.124 7  -7573080.328 7  22938285.977
  -3196755.41446  -2450780.36743  24273244.4614                   24273248.6524
 -23519514.155 8 -18302445.472 8  20281316.148
 -13428590.34648 -10418734.19645  21735762.3204                   21735763.1724
 -17772577.52847 -13800517.40146  21358208.1644                   21358206.3444
 11  8 25  1 42 30.0000000  0  8G12G10G25G29G26G05G30G02
 -18058298.205 8 -14049412.717 7  21254263.414
  -8797979.63547  -6807784.05744  23024975.2664                   23024976.4264
 -15887777.530 8 -12365819.769 7  21606495.844
  -9818337.637 7  -7637851.884 7  22922467.961
  -3293393.42846  -2526082.53343  24254854.7814                   24254858.8954
 -23510933.711 8 -18295759.397 8  20282949.203
 -13432237.87148 -10421576.42545  21735068.1334                   21735069.3914
 -17736731.29047 -13772585.25946  21365029.5164                   21365027.3524
 11  8 25  1 43  0.0000000  0  8G12G10G25G29G26G05G30G02
 -18005202.045 8 -14008039.116 7  21264367.289
  -8699491.10046  -6731039.77644  23043716.7734                   23043718.3834
 -15898813.819 8 -12374419.499 7  21604395.789
  -9901415.242 6  -7702587.639 7  22906658.602
  -3390061.80546  -2601408.38843  24236459.3134                   24236464.1054
 -23501794.823 8 -18288638.172 8  20284688.367
 -13435277.94147 -10423945.32345  21734489.6174                   21734490.5234
 -17700775.31248 -13744567.60746  21371871.2504                   21371869.9494
 11  8 25  1 43 30.0000000  0  8G12G10G25G29G26G05G30G02
 -17951626.037 8 -13966291.595 7  21274562.500
  -8600761.82446  -6654107.86844  23062504.2814                   23062505.7584
 -15909267.705 8 -12382565.400 7  21602406.875
  -9984447.595 6  -7767288.116 7  22890858.641
  -3486759.57446  -2676757.09743  24218057.7894                   24218062.4144
 -23492100.881 8 -18281084.440 8  20286533.219
 -13437713.24148 -10425842.96545  21734025.6724                   21734026.9654
 -17664711.98648 -13716466.30146  21378733.6644                   21378732.4844
 11  8 25  1 44  0.0000000  0  8G12G10G25G29G26G05G30G02
 -17897566.494 8 -13924167.296 7  21284849.906
  -8501788.95747  -6576986.15144  23081338.5704                   23081339.5944
 -15919133.362 8 -12390252.941 7  21600529.266
 -10067427.374 7  -7831947.624 7  22875067.727
  -3583477.84946  -2752121.79643  24199652.9924                   24199656.7814
 -23481846.662 8 -18273094.124 8  20288484.070
 -13439538.36748 -10427265.15945  21733678.8134                   21733679.5664
 -17628536.26448 -13688277.42546  21385618.2584                   21385616.1724
 11  8 25  1 44 30.0000000  0  8G12G10G25G29G26G05G30G02
 -17843034.192 8 -13881674.620 7  21295226.773
  -8402584.25746  -6499683.83543  23100215.9534                   23100217.9534
 -15928419.421 8 -12397488.849 7  21598762.375
 -10150361.633 7  -7896571.634 6  22859285.555
  -3680222.13446  -2827506.74143  24181242.2974                   24181247.7424
 -23471042.342 8 -18264675.150 8  20290540.258
 -13440762.61248 -10428219.13845  21733445.8134                   21733446.7424
 -17592257.49648 -13660008.24846  21392521.7034                   21392519.8054
 11  8 25  1 45  0.0000000  0  8G12G10G25G29G26G05G30G02
 -17788027.605 8 -13838812.357 7  21305694.313
  -8303146.38546  -6422199.81143  23119138.5474                   23119140.6644
 -15937121.918 8 -12404270.025 7  21597106.305
 -10233244.776 7  -7961155.823 7  22843513.844
  -3776985.13046  -2902906.32943  24162829.4224                   24162834.2154
 -23459684.722 8 -18255825.040 8  20292701.625
 -13441382.40048 -10428702.10745  21733327.7344                   21733328.4694
 -17555871.89248 -13631655.82546  21399445.6254                   21399443.9804
 11  8 25  1 45 30.0000000  0  8G12G10G25G29G26G05G30G02
 -17732549.721 8 -13795582.857 7  21316251.039
  -8203479.34046  -6344537.17543  23138104.6254                   23138105.8754
 -15945241.730 8 -12410597.177 7  21595561.352
 -10316076.195 7  -8025699.695 6  22827751.383
  -3873764.49746  -2978318.65743  24144412.8834                   24144417.6294
 -23447775.883 8 -18246545.413 8  20294967.813
 -13441399.21148 -10428715.23445  21733325.2504                   21733325.4964
 -17519380.72148 -13603221.15346  21406389.7814                   21406388.1134
 11  8 25  1 46  0.0000000  0  8G12G10G25G29G26G05G30G02
 -17676603.463 8 -13751988.391 7  21326897.586
  -8103586.20346  -6266698.40844  23157113.6804                   23157115.6454
 -15952779.249 8 -12416470.582 7  21594126.789
 -10398854.268 7  -8090202.015 6  22811999.000
  -3970557.14846  -3053741.32243  24125994.3984                   24125998.5984
 -23435317.369 8 -18236837.467 8  20297338.680
 -13440813.83348 -10428259.10645  21733436.1484                   21733437.0274
 -17482784.60848 -13574704.70646  21413353.3594                   21413351.8874
 11  8 25  1 46 30.0000000  0  8G12G10G25G29G26G05G30G02
 -17620188.429 8 -13708028.658 7  21337633.016
  -8003467.44646  -6188683.84144  23176166.2194                   23176167.9344
 -15959732.024 8 -12421888.346 7  21592803.852
 -10481575.094 7  -8154659.726 6  22796257.492
  -4067357.65246  -3129170.16943  24107573.6484                   24107577.2704
 -23422307.802 8 -18226700.127 8  20299814.164
 -13439624.47848 -10427332.35745  21733662.5084                   21733663.2034
 -17446081.54048 -13546104.92046  21420337.6804                   21420335.9414
 11  8 25  1 47  0.0000000  0  8G12G10G25G29G26G05G30G02
 -17563308.230 7 -13663706.450 7  21348456.766
  -7903127.51346  -6110496.87844  23195259.7114                   23195261.3164
 -15966101.690 8 -12426851.721 7  21591591.500
 -10564238.396 7  -8219072.597 7  22780527.586
  -4164164.23446  -3204603.71243  24089151.4694                   24089155.5664
 -23408749.886 8 -18216135.507 8  20302394.180
 -13437833.18847 -10425936.57445  21734003.3524                   21734004.3794
 -17409273.09548 -13517423.02446  21427342.3134                   21427340.5514
 11  8 25  1 47 30.0000000  0  8G12G10G25G29G26G05G30G02
 -17505964.609 7 -13619023.120 7  21359368.945
  -7802568.45647  -6032139.20744  23214395.6724                   23214397.4964
 -15971887.614 8 -12431360.250 7  21590490.672
 -10646842.065 7  -8283439.064 6  22764808.859
  -4260972.83946  -3280038.83443  24070729.5164                   24070734.6884
 -23394643.847 8 -18205143.769 8  20305078.367
 -13435439.90947 -10424071.71245  21734459.1254                   21734460.2624
 -17372359.23448 -13488658.97046  21434366.9304                   21434364.9344
 11  8 25  1 48  0.0000000  0  8G12G10G25G29G26G05G30G02
 -17448161.206 7 -13573981.537 7  21370368.742
  -7701794.46147  -5953614.05944  23233572.4774                   23233573.8404
 -15977091.306 8 -12435415.066 7  21589500.273
 -10729385.391 7  -8347758.451 6  22749101.047
  -4357781.64746  -3355474.13543  24052307.0394                   24052309.5864
 -23379992.376 8 -18193727.035 8  20307866.273
 -13432446.68847 -10421739.35545  21735028.3984                   21735029.5554
 -17335341.50648 -13459813.98946  21441410.9224                   21441409.2464
 11  8 25  1 48 30.0000000  0  8G12G10G25G29G26G05G30G02
 -17389898.835 7 -13528582.303 7  21381455.633
  -7600806.79847  -5874922.39044  23252789.7274                   23252791.2194
 -15981711.360 8 -12439015.120 7  21588621.359
 -10811865.185 7  -8412028.369 6  22733405.273
  -4454585.74746  -3430905.77943  24033885.8594                   24033888.9614
 -23364794.915 8 -18181884.842 8  20310758.594
 -13428852.55148 -10418938.75045  21735712.2814                   21735713.3984
 -17298218.94248 -13430887.32446  21448475.4304                   21448474.0944
 11  8 25  1 49  0.0000000  0  8G12G10G25G29G26G05G30G02
 -17331180.129 7 -13482827.499 7  21392629.305
  -7499608.66247  -5796066.72344  23272046.5784                   23272048.9454
 -15985748.566 8 -12442160.995 7  21587853.289
 -10894280.601 7  -8476248.144 7  22717722.578
  -4551382.28846  -3506331.49943  24015466.5234                   24015469.4884
 -23349053.656 8 -18169618.914 8  20313753.805
 -13424658.87748 -10415670.98045  21736510.5314                   21736511.5164
 -17260992.37148 -13401879.61246  21455559.4924                   21455557.7384
 11  8 25  1 49 30.0000000  0  8G12G10G25G29G26G05G30G02
 -17272007.665 7 -13436719.101 7  21403889.703
  -7398203.14247  -5717049.49444  23291344.0864                   23291345.6684
 -15989203.173 8 -12444852.897 7  21587195.781
 -10976629.891 7  -8540416.385 6  22702051.836
  -4648168.12146  -3581748.87943  23997048.3984                   23997051.3834
 -23332769.693 8 -18156930.103 8  20316852.813
 -13419866.45747 -10411936.63745  21737422.0234                   21737423.2384
 -17223662.12847 -13372791.11546  21462663.2424                   21462661.6914
 11  8 25  1 50  0.0000000  0  8G12G10G25G29G26G05G30G02
 -17212384.122 7 -13390259.232 7  21415235.547
  -7296592.98547  -5637872.79143  23310680.0004                   23310681.4774
 -15992075.483 8 -12447091.060 7  21586648.586
 -11058911.209 7  -8604531.633 7  22686393.875
  -4744939.89147  -3657155.31643  23978633.3364                   23978637.0204
 -23315944.286 8 -18143819.381 8  20320054.391
 -13414475.99848 -10407736.32045  21738448.3754                   21738449.6804
 -17186228.62548 -13343622.16346  21469786.0944                   21469785.0824
 11  8 25  1 50 30.0000000  0  8G12G10G25G29G26G05G30G02
 -17152311.396 7 -13343449.328 7  21426666.938
  -7194780.48347  -5558538.43344  23330054.2424                   23330056.1914
 -15994365.180 8 -12448875.243 7  21586213.164
 -11141122.337 7  -8668592.214 6  22670749.508
  -4841693.79746  -3732547.79943  23960221.7584                   23960225.1214
 -23298578.311 8 -18130287.435 8  20323359.031
 -13408487.87747 -10403070.26145  21739587.4534                   21739588.7464
 -17148691.51248 -13314372.47346  21476929.3134                   21476927.7774
 11  8 25  1 51  0.0000000  0  8G12G10G25G29G26G05G30G02
 -17091793.240 8 -13296292.358 7  21438183.633
  -7092770.09847  -5479049.82444  23349466.2034                   23349467.4734
 -15996074.267 8 -12450207.003 7  21585888.148
 -11223263.195 7  -8732598.052 7  22655118.484
  -4938428.01446  -3807924.96943  23941812.4144                   23941816.7584
 -23280674.848 8 -18116336.673 8  20326765.852
 -13401904.51348 -10397940.39545  21740840.2734                   21740841.4494
 -17111052.52648 -13285043.40446  21484091.9774                   21484090.6374
 11  8 25  1 51 30.0000000  0  8G12G10G25G29G26G05G30G02
 -17030829.074 7 -13248787.837 7  21449784.547
  -6990561.52047  -5399406.84243  23368916.7274                   23368917.4614
 -15997200.067 8 -12451084.261 7  21585673.820
 -11305329.106 7  -8796545.470 6  22639502.125
  -5035136.51846  -3883282.12043  23923409.8284                   23923414.4064
 -23262231.544 8 -18101965.257 8  20330275.516
 -13394723.80848 -10392345.04945  21742207.2114                   21742208.1604
 -17073309.27248 -13255633.08346  21491273.9694                   21491272.5004
 11  8 25  1 52  0.0000000  0  8G12G10G25G29G26G05G30G02
 -16969424.327 7 -13200940.006 7  21461469.328
  -6888160.48147  -5319613.84643  23388402.5314                   23388403.0664
 -15997745.518 8 -12451509.278 7  21585569.820
 -11387320.844 7  -8860435.102 6  22623899.547
  -5131818.24346  -3958618.35843  23905012.0474                   23905015.8674
 -23243253.206 8 -18087176.925 8  20333886.961
 -13386949.19648 -10386286.91545  21743686.5004                   21743687.4884
 -17035464.55548 -13226143.70046  21498475.6804                   21498474.1804
 11  8 25  1 52 30.0000000  0  8G12G10G25G29G26G05G30G02
 -16907580.671 7 -13152750.160 7  21473237.930
  -6785569.12447  -5239672.55943  23407924.7664                   23407926.4384
 -15997710.395 8 -12451481.920 7  21585576.805
 -11469236.080 7  -8924265.108 6  22608311.516
  -5228469.40846  -4033930.79243  23886619.1094                   23886623.6414
 -23223740.436 8 -18071972.161 8  20337599.969
 -13378580.97448 -10379766.23745  21745278.7894                   21745280.1564
 -16997518.30548 -13196575.19946  21505696.6254                   21505695.3914
 11  8 25  1 53  0.0000000  0  8G12G10G25G29G26G05G30G02
 -16845299.308 7 -13104219.244 7  21485089.500
  -6682788.90947  -5159584.12143  23427483.0394                   23427484.3014
 -15997093.925 8 -12451001.550 7  21585694.023
 -11551071.736 7  -8988033.134 7  22592738.430
  -5325085.37846  -4109215.79943  23868234.2194                   23868238.5164
 -23203693.258 8 -18056350.966 8  20341415.281
 -13369618.95048 -10372782.85245  21746984.5864                   21746985.3524
 -16959469.45348 -13166926.75846  21512937.4384                   21512935.8834
 11  8 25  1 53 30.0000000  0  8G12G10G25G29G26G05G30G02
 -16782583.785 8 -13055350.038 7  21497023.984
  -6579823.65547  -5079351.43743  23447076.4924                   23447077.8324
 -15995897.370 8 -12450069.171 7  21585921.875
 -11632826.994 7  -9051738.501 7  22577181.391
  -5421663.68146  -4184471.42043  23849855.5704                   23849859.7344
 -23183114.104 8 -18040315.247 8  20345331.023
 -13360064.87048 -10365338.10845  21748802.0864                   21748803.3284
 -16921318.88548 -13137199.03945  21520196.6334                   21520195.4574
 11  8 25  1 54  0.0000000  0  8G12G10G25G29G26G05G30G02
 -16719437.676 8 -13006145.306 7  21509040.039
  -6476676.88246  -4998977.41043  23466704.8134                   23466706.0354
 -15994122.393 7 -12448686.066 7  21586259.422
 -11714501.230 7  -9115380.714 7  22561639.688
  -5518202.05646  -4259695.96344  23831485.5084                   23831488.9614
 -23162005.207 8 -18023866.747 8  20349347.930
 -13349920.87348 -10357433.71145  21750732.7504                   21750733.6994
 -16883068.15447 -13107393.27645  21527475.5864                   21527474.4534
 11  8 25  1 54 30.0000000  0  8G12G10G25G29G26G05G30G02
 -16655861.552 7 -12956605.480 7  21521138.141
  -6373349.67546  -4918462.67143  23486367.0864                   23486368.6134
 -15991767.569 8 -12446851.159 7  21586708.094
 -11796090.957 7  -9178957.104 7  22546113.406
  -5614695.21246  -4334885.27444  23813123.2504                   23813126.8794
 -23140366.319 8 -18007005.256 8  20353465.336
 -13339186.17148 -10349069.01245  21752775.7974                   21752776.0904
 -16844715.96347 -13077508.46346  21534773.9144                   21534773.0704
 11  8 25  1 55  0.0000000  0  8G12G10G25G29G26G05G30G02
 -16591858.035 8 -12906732.638 7  21533317.961
  -6269845.38746  -4837810.02943  23506063.4844                   23506064.7504
 -15988833.770 8 -12444565.085 7  21587265.867
 -11877594.298 7  -9242466.131 7  22530603.273
  -5711140.11246  -4410037.01744  23794769.8284                   23794774.0164
 -23118199.195 8 -17989732.152 8  20357683.961
 -13327862.14947 -10340245.10745  21754929.9614                   21754931.1954
 -16806262.82047 -13047544.98445  21542091.4774                   21542089.9774
 11  8 25  1 55 30.0000000  0  8G12G10G25G29G26G05G30G02
 -16527430.550 8 -12856529.423 7  21545578.117
  -6166167.26547  -4757021.90143  23525792.4774                   23525795.1764
 -15985321.912 8 -12441828.573 7  21587934.625
 -11959009.920 7  -9305906.822 6  22515110.680
  -5807533.90147  -4485148.89944  23776426.6884                   23776430.6844
 -23095506.064 8 -17972049.179 8  20362002.000
 -13315950.22248 -10330963.09145  21757196.7814                   21757198.2304
 -16767709.01047 -13017503.06546  21549427.3054                   21549426.2234
 11  8 25  1 56  0.0000000  0  8G12G10G25G29G26G05G30G02
 -16462582.130 8 -12805998.213 7  21557918.164
  -6062318.27147  -4676100.64043  23545554.5784                   23545555.9104
 -15981233.138 8 -12438642.533 7  21588712.563
 -12040336.442 7  -9369278.113 6  22499634.609
  -5903873.40647  -4560218.51343  23758094.4534                   23758097.4774
 -23072288.668 8 -17953957.678 8  20366420.328
 -13303452.10047 -10321224.29045  21759575.2344                   21759576.5594
 -16729055.52548 -12987383.46745  21556783.2894                   21556781.8204
 11  8 25  1 56 30.0000000  0  8G12G10G25G29G26G05G30G02
 -16397313.797 8 -12755139.785 7  21570338.648
  -5958299.92947  -4595047.40543  23565348.9064                   23565350.7304
 -15976566.690 8 -12435006.342 7  21589600.188
 -12121571.125 7  -9432577.854 6  22484176.039
  -6000153.99047  -4635242.20243  23739772.5864                   23739775.1914
 -23048547.180 8 -17935457.803 8  20370938.367
 -13290367.59647 -10311028.56945  21762065.0634                   21762066.1454
 -16690301.20647 -12957185.30245  21564158.2584                   21564156.3874
 11  8 25  1 57  0.0000000  0  8G12G10G25G29G26G05G30G02
 -16331629.026 8 -12703956.870 7  21582837.797
  -5854115.73047  -4513864.94243  23585174.4224                   23585176.3404
 -15971323.850 8 -12430921.027 7  21590598.375
 -12202712.510 7  -9495804.867 6  22468735.094
  -6096372.99447  -4710217.92243  23721462.5474                   23721465.3914
 -23024283.895 8 -17916551.333 8  20375555.258
 -13276698.43548 -10300377.28445  21764666.1804                   21764667.4694
 -16651446.91148 -12926909.23645  21571551.6414                   21571549.9384
 11  8 25  1 57 30.0000000  0  8G12G10G25G29G26G05G30G02
 -16265531.132 8 -12652452.040 7  21595416.477
  -5749768.90746  -4432555.70843  23605030.2664                   23605032.0824
 -15965505.892 8 -12426387.555 7  21591705.289
 -12283759.137 7  -9558958.053 6  22453312.000
  -6192527.48046  -4785143.35943  23703164.6804                   23703168.3674
 -22999501.175 8 -17897240.104 8  20380271.094
 -13262446.46448 -10289271.85545  21767378.2034                   21767380.1564
 -16612493.95048 -12896556.28245  21578964.6094                   21578963.0394
 11  8 25  1 58  0.0000000  0  9G12G10G25G29G26G05G15G30G02
 -16199019.889 8 -12600625.117 7  21608072.133
  -5645259.49646  -4351119.84743  23624918.1174                   23624919.9184
 -15959110.818 8 -12421404.399 7  21592922.344
 -12364706.930 7  -9622034.224 7  22437908.289
  -6288611.35446  -4860013.80643  23684880.6334                   23684883.1134
 -22974197.769 8 -17877523.158 8  20385086.594
   -551237.83116   -413872.72415  24629115.820
 -13247610.25948 -10277711.17545  21770200.8204                   21770203.0044
 -16573439.33847 -12866124.11345  21586396.3524                   21586394.5984
 11  8 25  1 58 30.0000000  0  9G12G10G25G29G26G05G15G30G02
 -16132107.645 8 -12548485.723 7  21620805.570
  -5540600.10646  -4269567.11443  23644834.5474                   23644836.4494
 -15952149.204 8 -12415979.766 7  21594247.172
 -12445563.733 7  -9685039.469 7  22422522.328
  -6384631.05746  -4934834.23243  23666608.6884                   23666611.3054
 -22948385.104 8 -17857409.379 8  20389998.750
   -645847.025 6   -487593.828 6  24611112.094
 -13232200.85347 -10265703.84145  21773133.8444                   21773135.9574
 -16534293.21747 -12835620.64245  21593845.7114                   21593843.8244
 11  8 25  1 59  0.0000000  0  9G12G10G25G29G26G05G15G30G02
 -16064782.834 8 -12496024.857 7  21633617.109
  -5435778.99646  -4187888.35843  23664781.2734                   23664783.5354
 -15944607.275 8 -12410102.947 7  21595682.063
 -12526313.275 7  -9747961.132 7  22407156.750
  -6480568.71546  -5009590.76843  23648351.1724                   23648354.6254
 -22922050.466 8 -17836888.872 8  20395009.797
   -740571.754 6   -561404.951 6  24593086.398
 -13216205.04448 -10253239.57245  21776177.8054                   21776179.3984
 -16495041.40447 -12805034.81345  21601315.2424                   21601313.4964
 11  8 25  1 59 30.0000000  0  9G12G10G25G29G26G05G15G30G02
 -15997054.755 8 -12443249.755 7  21646505.555
  -5330805.89346  -4106091.14643  23684756.4924                   23684759.2704
 -15936492.625 8 -12403779.853 7  21597226.445
 -12606960.325 7  -9810802.982 7  22391809.813
  -6576427.59447  -5084285.85443  23630111.1644                   23630113.2624
 -22895202.300 8 -17815968.210 8  20400118.383
   -835416.169 6   -635309.294 6  24575038.023
 -13199630.98648 -10240324.73145  21779331.5864                   21779333.5084
 -16455690.93248 -12774372.10745  21608803.2664                   21608801.6094
 11  8 25  2  0  0.0000000  0  9G12G10G25G29G26G05G15G30G02
 -15928925.043 8 -12390161.681 7  21659470.227
  -5225682.12446  -4024176.55843  23704761.4844                   23704763.6684
 -15927804.896 8 -12397010.199 7  21598879.641
 -12687501.856 7  -9873562.579 7  22376482.344
  -6672203.06946  -5158915.97443  23611884.2274                   23611887.5314
 -22867840.847 8 -17794647.597 8  20405325.461
   -930376.599 6   -709304.015 6  24556966.781
 -13182478.78348 -10226959.38045  21782595.4844                   21782597.2154
 -16416240.70348 -12743631.65345  21616310.4144                   21616308.5204
 11  8 25  2  0 30.0000000  0  9G12G10G25G29G26G05G15G30G02
 -15860396.358 8 -12336762.734 7  21672510.344
  -5120410.74347  -3942146.96044  23724794.3914                   23724796.0864
 -15918544.997 8 -12389794.703 7  21600641.852
 -12767936.222 7  -9936238.682 7  22361176.758
  -6767891.71746  -5233478.47743  23593675.5164                   23593678.8794
 -22839968.186 8 -17772928.634 8  20410629.570
  -1025450.919 6   -783387.554 6  24538874.930
 -13164750.03548 -10213144.77545  21785969.3914                   21785971.2464
 -16376691.32448 -12712813.95945  21623835.8594                   21623834.3874
 11  8 25  2  1  0.0000000  0  9G12G10G25G29G26G05G15G30G02
 -15791473.711 8 -12283056.791 7  21685625.930
  -5014996.56847  -3860006.05143  23744853.5234                   23744855.2734
 -15908715.924 8 -12382135.690 7  21602512.180
 -12848263.370 7  -9998831.198 7  22345890.883
  -6863492.33346  -5307972.35043  23575483.1334                   23575486.6524
 -22811588.192 8 -17750814.332 8  20416029.766
  -1120638.422 6   -857559.275 6  24520760.711
 -13146448.09248 -10198883.53245  21789452.7274                   21789453.4734
 -16337044.77548 -12681920.52545  21631380.5944                   21631379.0744
 11  8 25  2  1 30.0000000  0  9G12G10G25G29G26G05G15G30G02
 -15722157.716 7 -12229044.372 7  21698816.617
  -4909440.04547  -3777754.21243  23764940.1484                   23764942.1094
 -15898316.466 8 -12374032.229 7  21604491.078
 -12928479.780 7 -10061337.465 7  22330626.273
  -6958999.47747  -5382393.36443  23557308.9454                   23557311.7934
 -22782700.352 8 -17728304.321 8  20421526.977
  -1215934.720 6   -931815.775 6  24502626.250
 -13127572.40048 -10184175.20845  21793044.1414                   21793045.2344
 -16297299.34148 -12650950.04245  21638944.1644                   21638941.9964
 11  8 25  2  2  0.0000000  0  9G12G10G25G29G26G05G15G30G02
 -15652451.902 8 -12174728.153 7  21712081.016
  -4803744.58347  -3695394.07743  23785053.7034                   23785054.6644
 -15887348.107 8 -12365485.469 7  21606578.086
 -13008583.804 7 -10123756.136 7  22315383.703
  -7054410.00847  -5456739.12244  23539152.4774                   23539156.0354
 -22753306.993 8 -17705400.401 8  20427119.945
  -1311337.950 6  -1006155.593 6  24484471.406
 -13108124.86648 -10169021.29845  21796744.8524                   21796746.1844
 -16257455.87748 -12619903.16645  21646526.1174                   21646523.9574
 11  8 25  2  2 30.0000000  0  9G12G10G25G29G26G05G15G30G02
 -15582358.227 7 -12120109.721 7  21725419.594
  -4697912.52547  -3612927.54743  23805193.0164                   23805194.1254
 -15875811.371 8 -12356495.825 7  21608773.898
 -13088572.974 7 -10186085.323 7  22300161.289
  -7149720.19247  -5531006.67344  23521016.0084                   23521019.0474
 -22723409.600 8 -17682103.725 8  20432809.633
  -1406844.783 7  -1080576.190 6  24466297.492
 -13088106.67948 -10153422.72145  21800554.0944                   21800555.1174
 -16217513.97447 -12588779.59845  21654126.9454                   21654125.4694
 11  8 25  2  3  0.0000000  0  9G12G10G25G29G26G05G15G30G02
 -15511880.255 8 -12065191.853 7  21738830.898
  -4591947.00846  -3530357.01443  23825357.0634                   23825358.8134
 -15863707.715 8 -12347064.401 7  21611077.039
 -13168446.018 7 -10248324.037 7  22284962.016
  -7244926.66347  -5605193.41144  23502898.3204                   23502902.1644
 -22693010.603 8 -17658416.189 8  20438594.063
  -1502453.599 6  -1155076.261 6  24448102.367
 -13067519.71148 -10137380.93345  21804471.6414                   21804472.8164
 -16177474.41848 -12557579.94145  21661745.9064                   21661744.0164
 11  8 25  2  3 30.0000000  0  9G12G10G25G29G26G05G15G30G02
 -15441019.602 7 -12009975.787 7  21752315.391
  -4485849.43146  -3447683.59043  23845547.5394                   23845548.5634
 -15851036.947 8 -12337191.079 7  21613487.828
 -13248200.081 7 -10310470.003 7  22269785.063
  -7340025.12447  -5679296.01144  23484802.2274                   23484804.3754
 -22662110.227 8 -17634337.961 8  20444474.508
  -1598160.614 6  -1229652.765 6  24429890.281
 -13046364.38548 -10120896.28145  21808497.3984                   21808498.2464
 -16137336.36148 -12526303.53045  21669383.7274                   21669382.2504
 11  8 25  2  4  0.0000000  0  9G12G10G25G29G26G05G15G30G02
 -15369780.229 8 -11954464.607 7  21765872.336
  -4379623.96646  -3364910.48443  23865761.6334                   23865762.1884
 -15837801.476 8 -12326877.729 7  21616006.398
 -13327834.477 7 -10372522.757 7  22254631.375
  -7435013.48947  -5753312.76843  23466725.7504                   23466728.7234
 -22630711.970 8 -17609871.775 8  20450449.586
  -1693964.610 6  -1304304.916 6  24411659.047
 -13024643.57648 -10103970.97545  21812630.9614                   21812631.7304
 -16097101.07447 -12494951.35545  21677040.5394                   21677039.3404
 11  8 25  2  4 30.0000000  0  9G12G10G25G29G26G05G15G30G02
 -15298163.267 7 -11898659.199 7  21779500.141
  -4273271.32846  -3282038.31443  23885998.7734                   23886000.2274
 -15824000.595 8 -12316123.809 7  21618632.984
 -13407345.559 7 -10434479.411 7  22239500.758
  -7529886.34247  -5827239.57144  23448672.0864                   23448675.2664
 -22598815.746 8 -17585017.581 8  20456519.211
  -1789861.206 6  -1379029.262 5  24393410.063
 -13002357.21548 -10086605.00245  21816872.3054                   21816872.9384
 -16056767.14647 -12463522.32546  21684715.8284                   21684714.2234
 11  8 25  2  5  0.0000000  0  9G12G10G25G29G26G05G15G30G02
 -15226173.337 7 -11842563.178 7  21793199.781
  -4166796.19146  -3199070.67643  23906262.1644                   23906262.9454
 -15809637.315 8 -12304931.647 7  21621366.195
 -13486733.034 7 -10496339.745 7  22224394.305
  -7624642.13947  -5901075.15744  23430640.6804                   23430643.1644
 -22566425.394 8 -17559778.323 8  20462682.445
  -1885849.760 6  -1453825.252 5  24375143.945
 -12979508.70848 -10068800.96445  21821219.4924                   21821220.9924
 -16016336.52447 -12432017.94745  21692408.8204                   21692408.0204
 11  8 25  2  5 30.0000000  0  9G12G10G25G29G26G05G15G30G02
 -15153812.733 7 -11786178.306 7  21806968.820
  -4060200.48446  -3116009.13243  23926546.1254                   23926548.0084
 -15794711.764 8 -12293301.360 7  21624206.172
 -13565993.972 8 -10558101.491 7  22209311.461
  -7719276.44746  -5974816.04544  23412632.3444                   23412635.4694
 -22533541.973 8 -17534154.880 8  20468940.359
  -1981927.107 6  -1528690.443 6  24356861.188
 -12956098.75048 -10050559.46645  21825674.5864                   21825675.6954
 -15975808.39347 -12400437.58545  21700121.5474                   21700120.1334
 11  8 25  2  6  0.0000000  0  9G12G10G25G29G26G05G15G30G02
 -15081084.183 7 -11729506.746 7  21820809.234
  -3953486.98746  -3032855.79143  23946853.0314                   23946854.7074
 -15779225.221 8 -12281233.943 7  21627153.523
 -13645126.948 7 -10619763.511 7  22194253.078
  -7813785.82847  -6048459.60444  23394647.6644                   23394650.5234
 -22500167.280 8 -17508148.611 8  20475291.273
  -2078090.333 6  -1603622.535 6  24338561.164
 -12932129.21648 -10031881.91345  21830235.8054                   21830236.6214
 -15935183.29547 -12368781.68046  21707852.1724                   21707850.7854
 11  8 25  2  6 30.0000000  0  9G12G10G25G29G26G05G15G30G02
 -15007989.544 7 -11672549.923 7  21834718.602
  -3846657.44346  -2949612.07243  23967182.1254                   23967183.4844
 -15763177.849 8 -12268729.509 7  21630207.078
 -13724128.848 7 -10681323.384 7  22179218.750
  -7908165.96347  -6122002.41944  23376687.8984                   23376690.6094
 -22466302.294 8 -17481760.299 8  20481735.852
  -2174336.189 6  -1678619.016 5  24320245.703
 -12907600.77248 -10012768.86445  21834903.5084                   21834904.4964
 -15894460.16047 -12337049.36845  21715601.5394                   21715600.4774
 11  8 25  2  7  0.0000000  0  9G12G10G25G29G26G05G15G30G02
 -14934532.320 7 -11615310.537 7  21848696.828
  -3739715.07647  -2866280.35143  23987532.6804                   23987533.6414
 -15746571.538 8 -12255789.542 7  21633366.914
 -13802998.535 7 -10742780.237 7  22164209.828
  -8002413.74847  -6195442.16944  23358752.8914                   23358755.3524
 -22431950.038 8 -17454992.298 8  20488272.531
  -2270662.844 6  -1753678.464 6  24301915.539
 -12882515.85048  -9993222.17945  21839677.1484                   21839678.1994
 -15853639.76948 -12305241.27745  21723369.7974                   21723368.3484
 11  8 25  2  7 30.0000000  0  9G12G10G25G29G26G05G15G30G02
 -14860715.650 7 -11557791.079 7  21862744.000
  -3632662.77746  -2782863.03943  24007903.1414                   24007905.3954
 -15729407.913 8 -12242415.304 7  21636633.414
 -13881734.306 7 -10804132.744 7  22149227.516
  -8096526.36847  -6268776.56044  23340843.8914                   23340846.8134
 -22397112.381 8 -17427846.056 8  20494902.063
  -2367067.815 6  -1828798.909 6  24283570.195
 -12856876.54348  -9973243.53345  21844556.0084                   21844557.4304
 -15812722.68148 -12273357.83845  21731156.0634                   21731154.3754
 11  8 25  2  8  0.0000000  0  9G12G10G25G29G26G05G15G30G02
 -14786541.864 7 -11499993.352 7  21876858.656
  -3525502.20947  -2699361.31844  24028295.3914                   24028297.2034
 -15711687.081 8 -12228606.887 7  21640005.328
 -13960333.195 7 -10865378.626 7  22134270.992
  -8190499.10047  -6342001.94144  23322961.0474                   23322963.8914
 -22361790.330 8 -17400322.384 8  20501623.656
  -2463547.648 7  -1903977.711 6  24265211.156
 -12830683.54547  -9952833.41145  21849540.3594                   21849542.0084
 -15771707.95248 -12241398.31845  21738961.3284                   21738958.8914
 11  8 25  2  8 30.0000000  0  9G12G10G25G29G26G05G15G30G02
 -14712013.939 7 -11441919.669 7  21891040.977
  -3418236.19446  -2615777.46143  24048707.3984                   24048709.3014
 -15693410.611 8 -12214365.496 7  21643483.094
 -14038793.293 8 -10926516.354 7  22119340.094
  -8284328.54946  -6415115.70044  23305105.7814                   23305108.4734
 -22325986.068 8 -17372422.951 8  20508436.820
  -2560099.927 6  -1979213.042 6  24246837.031
 -12803938.88147  -9931993.44345  21854629.6724                   21854630.8204
 -15730596.27648 -12209363.25245  21746784.0314                   21746782.8984
 11  8 25  2  9  0.0000000  0  9G12G10G25G29G26G05G15G30G02
 -14637135.090 7 -11383572.549 7  21905289.719
  -3310867.90646  -2532113.86843  24069139.3444                   24069140.2344
 -15674580.293 8 -12199692.537 7  21647066.500
 -14117113.201 7 -10987544.835 7  22104436.500
  -8378011.84847  -6488115.53944  23287278.6094                   23287281.1134
 -22289701.997 8 -17344149.650 8  20515341.477
  -2656722.566 6  -2054503.138 6  24228450.539
 -12776644.92847  -9910725.44945  21859824.1644                   21859825.1454
 -15689388.03548 -12177252.94045  21754625.5704                   21754624.2974
 11  8 25  2  9 30.0000000  0  9G12G10G25G29G26G05G15G30G02
 -14561907.830 8 -11324953.942 7  21919605.000
  -3203399.06446  -2448371.92043  24089589.3524                   24089591.1724
 -15655196.726 8 -12184588.488 7  21650755.391
 -14195290.230 7 -11048461.947 7  22089559.742
  -8471544.78946  -6560998.23344  23269479.6414                   23269482.1954
 -22252939.834 8 -17315503.805 8  20522336.836
  -2753412.278 7  -2129845.487 6  24210050.289
 -12748802.83447  -9889030.33445  21865121.9384                   21865123.2894
 -15648082.54248 -12145066.84245  21762486.0314                   21762484.3554
 11  8 25  2 10  0.0000000  0  9G12G10G25G29G26G05G15G30G02
 -14486334.170 8 -11266065.404 7  21933986.766
  -3095831.58846  -2364553.14043  24110058.9144                   24110060.6054
 -15635260.341 8 -12169053.653 7  21654549.414
 -14273321.685 7 -11109265.632 7  22074710.563
  -8564922.67646  -6633760.10244  23251710.0474                   23251712.7234
 -22215700.418 8 -17286486.076 8  20529423.758
  -2850165.456 6  -2205237.331 6  24191638.875
 -12720413.47647  -9866908.77745  21870524.0164                   21870525.5234
 -15606679.19248 -12112804.49945  21770364.4614                   21770363.1914
 11  8 25  2 10 30.0000000  0  9G12G10G25G29G26G05G15G30G02
 -14410417.942 8 -11206909.926 7  21948432.586
  -2988169.48946  -2280660.63442  24130546.4064                   24130547.9964
 -15614773.926 8 -12153090.225 7  21658447.750
 -14351206.638 7 -11169955.156 7  22059889.430
  -8658143.58447  -6706399.65244  23233970.4924                   23233973.3134
 -22177987.148 8 -17257099.106 8  20536600.117
  -2946980.945 6  -2280677.720 6  24173215.523
 -12691480.18947  -9844363.38745  21876030.1414                   21876031.0864
 -15565179.59847 -12080467.14045  21778261.9534                   21778260.3794
 11  8 25  2 11  0.0000000  0  9G12G10G25G29G26G05G15G30G02
 -14334162.686 8 -11147490.293 7  21962944.039
  -2880415.64946  -2196696.57143  24151051.1484                   24151053.2664
 -15593738.987 8 -12136699.374 7  21662450.313
 -14428943.448 8 -11230529.271 7  22045096.742
  -8751203.99547  -6778914.14744  23216262.0164                   23216264.2274
 -22139802.596 8 -17227344.909 8  20543866.328
  -3043856.217 6  -2356164.683 6  24154780.234
 -12662004.95847  -9821395.67945  21881638.6254                   21881640.1414
 -15523583.76448 -12048054.80945  21786177.2664                   21786175.8244
 11  8 25  2 11 30.0000000  0  9G12G10G25G29G26G05G15G30G02
 -14257568.920 8 -11087806.870 7  21977519.250
  -2772569.81345  -2112660.92342  24171573.7424                   24171575.7154
 -15572154.387 8 -12119880.223 7  21666557.852
 -14506527.590 8 -11290984.428 7  22030333.438
  -8844097.76447  -6851298.78144  23198585.2344                   23198587.6134
 -22101145.793 8 -17197222.724 8  20551222.695
  -3140785.993 6  -2431694.151 6  24136335.266
 -12631987.19747  -9798005.23945  21887350.5474                   21887352.6254
 -15481889.17348 -12015565.50545  21794111.1254                   21794109.3054
 11  8 25  2 12  0.0000000  0  9G12G10G25G29G26G05G15G30G02
 -14180643.133 8 -11027864.718 7  21992157.633
  -2664638.40546  -2028558.50742  24192111.9384                   24192114.1954
 -15550025.318 8 -12102636.798 7  21670768.625
 -14583960.561 7 -11351321.778 7  22015597.719
  -8936825.39447  -6923553.97244  23180939.6644                   23180942.1134
 -22062022.893 8 -17166737.342 8  20558667.344
  -3237771.717 6  -2507267.232 6  24117879.922
 -12601432.60247  -9774196.47645  21893165.3914                   21893166.8674
 -15440099.62848 -11983002.23345  21802063.5944                   21802062.4804
 11  8 25  2 12 30.0000000  0  9G12G10G25G29G26G05G15G30G02
 -14103385.297 8 -10967663.855 7  22006859.141
  -2556621.20546  -1944389.32243  24212666.6024                   24212669.4654
 -15527350.293 8 -12084967.951 7  21675083.703
 -14661237.487 7 -11411537.531 7  22000892.398
  -9029380.10747  -6995674.44444  23163326.8204                   23163328.6604
 -22022432.962 8 -17135888.039 8  20566201.219
  -3334807.657 7  -2582879.412 6  24099412.898
 -12570340.26847  -9749968.70545  21899082.1334                   21899083.6294
 -15398212.54848 -11950362.94945  21810034.8204                   21810033.3164
 11  8 25  2 13  0.0000000  0  9G12G10G25G29G26G05G15G30G02
 -14025798.602 8 -10907206.726 7  22021623.750
  -2448520.51446  -1860155.02042  24233238.2734                   24233240.0904
 -15504130.893 8 -12066874.919 7  21679502.078
 -14738356.336 7 -11471630.083 7  21986217.539
  -9121758.59947  -7067657.57544  23145747.8674                   23145750.1094
 -21982378.186 8 -17104676.524 8  20573823.211
  -3431891.053 6  -2658528.578 6  24080939.094
 -12538712.21847  -9725323.47745  21905100.8284                   21905102.5124
 -15356228.14448 -11917647.81845  21818024.1884                   21818022.1254
 11  8 25  2 13 30.0000000  0  9G12G10G25G29G26G05G15G30G02
 -13947887.248 8 -10846496.586 7  22036449.742
  -2340340.36446  -1775858.82343  24253824.5784                   24253826.1604
 -15480369.785 8 -12048359.771 7  21684023.688
 -14815316.402 7 -11531598.928 7  21971572.773
  -9213958.09647  -7139501.22544  23128202.8594                   23128204.7894
 -21941861.703 8 -17073105.230 8  20581533.484
  -3529020.280 6  -2734213.450 6  24062455.391
 -12506551.56347  -9700263.23345  21911221.0474                   21911222.0434
 -15314147.45847 -11884857.67045  21826031.4454                   21826030.2734
 11  8 25  2 14  0.0000000  0  9G12G10G25G29G26G05G15G30G02
 -13869653.917 8 -10785535.570 7  22051336.516
  -2232082.67346  -1691502.18843  24274424.2974                   24274427.5124
 -15456068.192 8 -12029423.472 7  21688648.117
 -14892115.228 8 -11591442.120 7  21956958.758
  -9305975.03347  -7211202.62444  23110692.1804                   23110694.3674
 -21900885.346 8 -17041175.588 8  20589330.969
  -3626192.442 6  -2809931.769 6  24043964.430
 -12473860.16248  -9674789.42245  21917441.9614                   21917443.2974
 -15271970.20247 -11851992.26845  21834057.5944                   21834056.0824
 11  8 25  2 14 30.0000000  0  9G12G10G25G29G26G05G15G30G02
 -13791101.680 8 -10724326.073 7  22066285.016
  -2123750.25346  -1607087.36943  24295040.3834                   24295042.0784
 -15431227.851 8 -12010067.368 7  21693375.125
 -14968750.941 8 -11651158.226 7  21942375.102
  -9397806.04547  -7282759.15144  23093217.5554                   23093219.5704
 -21859451.362 8 -17008889.361 8  20597215.484
  -3723404.991 6  -2885681.610 6  24025465.672
 -12440640.25248  -9648903.78845  21923763.4064                   21923764.5944
 -15229696.83247 -11819051.97745  21842101.6884                   21842100.4224
 11  8 25  2 15  0.0000000  0  9G12G10G25G29G26G05G15G30G02
 -13712231.024 8 -10662868.436 7  22081293.484
  -2015343.75846  -1522614.81843  24315668.2974                   24315671.0984
 -15405848.251 8 -11990291.072 7  21698204.633
 -15045219.227 7 -11710743.883 7  21927823.797
  -9489445.35747  -7354166.30744  23075778.7734                   23075780.9144
 -21817559.994 8 -16976246.724 8  20605187.336
  -3820653.366 6  -2961459.299 6  24006959.000
 -12406891.83348  -9622606.32945  21930185.6334                   21930186.9884
 -15187325.00748 -11786034.97345  21850164.6334                   21850163.4224
 11  8 25  2 15 30.0000000  0  9G12G10G25G29G26G05G15G30G02
 -13633046.693 8 -10601166.391 7  22096362.070
  -1906866.33246  -1438086.97543  24336312.2504                   24336313.2464
 -15379931.879 8 -11970096.512 7  21703136.492
 -15121519.182 8 -11770198.335 7  21913304.172
  -9580890.19747  -7425421.91744  23058377.2734                   23058379.2584
 -21775214.463 8 -16943250.196 8  20613244.789
  -3917935.632 6  -3037263.381 6  23988447.039
 -12372617.79348  -9595899.29745  21936707.8594                   21936709.0434
 -15144855.61947 -11752941.94245  21858246.2814                   21858244.9924
 11  8 25  2 16  0.0000000  0  9G12G10G25G29G26G05G15G30G02
 -13553553.298 8 -10539223.499 7  22111489.180
  -1798321.97946  -1353506.97843  24356966.9064                   24356969.1294
 -15353481.999 8 -11949486.230 7  21708169.984
 -15197650.008 8 -11829521.013 7  21898816.516
  -9672138.81946  -7496524.64744  23041013.1644                   23041014.8914
 -21732418.309 8 -16909902.537 8  20621389.031
  -4015250.582 7  -3113092.998 6  23969928.039
 -12337821.96648  -9568785.68745  21943329.4304                   21943331.1024
 -15102290.55147 -11719774.36445  21866346.5864                   21866345.1764
 11  8 25  2 16 30.0000000  0  9G12G10G25G29G26G05G15G30G02
 -13473752.125 8 -10477040.795 7  22126674.398
  -1689711.93646  -1268875.81443  24377634.6484                   24377636.7814
 -15326498.762 8 -11928460.342 7  21713304.234
 -15273608.409 8 -11888709.316 7  21884362.641
  -9763185.99047  -7567470.40144  23023687.1804                   23023689.7584
 -21689172.190 8 -16876204.255 8  20629618.648
  -4112594.079 6  -3188944.844 6  23951403.625
 -12302505.10048  -9541266.06145  21950049.5234                   21950051.2774
 -15059628.42147 -11686531.14945  21874464.9924                   21874463.2774
 11  8 25  2 17  0.0000000  0  9G12G10G25G29G26G05G15G30G02
 -13393645.412 8 -10414619.996 7  22141918.391
  -1581038.17146  -1184194.94043  24398315.2344                   24398316.6604
 -15298983.174 8 -11907019.650 7  21718540.750
 -15349391.639 8 -11947761.137 7  21869941.516
  -9854027.50147  -7638255.89444  23006400.7194                   23006403.0234
 -21645477.874 8 -16842156.712 8  20637933.258
  -4209962.802 6  -3264816.337 6  23932875.445
 -12266668.59948  -9513341.53245  21956869.7034                   21956870.5664
 -15016868.52047 -11653211.73345  21882601.6884                   21882600.2704
 11  8 25  2 17 30.0000000  0 10G12G10G25G29G26G05G15G30G02G21
 -13313237.245 8 -10351964.306 7  22157219.703
  -1472304.10646  -1099467.11943  24419006.4064                   24419008.0314
 -15270938.059 8 -11885166.325 7  21723877.273
 -15424998.370 8 -12006675.426 7  21855553.711
  -9944660.67347  -7708879.04244  22989153.9694                   22989155.5984
 -21601338.559 8 -16807762.429 8  20646332.734
  -4307355.244 6  -3340706.343 6  23914341.633
 -12230315.70548  -9485014.61445  21963786.8444                   21963787.9064
 -14974011.92547 -11619816.96845  21890756.9304                   21890755.6724
    -37066.61115                  25182303.563
 11  8 25  2 18  0.0000000  0 10G12G10G25G29G26G05G15G30G02G21
 -13232526.924 8 -10289073.169 7  22172578.625
  -1363508.09846  -1014691.00442  24439708.7274                   24439710.6644
 -15242361.078 8 -11862898.539 7  21729315.289
 -15500422.715 7 -12065447.580 7  21841200.906
 -10035078.24947  -7779334.18844  22971947.9454                   22971950.0824
 -21556752.382 8 -16773019.937 8  20654816.930
  -4404764.216 6  -3416609.156 6  23895805.383
 -12193444.73848  -9456284.00145  21970803.0164                   21970804.6254
 -14931054.75947 -11586343.85045  21898931.4774                   21898929.9734
    -95468.173 5                  25171189.805
 11  8 25  2 18 30.0000000  0 10G12G10G25G29G26G05G15G30G02G21
 -13151523.025 8 -10225953.271 7  22187992.633
  -1254658.53146   -929873.22942  24460422.8674                   24460423.8204
 -15213259.730 8 -11840222.191 7  21734853.008
 -15575668.563 7 -12124080.675 7  21826882.250
 -10125282.10947  -7849622.83044  22954782.4614                   22954785.0514
 -21511727.268 8 -16737935.431 8  20663385.164
  -4502192.964 6  -3492527.464 6  23877265.719
 -12156063.64247  -9427155.90545  21977916.3524                   21977917.7704
 -14888002.66447 -11552796.77045  21907124.1484                   21907122.5704
   -153861.525 5                  25160075.766
 11  8 25  2 19  0.0000000  0 10G12G10G25G29G26G05G15G30G02G21
 -13070226.459 7 -10162605.335 7  22203463.180
  -1145755.38446   -845013.60942  24481146.2424                   24481147.4804
 -15183633.489 8 -11817136.816 7  21740490.867
 -15650731.363 8 -12182571.130 7  21812598.406
 -10215266.64247  -7919740.55944  22937658.9924                   22937661.2304
 -21466263.321 8 -16702508.960 7  20672036.320
  -4599636.517 6  -3568457.293 6  23858722.273
 -12118172.34548  -9397630.24245  21985127.2194                   21985128.0164
 -14844853.29247 -11519173.88045  21915334.9144                   21915333.6294
   -212245.162 5                  25148967.008
 11  8 25  2 19 30.0000000  0 10G12G10G25G29G26G05G15G30G02G21
 -12988640.515 8 -10099031.887 7  22218988.352
  -1036801.14346   -760114.17642  24501879.3054                   24501880.6334
 -15153484.184 8 -11793643.874 7  21746228.273
 -15725608.804 8 -12240917.142 7  21798349.547
 -10305027.84447  -7989684.25644  22920577.9384                   22920580.0164
 -21420362.620 8 -16666742.174 8  20680771.258
  -4697092.066 6  -3644396.438 6  23840176.648
 -12079773.14048  -9367708.79345  21992434.2734                   21992435.0004
 -14801606.72647 -11485475.26745  21923565.1484                   21923563.2734
   -270619.96446    314694.31953  25137859.0634                   25137859.2114
 11  8 25  2 20  0.0000000  0 10G12G10G25G29G26G05G15G30G02G21
 -12906767.487 7 -10035234.762 7  22234567.813
   -927797.449 6                  24522622.484
 -15122812.976 8 -11769744.227 7  21752064.617
 -15800298.274 8 -12299116.716 7  21784136.250
 -10394561.82547  -8059450.92444  22903540.1094                   22903541.6564
 -21374026.879 8 -16630636.389 8  20689588.563
  -4794556.139 6  -3720342.229 6  23821628.852
 -12040867.78748  -9337392.95045  21999838.0164                   21999838.6524
 -14758262.23647 -11451700.33445  21931812.7734                   21931811.2704
   -328985.67146    269214.66142  25126751.9614                   25126754.0204
 11  8 25  2 20 30.0000000  0 10G12G10G25G29G26G05G15G30G02G21
 -12824610.964 7  -9971216.717 7  22250202.227
   -818747.471 6                  24543373.578
 -15091622.240 8 -11745439.786 7  21758000.055
 -15874798.124 7 -12357168.516 7  21769959.375
 -10483865.32047  -8129037.97044  22886546.0084                   22886547.9774
 -21327259.179 7 -16594194.016 8  20698488.203
  -4892026.545 7  -3796293.000 6  23803082.180
 -12001459.04647  -9306684.85545  22007336.6174                   22007337.7544
 -14714820.56147 -11417849.69945  21940079.4924                   21940078.1804
   -387343.13245    223741.39042  25115647.8674                   25115650.1174
 11  8 25  2 21  0.0000000  0 10G12G10G25G29G26G05G15G30G02G21
 -12742173.894 8  -9906980.081 7  22265889.508
   -709653.284 6                  24564133.688
 -15059913.707 8 -11720731.835 7  21764033.914
 -15949106.210 7 -12415070.898 7  21755819.047
 -10572934.84947  -8198442.68444  22869596.5784                   22869598.7114
 -21280061.284 8 -16557416.425 8  20707469.328
  -4989500.425 7  -3872246.468 6  23784533.305
 -11961549.22047  -9275586.28345  22014930.9454                   22014933.1024
 -14671281.63847 -11383923.27545  21948365.1644                   21948363.6054
   -445693.13546    178273.89442  25104542.8364                   25104546.5354
 11  8 25  2 21 30.0000000  0 10G12G10G25G29G26G05G15G30G02G21
 -12659457.787 8  -9842525.996 7  22281629.945
   -600516.128 6                  24584902.328
 -15027688.009 8 -11695620.922 7  21770166.406
 -16023219.137 7 -12472821.197 7  21741716.031
 -10661765.43947  -8267661.22944  22852692.5554                   22852694.3094
 -21232434.523 8 -16520304.653 8  20716532.891
  -5086973.751 7  -3948199.455 6  23765984.133
 -11921139.28747  -9244098.04245  22022620.9774                   22022622.6914
 -14627643.86748 -11349919.82045  21956669.1564                   21956667.2384
   -504035.31646    132812.48442  25093441.3134                   25093444.1994
 11  8 25  2 22  0.0000000  0  9G12G25G29G26G05G15G30G02G21
 -12576464.557 7  -9777855.994 7  22297423.234
 -14994945.155 8 -11670107.020 7  21776397.188
 -16097132.811 7 -12530416.251 7  21727650.766
 -10750351.67047  -8336689.39344  22835835.2114                   22835837.8524
 -21184379.496 8 -16482859.177 7  20725677.039
  -5184441.601 7  -4024148.266 6  23747436.570
 -11880229.70948  -9212220.45845  22030405.9694                   22030407.4184
 -14583905.54847 -11315838.02945  21964992.4774                   21964990.2584
   -562368.03646     87358.55042  25082341.0474                   25082343.2194
 11  8 25  2 22 30.0000000  0  9G12G25G29G26G05G15G30G02G21
 -12493202.065 7  -9712976.145 7  22313267.227
 -14961692.303 8 -11644195.724 7  21782724.813
 -16170850.310 7 -12587858.429 7  21713622.789
 -10838695.01647  -8405528.26644  22819024.0164                   22819026.4924
 -21135903.008 8 -16445085.291 7  20734901.898
  -5281906.630 7  -4100094.833 6  23728889.180
 -11838828.28748  -9179959.62345  22038284.5004                   22038286.1174
 -14540071.84747 -11281681.90045  21973333.4844                   21973331.2664
   -620697.35646     41907.22042  25071240.6884                   25071243.2894
 11  8 25  2 23  0.0000000  0  9G12G25G29G26G05G15G30G02G21
 -12409670.930 7  -9647886.986 7  22329162.867
 -14927928.908 8 -11617886.602 7  21789149.570
 -16244366.881 8 -12645144.041 7  21699632.977
 -10926789.40447  -8474173.17444  22802260.1174                   22802262.0164
 -21087005.475 8 -16406983.321 7  20744206.484
  -5379363.423 7  -4176034.997 6  23710343.742
 -11796934.94548  -9147315.47945  22046256.6024                   22046258.0634
 -14496140.15547 -11247449.41045  21981693.0474                   21981691.7814
   -679021.47746     -3540.09843  25060141.6334                   25060144.2154
 11  8 25  2 23 30.0000000  0  9G12G25G29G26G05G15G30G02G21
 -12325872.955 7  -9582589.892 7  22345109.648
 -14893655.776 8 -11591180.285 7  21795671.906
 -16317679.532 8 -12702270.775 7  21685682.055
 -11014630.12447  -8542620.38844  22785544.1724                   22785546.1724
 -21037687.751 8 -16368553.917 8  20753591.836
  -5476808.119 7  -4251965.775 6  23691800.547
 -11754550.87647  -9114288.94945  22054321.7034                   22054323.8594
 -14452109.32147 -11213139.68545  21990072.0314                   21990070.3874
   -737339.81346    -48982.90842  25049044.6884                   25049046.1524
 11  8 25  2 24  0.0000000  0  9G12G25G29G26G05G15G30G02G21
 -12241813.192 7  -9517088.804 7  22361105.078
 -14858876.303 8 -11564079.409 7  21802290.281
 -16390787.291 7 -12759237.843 7  21671769.828
 -11102214.92647  -8610868.20444  22768877.5394                   22768878.9844
 -20987953.936 8 -16329800.289 7  20763055.578
  -5574238.963 6  -4327885.735 6  23673260.477
 -11711679.96647  -9080883.04745  22062479.8134                   22062481.7664
 -14407980.89047 -11178753.89945  21998469.5634                   21998468.4884
   -795654.07246    -94422.42542  25037946.9774                   25037949.7504
 11  8 25  2 24 30.0000000  0  9G12G25G29G26G05G15G30G02G21
 -12157494.901 7  -9451386.278 7  22377150.414
 -14823592.738 8 -11536585.748 7  21809004.602
 -16463688.154 7 -12816043.683 7  21657897.367
 -11189540.50047  -8678914.02544  22752259.3674                   22752261.8634
 -20937806.592 8 -16290724.443 8  20772598.469
  -5671653.872 7  -4403793.279 6  23654723.063
 -11668324.87347  -9047099.88245  22070730.6024                   22070732.1334
 -14363754.78247 -11144292.00845  22006885.5944                   22006883.7624
   -853965.21346   -139859.58742  25026850.4774                   25026853.8244
 11  8 25  2 25  0.0000000  0  9G12G25G29G26G05G15G30G02G21
 -12072917.736 7  -9385482.018 7  22393244.961
 -14787803.735 8 -11508698.240 7  21815814.945
 -16536376.752 7 -12872684.113 7  21644064.813
 -11276600.01247  -8746752.53344  22735693.2584                   22735694.7934
 -20887244.447 8 -16251325.375 8  20782219.945
  -5769046.573 6  -4479683.500 6  23636188.781
 -11624484.77347  -9012938.78045  22079072.9224                   22079074.3244
 -14319427.99247 -11109751.66445  22015320.7194                   22015319.0634
   -912270.50646   -185292.20842  25015755.6174                   25015757.7934
 11  8 25  2 25 30.0000000  0  9G12G25G29G26G05G15G30G02G21
 -11988087.833 7  -9319380.837 7  22409387.383
 -14751514.422 8 -11480420.883 7  21822720.594
 -16608853.992 7 -12929159.839 7  21630273.125
 -11363392.74647  -8814383.15444  22719176.7814                   22719178.7384
 -20836273.281 8 -16211607.571 7  20791919.703
  -5866417.129 6  -4555556.535 6  23617660.172
 -11580165.38347  -8978404.20545  22087506.3914                   22087508.4614
 -14275003.14148 -11075134.90745  22023774.1414                   22023772.7624
   -970573.92146   -230723.32743  25004661.1094                   25004663.7114
 11  8 25  2 26  0.0000000  0  9G12G25G29G26G05G15G30G02G21
 -11903006.809 7  -9253083.942 7  22425577.711
 -14714725.360 8 -11451754.106 7  21829721.305
 -16681115.987 7 -12985467.841 7  21616522.000
 -11449913.88747  -8881802.14444  22702712.3594                   22702713.6804
 -20784893.542 8 -16171571.405 7  20801696.844
  -5963760.907 6  -4631408.655 6  23599135.742
 -11535367.50947  -8943496.78745  22096031.4844                   22096032.7704
 -14230478.61047 -11040440.46645  22032246.5084                   22032245.6804
  -1028874.29946   -276152.08742  24993566.8134                   24993569.2304
 11  8 25  2 26 30.0000000  0  9G12G25G29G26G05G15G30G02G21
 -11817678.446 7  -9186594.350 7  22441815.344
 -14677439.302 8 -11422700.050 7  21836816.602
 -16753161.398 8 -13041607.082 7  21602812.180
 -11536160.28247  -8949007.04244  22686299.8984                   22686301.9454
 -20733108.468 8 -16131219.402 8  20811551.078
  -6061076.260 6  -4707238.616 6  23580617.523
 -11490094.47847  -8908219.13445  22104646.2194                   22104648.2664
 -14185855.18747 -11005668.98045  22040738.2584                   22040736.8874
  -1087172.99046   -321579.56842  24982472.2894                   24982475.2624
 11  8 25  2 27  0.0000000  0  9G12G25G29G26G05G15G30G02G21
 -11732105.699 7  -9119914.316 7  22458099.055
 -14639658.113 8 -11393260.184 7  21844006.234
 -16824987.710 8 -13097575.580 7  21589144.539
 -11622127.93247  -9015994.74544  22669940.5634                   22669942.3834
 -20680920.221 8 -16090553.243 8  20821482.609
  -6158359.940 6  -4783043.917 6  23562104.688
 -11444348.61047  -8872573.01745  22113351.6254                   22113353.2274
 -14141132.87747 -10970820.42045  22049248.9304                   22049247.1884
  -1145470.18346   -367005.87842  24971379.7584                   24971382.2274
 11  8 25  2 27 30.0000000  0  9G12G25G29G26G05G15G30G02G21
 -11646291.405 7  -9053046.055 7  22474428.969
 -14601383.547 8 -11363435.877 7  21851289.375
 -16896592.425 8 -13153371.437 7  21575518.523
 -11707813.34547  -9082762.51544  22653635.5704                   22653636.3364
 -20628330.715 8 -16049574.399 8  20831489.633
  -6255608.663 6  -4858821.955 6  23543598.156
 -11398132.07447  -8836560.16045  22122146.2344                   22122148.4654
 -14096310.70047 -10935894.05745  22057778.2034                   22057777.1844
  -1203766.27746   -412431.25743  24960285.6174                   24960288.7194
 11  8 25  2 28  0.0000000  0  9G12G25G29G26G05G15G30G02G21
 -11560238.473 7  -8985991.845 7  22490804.211
 -14562617.694 8 -11333228.751 7  21858667.070
 -16967972.978 8 -13208992.577 7  21561935.211
 -11793212.20847  -9149307.01144  22637384.5944                   22637387.0554
 -20575342.450 8 -16008284.840 7  20841573.391
  -6352819.409 7  -4934570.431 6  23525099.828
 -11351447.41147  -8800182.52045  22131029.3984                   22131031.4494
 -14051388.60347 -10900889.82345  22066326.5944                   22066325.1804
  -1262061.95546   -457856.37343  24949192.3284                   24949195.5824
 11  8 25  2 28 30.0000000  0  9G12G25G29G26G05G15G30G02G21
 -11473949.783 7  -8918753.931 7  22507224.484
 -14523362.343 8 -11302640.191 7  21866136.555
 -17039127.432 8 -13264437.556 7  21548394.680
 -11878320.98647  -9215625.49345  22621189.2504                   22621191.1174
 -20521957.449 8 -15966686.137 7  20851732.055
  -6449989.159 7  -5010286.955 6  23506609.258
 -11304296.89547  -8763441.88145  22140002.6254                   22140004.3754
 -14006366.17547 -10865807.40245  22074894.0164                   22074893.0474
  -1320357.26246   -503281.24243  24938098.8204                   24938101.3554
 11  8 25  2 29  0.0000000  0  9G12G25G29G26G05G15G30G02G21
 -11387429.589 7  -8851335.612 7  22523689.016
 -14483620.670 8 -11271672.669 7  21873699.367
 -17110054.391 8 -13319705.267 7  21534897.727
 -11963137.00047  -9281715.81044  22605048.6804                   22605050.5594
 -20468179.101 8 -15924780.913 7  20861965.867
  -6547115.812 7  -5085969.872 6  23488126.297
 -11256684.05647  -8726340.99745  22149063.1094                   22149064.2384
 -13961244.38247 -10830647.57445  22083480.4384                   22083478.8714
  -1378653.66746   -548706.90242  24927004.8204                   24927008.6764
 11  8 25  2 29 30.0000000  0  9G12G25G29G26G05G15G30G02G21
 -11300680.327 7  -8783738.808 7  22540197.211
 -14443394.139 8 -11240327.335 7  21881354.523
 -17180750.353 8 -13374792.960 7  21521444.734
 -12047655.86847  -9347574.61244  22588965.7194                   22588967.2114
 -20414008.970 8 -15882570.415 8  20872273.773
  -6644196.088 7  -5161616.674 6  23469652.898
 -11208610.85147  -8688881.37845  22158210.8524                   22158212.7384
 -13916022.51847 -10795409.74245  22092086.0004                   22092084.4614
  -1436951.20146   -594133.44542  24915912.3134                   24915914.6374
 11  8 25  2 30  0.0000000  0  9G12G25G29G26G05G15G30G02G21
 -11213703.856 7  -8715964.950 7  22556748.305
 -14402684.215 8 -11208605.338 7  21889100.742
 -17251212.702 8 -13429698.659 7  21508036.414
 -12131873.25947  -9413198.47644  22572939.6484                   22572940.7154
 -20359448.925 8 -15840056.098 7  20882656.320
  -6741225.681 6  -5237223.995 6  23451188.523
 -11160079.24847  -8651064.57745  22167446.0004                   22167447.5784
 -13870699.43947 -10760093.04945  22100710.2894                   22100709.0354
  -1495249.57046   -639560.72942  24904817.3834                   24904820.0664
 11  8 25  2 30 30.0000000  0  9G12G25G29G26G05G15G30G02G21
 -11126504.823 7  -8648017.694 7  22573342.117
 -14361494.357 8 -11176509.367 7  21896939.469
 -17321440.831 8 -13484421.835 7  21494672.195
 -12215786.88747  -9478585.66145  22556971.3984                   22556972.2274
 -20304502.289 8 -15797240.540 7  20893112.383
  -6838203.275 7  -5312790.789 6  23432734.234
 -11111093.03947  -8612893.53145  22176768.2194                   22176769.2154
 -13825276.48747 -10724698.52645  22109354.5234                   22109352.5704
  -1553550.67646   -684990.06242  24893724.0314                   24893725.5434
 11  8 25  2 31  0.0000000  0  9G12G25G29G26G05G15G30G02G21
 -11039086.407 7  -8579899.455 7  22589976.984
 -14319826.551 8 -11144040.949 7  21904868.422
 -17391431.871 8 -13538960.252 7  21481352.828
 -12299392.75747  -9543733.01944  22541061.3444                   22541062.9884
 -20249171.625 8 -15754125.730 7  20903641.156
  -6935125.473 7  -5388314.422 6  23414290.328
 -11061654.71348  -8574370.18445  22186175.5474                   22186177.8754
 -13779753.14648 -10689225.78245  22118017.0474                   22118015.5664
  -1611854.83846   -730421.74743  24882628.9144                   24882630.4534
 11  8 25  2 31 30.0000000  0  9G12G25G29G26G05G15G30G02G21
 -10951450.267 7  -8511611.589 7  22606653.383
 -14277681.504 8 -11111200.666 7  21912888.313
 -17461181.826 8 -13593310.819 7  21468079.789
 -12382685.75347  -9608636.60444  22525211.3284                   22525213.0274
 -20193457.681 8 -15710712.259 7  20914242.859
  -7031988.093 7  -5463791.630 6  23395857.422
 -11011765.42847  -8535495.44445  22195669.5784                   22195671.1024
 -13734127.58647 -10653673.38845  22126698.8444                   22126697.6174
  -1670161.11446   -775855.15043  24871532.9304                   24871535.0004
 11  8 25  2 32  0.0000000  0  9G12G25G29G26G05G15G30G02G21
 -10863600.571 7  -8443157.317 7  22623370.891
 -14235062.967 8 -11077991.418 7  21920998.586
 -17530690.097 8 -13647473.070 7  21454853.078
 -12465663.83647  -9673294.77344  22509421.0164                   22509422.6094
 -20137364.160 8 -15667003.021 7  20924917.461
  -7128789.320 6  -5539221.020 6  23377436.781
 -10961429.21947  -8496272.45945  22205247.9144                   22205249.6374
 -13688401.27347 -10618042.51045  22135400.6884                   22135399.4884
  -1728471.45246   -821291.72243  24860437.0084                   24860439.7854
 11  8 25  2 32 30.0000000  0  9G12G25G29G26G05G15G30G02G21
 -10775540.047 7  -8374538.759 7  22640128.508
 -14191972.550 8 -11044414.501 7  21929198.227
 -17599953.724 8 -13701444.702 7  21441672.547
 -12548322.69447  -9737704.20345  22493691.6024                   22493693.9844
 -20080892.737 8 -15622999.317 7  20935663.773
  -7225525.959 7  -5614600.081 6  23359028.492
 -10910648.16147  -8456702.84445  22214911.9694                   22214913.8014
 -13642573.59047 -10582332.61645  22144121.5704                   22144119.9734
  -1786786.09846   -866731.67343  24849340.3444                   24849341.9614
 11  8 25  2 33  0.0000000  0  9G12G25G29G26G05G15G30G02G21
 -10687270.921 7  -8305757.648 7  22656925.008
 -14148411.648 8 -11010470.945 7  21937487.633
 -17668969.628 8 -13755223.293 7  21428538.961
 -12630657.81647  -9801861.36045  22478023.9384                   22478025.1414
 -20024045.366 8 -15578702.647 7  20946481.273
  -7322194.249 7  -5689925.865 6  23340632.547
 -10859424.16647  -8416788.05445  22224659.2344                   22224660.1134
 -13596643.35948 -10546542.83345  22152862.0084                   22152860.2544
  -1845104.18546   -912174.33543  24838242.2114                   24838244.8554
 11  8 25  2 33 30.0000000  0  9G12G25G29G26G05G15G30G02G21
 -10598797.986 7  -8236817.730 7  22673760.727
 -14104384.658 8 -10976164.204 7  21945865.375
 -17737737.562 8 -13808808.640 7  21415453.086
 -12712667.76647  -9865765.15445  22462417.8834                   22462418.9924
 -19966826.493 8 -15534116.493 7  20957369.742
  -7418792.986 7  -5765197.467 6  23322250.617
 -10807762.01947  -8376531.87445  22234490.3284                   22234491.2344
 -13550612.45648 -10510674.59145  22161621.2734                   22161619.6334
  -1903428.60346   -957621.94443  24827143.6724                   24827145.8794
 11  8 25  2 34  0.0000000  0  9G12G25G29G26G05G15G30G02G21
 -10510123.412 7  -8167720.705 7  22690635.445
 -14059892.574 8 -10941495.078 7  21954332.000
 -17806253.970 8 -13862198.006 7  21402414.508
 -12794347.40147  -9929411.54745  22446874.2974                   22446876.3984
 -19909236.821 8 -15489241.429 7  20968328.891
  -7515317.602 7  -5840411.310 6  23303882.453
 -10755663.07747  -8335935.31245  22244404.1334                   22244405.7194
 -13504479.30748 -10474726.69245  22170399.9064                   22170398.6214
  -1961758.72446  -1003073.96143  24816043.3674                   24816046.0784
 11  8 25  2 34 30.0000000  0  9G12G25G29G26G05G15G30G02G21
 -10421249.796 7  -8098468.569 7  22707546.938
 -14014937.349 8 -10906465.033 7  21962886.953
 -17874516.412 8 -13915389.496 7  21389424.828
 -12875692.91747  -9992797.61744  22431394.8204                   22431397.0634
 -19851278.741 8 -15444079.276 7  20979357.797
  -7611765.147 7  -5915565.108 6  23285529.180
 -10703129.71947  -8295000.26145  22254401.1564                   22254402.5984
 -13458243.36347 -10438698.68045  22179198.6954                   22179196.6254
  -2020094.25346  -1048530.21243  24804943.0084                   24804944.8914
 11  8 25  2 35  0.0000000  0  9G12G25G29G26G05G15G30G02G21
 -10332181.163 7  -8029064.474 7  22724496.914
 -13969521.852 8 -10871076.344 7  21971528.930
 -17942522.685 8 -13968381.370 7  21376483.852
 -12956701.13447 -10055920.84844  22415979.1804                   22415981.2114
 -19792955.075 8 -15398632.250 7  20990456.438
  -7708132.889 7  -5990656.725 6  23267190.836
 -10650165.17547  -8253729.22945  22264479.9774                   22264481.2664
 -13411904.77148 -10402590.67245  22188016.3914                   22188014.6484
  -2078436.38146  -1093991.53843  24793841.4694                   24793842.8524
 11  8 25  2 35 30.0000000  0  9G12G25G29G26G05G15G30G02G21
 -10242920.483 7  -7959510.736 6  22741482.438
 -13923648.558 8 -10835330.930 7  21980258.750
 -18010270.804 8 -14021172.089 7  21363591.586
 -13037368.46747 -10118778.44145  22400629.2974                   22400630.6374
 -19734268.311 8 -15352902.306 7  21001623.977
  -7804418.195 7  -6065684.104 6  23248867.828
 -10596772.39047  -8212124.46845  22274640.0084                   22274640.8324
 -13365463.64547 -10366402.80545  22196853.9614                   22196852.4184
  -2136785.80946  -1139458.62242  24782736.7664                   24782739.2234
 11  8 25  2 36  0.0000000  0  9G12G25G29G26G05G15G30G02G21
 -10153471.241 7  -7889810.078 7  22758504.023
 -13877320.251 8 -10799230.967 7  21989074.789
 -18077758.786 8 -14073760.097 7  21350749.016
 -13117691.85447 -10181368.02645  22385343.5004                   22385345.5984
 -19675221.338 8 -15306891.654 7  21012860.383
  -7900618.197 7  -6140645.019 6  23230561.789
 -10542954.58747  -8170188.55845  22284881.6484                   22284882.6414
 -13318920.01248 -10330135.03545  22205710.9924                   22205708.8834
  -2195143.34146  -1184931.97643  24771631.7894                   24771633.9614
 11  8 25  2 36 30.0000000  0  9G12G25G29G26G05G15G30G02G21
 -10063834.787 7  -7819963.512 6  22775560.906
 -13830537.761 8 -10762777.094 7  21997976.953
 -18144982.799 8 -14126142.421 7  21337956.766
 -13197666.09247 -10243685.56345  22370125.3364                   22370126.6414
 -19615814.917 8 -15260600.932 7  21024165.359
  -7996728.388 7  -6215535.952 6  23212272.586
 -10488712.91347  -8127922.34945  22295203.0784                   22295204.4454
 -13272272.26448 -10293786.14745  22214588.0004                   22214586.0314
  -2253507.94846  -1230410.85943  24760525.0394                   24760527.5984
 11  8 25  2 37  0.0000000  0  9G12G25G29G26G05G15G30G02G21
  -9974015.272 7  -7749974.312 6  22792653.875
 -13783304.471 8 -10725971.961 7  22006965.414
 -18211941.546 8 -14178318.030 7  21325214.758
 -13277288.59647 -10305729.00945  22354973.5234                   22354975.2704
 -19556052.699 8 -15214032.960 7  21035537.523
  -8092746.940 7  -6290355.488 6  23194001.289
 -10434051.15047  -8085328.80045  22305605.3134                   22305606.3594
 -13225521.09048 -10257356.65445  22223484.2664                   22223482.7544
  -2311881.02946  -1275896.29243  24749417.8524                   24749419.4804
 11  8 25  2 37 30.0000000  0  9G12G25G29G26G05G15G30G02G21
  -9884015.970 7  -7679845.011 6  22809779.859
 -13735622.944 8 -10688817.529 7  22016038.391
 -18278632.822 8 -14230285.234 7  21312523.992
 -13356555.89847 -10367495.67145  22339889.5164                   22339890.9264
 -19495937.090 8 -15167189.617 7  21046977.125
  -8188670.795 7  -6365101.236 6  23175747.422
 -10378972.23847  -8042410.19145  22316086.5004                   22316087.7544
 -13178666.42547 -10220846.52845  22232400.3204                   22232399.0044
  -2370263.34846  -1321388.94443  24738308.2114                   24738309.5594
 11  8 25  2 38  0.0000000  0  9G12G25G29G26G05G15G30G02G21
  -9793839.213 7  -7609577.448 6  22826940.141
 -13687494.685 8 -10651315.003 7  22025197.273
 -18345053.381 8 -14282041.492 7  21299884.609
 -13435463.39347 -10428981.96445  22324873.6414                   22324874.9654
 -19435469.382 8 -15120071.909 7  21058483.500
  -8284495.887 7  -6439769.994 6  23157511.930
 -10323478.13547  -7999168.07045  22326646.8134                   22326648.6564
 -13131706.96248 -10184254.75845  22241336.3834                   22241335.0514
  -2428654.37146  -1366888.37543  24727196.2734                   24727197.6994
 11  8 25  2 38 30.0000000  0  9G12G25G29G26G05G15G30G02G21
  -9703489.061 7  -7539174.769 6  22844132.523
 -13638923.254 8 -10613467.147 7  22034440.141
 -18411202.097 8 -14333585.937 7  21287296.977
 -13514008.60847 -10490185.95545  22309927.2974                   22309928.2034
 -19374653.373 8 -15072682.800 7  21070056.211
  -8380220.253 7  -6514360.276 6  23139296.227
 -10267572.77247  -7955605.46745  22337284.6954                   22337286.4454
 -13084643.69848 -10147582.08345  22250292.1254                   22250290.8204
  -2487055.85646  -1412395.95843  24716082.6254                   24716083.6954
 11  8 25  2 39  0.0000000  0  9G12G25G29G26G05G15G30G02G21
  -9612967.063 7  -7468638.153 7  22861358.141
 -13589909.402 8 -10575274.549 7  22043766.891
 -18477074.703 8 -14384915.237 7  21274761.625
 -13592186.35947 -10551103.61945  22295049.9384                   22295051.2584
 -19313490.111 8 -15025023.120 7  21081695.617
  -8475839.513 7  -6588868.661 6  23121101.094
 -10211257.25647  -7911723.27545  22348001.6254                   22348002.8324
 -13037474.76748 -10110827.08945  22259268.2194                   22259267.1334
  -2545466.36846  -1457910.55843  24704967.0084                   24704968.3954
 11  8 25  2 39 30.0000000  0  9G12G25G29G26G05G15G30G02G21
  -9522278.118 7  -7397971.491 6  22878616.352
 -13540457.749 8 -10536740.818 7  22053177.078
 -18542671.111 8 -14436029.299 7  21262278.922
 -13669995.27747 -10611733.87245  22280243.3674                   22280244.4844
 -19251983.699 8 -14977096.043 7  21093399.563
  -8571352.298 7  -6663294.059 6  23102924.805
 -10154536.52347  -7867525.32245  22358795.0864                   22358796.5784
 -12990201.62747 -10073990.87945  22268263.7894                   22268262.1334
  -2603888.64046  -1503434.29543  24693849.9454                   24693850.4884
 11  8 25  2 40  0.0000000  0  9G12G25G29G26G05G15G30G02G21
  -9431424.994 7  -7327176.874 7  22895904.656
 -13490570.120 8 -10497867.340 7  22062670.680
 -18607988.426 8 -14486925.885 7  21249849.211
 -13747430.73647 -10672073.13845  22265508.5394                   22265509.2074
 -19190136.110 8 -14928903.122 7  21105169.141
  -8666755.107 7  -6737633.791 6  23084770.367
 -10097412.86447  -7823013.40045  22369665.1174                   22369667.3054
 -12942823.77047 -10037073.07945  22277279.4534                   22277277.9414
  -2662322.54946  -1548967.10843  24682730.7274                   24682730.8834
 11  8 25  2 40 30.0000000  0  9G12G25G29G26G05G15G30G02G21
  -9340408.986 7  -7256255.343 6  22913224.438
 -13440247.354 8 -10458654.810 7  22072246.836
 -18673022.904 8 -14537602.082 7  21237473.867
 -13824487.82147 -10732117.54645  22250844.6024                   22250845.7814
 -19127947.995 8 -14880444.853 7  21117002.859
  -8762043.189 7  -6811884.124 6  23066637.008
 -10039887.43647  -7778188.41045  22380611.8284                   22380614.3914
 -12895339.02848 -10000071.98345  22286315.6414                   22286313.8754
  -2720766.85346  -1594508.03643  24671608.4384                   24671609.3834
 11  8 25  2 41  0.0000000  0  9G12G25G29G26G05G15G30G02G21
  -9249234.658 7  -7185210.464 6  22930574.961
 -13389493.294 8 -10419106.204 7  22081904.703
 -18737773.020 8 -14588056.699 7  21225152.391
 -13901164.25847 -10791865.36545  22236253.8754                   22236254.8164
 -19065422.970 8 -14831724.036 7  21128900.969
  -8857214.852 7  -6886043.738 7  23048526.391
  -9981964.52147  -7733053.71345  22391634.7114                   22391636.3954
 -12847748.49947  -9962988.47045  22295371.6954                   22295370.1094
  -2779223.27946  -1640058.43743  24660484.8054                   24660485.1724
 11  8 25  2 41 30.0000000  0  9G12G25G29G26G05G15G30G02G21
  -9157905.486 7  -7114044.912 7  22947953.852
 -13338311.094 8 -10379224.001 7  22091644.695
 -18802237.274 8 -14638288.580 7  21212885.563
 -13977457.13547 -10851314.29345  22221735.0864                   22221737.0704
 -19002564.265 8 -14782743.229 7  21140862.500
  -8952267.592 7  -6960110.662 6  23030438.297
  -9923647.56947  -7687611.94245  22402731.9384                   22402734.0084
 -12800052.71847  -9925822.92945  22304448.1954                   22304446.1844
  -2837692.91646  -1685619.05043  24649357.6334                   24649359.3524
 11  8 25  2 42  0.0000000  0  9G12G25G29G26G05G15G30G02G21
  -9066423.542 7  -7042760.335 7  22965362.148
 -13286702.463 8 -10339009.490 7  22101465.586
 -18866412.361 8 -14688295.114 7  21200672.734
 -14053361.99947 -10910460.89445  22207291.2974                   22207292.5084
 -18939373.687 8 -14733503.824 7  21152887.266
  -9047197.369 7  -7034081.812 6  23012374.141
  -9864938.72047  -7641864.81545  22413903.8674                   22413905.4494
 -12752250.37847  -9888574.36045  22313544.2894                   22313542.6094
  -2896175.49946  -1731189.81043  24638229.8524                   24638230.7624
 11  8 25  2 42 30.0000000  0 10G12G18G25G29G26G05G15G30G02G21
  -8974792.834 7  -6971359.842 6  22982799.367
   -173120.35215                  24687379.453
 -13234670.316 8 -10298464.972 7  22111366.914
 -18930296.501 8 -14738074.946 7  21188515.953
 -14128875.54647 -10969302.55045  22192921.2344                   22192922.9454
 -18875853.926 8 -14684007.908 7  21164974.641
  -9142001.756 7  -7107955.246 6  22994333.500
  -9805841.13447  -7595814.76845  22425149.7114                   22425151.5234
 -12704341.53547  -9851242.78245  22322661.5704                   22322659.3524
  -2954671.78546  -1776771.25443  24627097.5554                   24627099.0864
 11  8 25  2 43  0.0000000  0 10G12G18G25G29G26G05G15G30G02G21
  -8883021.949 7  -6899850.094 6  23000263.039
   -263161.061 5                  24670244.430
 -13182222.906 8 -10257596.882 7  22121347.313
 -18993892.798 8 -14787630.468 7  21176414.141
 -14204000.14147 -11027841.12945  22178625.6644                   22178627.7304
 -18812012.841 8 -14634261.599 7  21177123.258
  -9236682.826 7  -7181732.610 6  22976315.641
  -9746363.58047  -7549468.65545  22436468.2664                   22436470.0944
 -12656331.58347  -9813832.44745  22331797.1954                   22331795.5664
  -3013187.88146  -1822368.09643  24615962.8834                   24615964.3284
 11  8 25  2 43 30.0000000  0  9G12G25G29G26G05G15G30G02G21
  -8791095.719 7  -6828219.303 6  23017755.688
 -13129344.806 8 -10216393.193 7  22131409.750
 -19057180.776 8 -14836945.762 7  21164371.102
 -14278714.10947 -11086059.76645  22164407.9534                   22164409.3634
 -18747835.049 8 -14584252.932 7  21189336.063
  -9331219.868 7  -7255397.715 6  22958326.094
  -9686490.80447  -7502814.56745  22447861.2734                   22447863.1684
 -12608202.37747  -9776329.17445  22340955.9454                   22340954.7424
  -3071706.09946  -1867966.61143  24604826.9224                   24604828.4844
 11  8 25  2 44  0.0000000  0 10G12G18G25G29G26G05G15G30G02G21
  -8699044.596 7  -6756491.198 6  23035272.438
   -442751.46915                  24636070.602
 -13076066.143 8 -10174877.373 7  22141548.500
 -19120186.038 8 -14886040.748 7  21152381.266
 -14353041.69447 -11143977.30745  22150263.5474                   22150265.4064
 -18683350.523 8 -14534005.257 7  21201607.047
  -9425637.453 7  -7328969.783 6  22940358.977
  -9626253.35747  -7455876.32745  22459324.3204                   22459326.0044
 -12559981.22647  -9738754.27345  22350131.8834                   22350130.5474
  -3130254.17946  -1913588.41443  24593686.0634                   24593686.9304
 11  8 25  2 44 30.0000000  0 10G12G18G25G29G26G05G15G30G02G21
  -8606844.530 7  -6684647.038 6  23052817.906
   -532301.67315                  24619028.758
 -13022362.250 8 -10133030.190 7  22151767.406
 -19182878.993 8 -14934892.395 7  21140451.805
 -14426951.83047 -11201569.58545  22136199.4774                   22136200.5744
 -18618534.407 8 -14483499.188 7  21213940.930
  -9519904.946 7  -7402424.850 6  22922421.055
  -9565626.92647  -7408634.96345  22470861.1024                   22470862.9384
 -12511640.07547  -9701085.86545  22359331.3444                   22359329.7854
  -3188805.98946  -1959213.11643  24582543.4924                   24582544.9534
 11  8 25  2 45  0.0000000  0 10G12G18G25G29G26G05G15G30G02G21
  -8514512.108 7  -6612699.723 6  23070387.906
   -621690.016 5                  24602017.320
 -12968248.895 8 -10090863.961 7  22162065.266
 -19245270.214 7 -14983508.912 7  21128578.797
 -14500454.15647 -11258844.05145  22122211.6174                   22122213.6214
 -18553402.536 8 -14432747.095 7  21226335.141
  -9614032.507 7  -7475770.903 6  22904508.727
  -9504627.70347  -7361103.12445  22482468.9844                   22482470.7464
 -12463192.15947  -9663334.24645  22368550.5314                   22368548.8404
  -3247374.91046  -2004851.14543  24571398.2274                   24571399.5004
 11  8 25  2 45 30.0000000  0 10G12G18G25G29G26G05G15G30G02G21
  -8422049.774 7  -6540651.204 6  23087982.461
   -710914.497 6                  24585038.922
 -12913728.302 8 -10048380.393 7  22172440.359
 -19307356.771 7 -15031888.019 7  21116764.219
 -14573544.80147 -11315797.76245  22108303.3594                   22108304.0634
 -18487956.570 8 -14381750.233 7  21238789.336
  -9708016.742 7  -7549005.275 6  22886623.547
  -9443258.10647  -7313282.68345  22494147.3054                   22494148.8324
 -12414636.69847  -9625498.83645  22377790.2664                   22377788.5864
  -3305960.52146  -2050502.18843  24560249.4694                   24560250.5984
 11  8 25  2 46  0.0000000  0 10G12G18G25G29G26G05G15G30G02G21
  -8329459.759 7  -6468503.164 6  23105602.625
   -799973.54445    377209.36253  24568091.7504                   24568095.4964
 -12858802.530 8 -10005581.109 7  22182892.102
 -19369135.734 8 -15080027.449 7  21105008.211
 -14646219.70747 -11372427.49145  22094473.5704                   22094474.6214
 -18422198.459 8 -14330510.154 7  21251302.797
  -9801853.548 7  -7622124.777 6  22868766.914
  -9381520.53347  -7265175.51045  22505895.6024                   22505897.1564
 -12365972.35347  -9587578.57645  22387051.0004                   22387049.6254
  -3364562.84446  -2096166.20643  24549098.3204                   24549098.6214
 11  8 25  2 46 30.0000000  0 10G12G18G25G29G26G05G15G30G02G21
  -8236744.263 7  -6396257.357 6  23123245.883
   -888864.78646    307943.63442  24551176.4454                   24551180.5634
 -12803473.365 8  -9962467.481 7  22193420.945
 -19430604.308 8 -15127925.022 7  21093310.914
 -14718474.50047 -11428729.87545  22080724.0234                   22080725.5664
 -18356129.831 8 -14279028.114 7  21263875.188
  -9895539.262 7  -7695126.550 6  22850938.828
  -9319417.07247  -7216783.22745  22517713.3754                   22517714.8754
 -12317198.37847  -9549572.92145  22396332.1804                   22396330.9144
  -3423181.36346  -2141842.86143  24537942.8594                   24537943.9614
 11  8 25  2 47  0.0000000  0 10G12G18G25G29G26G05G15G30G02G21
  -8143907.529 7  -6323917.103 6  23140912.102
   -977588.05846    238808.81642  24534292.7194                   24534296.8244
 -12747744.528 7  -9919042.451 7  22204025.820
 -19491760.620 8 -15175579.267 7  21081673.148
 -14790306.88947 -11484703.11045  22067054.7974                   22067056.6884
 -18289754.202 8 -14227306.838 7  21276506.078
  -9989071.568 7  -7768008.758 7  22833140.008
  -9256951.91247  -7168109.08645  22529599.5864                   22529601.7934
 -12268315.54847  -9511482.40345  22405633.8054                   22405632.7934
  -3481817.64046  -2187533.36243  24526784.3914                   24526785.5984
 11  8 25  2 47 30.0000000  0 10G12G18G25G29G26G05G15G30G02G21
  -8050951.210 7  -6251483.629 6  23158600.711
  -1066140.98046    169806.73743  24517441.5554                   24517445.4964
 -12691617.346 8  -9875307.016 7  22214706.688
 -19552601.289 7 -15222987.556 7  21070095.719
 -14861711.88147 -11540343.30845  22053467.2734                   22053468.3364
 -18223072.602 8 -14175347.166 7  21289195.422
 -10082446.160 7  -7840768.077 7  22815372.352
  -9194126.58047  -7119154.32445  22541555.7814                   22541556.8754
 -12219321.79847  -9473305.48745  22414957.7504                   22414956.0084
  -3540470.88846  -2233237.03343  24515623.6954                   24515624.4574
 11  8 25  2 48  0.0000000  0 10G12G18G25G29G26G05G15G30G02G21
  -7957880.094 7  -6178960.746 6  23176311.727
  -1154523.90046    100937.15042  24500623.0474                   24500627.2304
 -12635096.147 8  -9831264.545 7  22225461.953
 -19613125.597 8 -15270149.313 7  21058578.422
 -14932687.96147 -11595649.31145  22039960.4614                   22039961.5274
 -18156089.042 8 -14123152.187 7  21301941.477
 -10175661.508 7  -7913403.309 6  22797633.289
  -9130945.84347  -7069922.58345  22553578.1334                   22553580.0204
 -12170218.88147  -9435043.48445  22424301.8754                   22424300.1294
  -3599142.91346  -2278955.38943  24504458.5394                   24504458.9534
 11  8 25  2 48 30.0000000  0 10G12G18G25G29G26G05G15G30G02G21
  -7864696.466 7  -6106350.158 6  23194043.922
  -1242734.79045     32201.54342  24483835.9534                   24483841.3874
 -12578182.834 8  -9786916.548 7  22236292.297
 -19673330.784 8 -15317062.404 7  21047121.531
 -15003230.56048 -11650617.52245  22026536.3834                   22026537.5044
 -18088805.363 8 -14070723.350 7  21314745.250
 -10268713.992 7  -7985911.635 7  22779926.344
  -9067411.77347  -7020415.54645  22565668.6024                   22565669.8524
 -12121005.46047  -9396695.38245  22433666.7504                   22433664.7154
  -3657833.37646  -2324688.06343  24493289.1564                   24493290.2704
 11  8 25  2 49  0.0000000  0 10G12G18G25G29G26G05G15G30G02G21
  -7771402.777 7  -6033653.814 6  23211797.477
  -1330771.88145    -36398.64142  24467082.6644                   24467088.5004
 -12520879.816 8  -9742264.870 7  22247197.203
 -19733213.859 8 -15363724.508 7  21035725.992
 -15073335.97147 -11705245.06045  22013195.8754                   22013197.2624
 -18021223.466 8 -14018062.133 7  21327605.977
 -10361599.847 7  -8058290.124 6  22762250.391
  -9003527.19747  -6970635.38045  22577825.3284                   22577826.7854
 -12071680.65847  -9358260.49045  22443053.0634                   22443051.2464
  -3716542.48046  -2370435.30343  24482117.6024                   24482117.9964
 11  8 25  2 49 30.0000000  0 10G12G18G25G29G26G05G15G30G02G21
  -7678003.499 7  -5960875.209 6  23229570.633
  -1418635.46245   -104863.53842  24450364.0634                   24450367.9964
 -12463190.954 7  -9697312.541 7  22258174.898
 -19792773.261 8 -15410134.402 7  21024392.289
 -15143002.03347 -11759530.25545  21999938.5634                   21999939.9774
 -17953347.011 8 -13965171.393 7  21340522.281
 -10454317.286 7  -8130537.407 7  22744606.328
  -8939296.23547  -6920585.28845  22590048.0474                   22590049.8714
 -12022245.28447  -9319739.42145  22452460.6804                   22452458.6094
  -3775271.51746  -2416198.08143  24470941.8364                   24470942.4454
 11  8 25  2 50  0.0000000  0 10G12G18G25G29G26G05G15G30G02G21
  -7584500.565 7  -5888015.850 6  23247363.461
  -1506323.05845   -173191.40942  24433676.8284                   24433682.2894
 -12405118.015 7  -9652060.949 7  22269225.820
 -19852005.630 8 -15456289.449 7  21013120.742
 -15212224.27947 -11813469.62545  21986766.2734                   21986767.1414
 -17885177.434 8 -13912052.235 7  21353494.188
 -10546862.092 7  -8202650.136 7  22726996.180
  -8874721.04147  -6870266.98445  22602336.6024                   22602338.7544
 -11972698.35247  -9281131.43145  22461888.6954                   22461887.0164
  -3834019.99646  -2461976.00343  24459762.1954                   24459763.1804
 11  8 25  2 50 30.0000000  0 10G12G18G25G29G26G05G15G30G02G21
  -7490897.477 7  -5815078.388 6  23265175.578
  -1593833.96746   -241381.51542  24417023.7194                   24417028.9264
 -12346664.346 7  -9606512.662 7  22280349.203
 -19910910.048 8 -15502188.972 7  21001911.680
 -15280999.97147 -11867061.01645  21973678.6484                   21973679.8554
 -17816717.731 8 -13858707.032 7  21366521.992
 -10639231.658 7  -8274626.342 7  22709418.664
  -8809805.07147  -6819683.13545  22614689.4614                   22614691.4224
 -11923039.79347  -9242436.45845  22471337.8984                   22471336.3914
  -3892789.03246  -2507769.97343  24448578.5864                   24448579.7974
 11  8 25  2 51  0.0000000  0 10G12G18G25G29G26G05G15G30G02G21
  -7397196.627 7  -5742064.774 6  23283005.867
  -1681166.38846   -309432.59842  24400404.9224                   24400409.6254
 -12287832.017 7  -9560669.325 7  22291544.211
 -19969483.014 7 -15547830.198 7  20990765.148
 -15349324.94447 -11920301.21745  21960676.8444                   21960677.8204
 -17747969.953 8 -13805137.331 7  21379604.078
 -10731421.966 7  -8346462.870 6  22691875.375
  -8744550.89547  -6768835.75444  22627106.4224                   22627108.6414
 -11873268.79947  -9203653.87145  22480808.9774                   22480808.1804
  -3951578.16846  -2553579.61443  24437392.0314                   24437392.6024
 11  8 25  2 51 30.0000000  0 10G12G18G25G29G26G05G15G30G02G21
  -7303401.013 7  -5668977.356 6  23300855.672
  -1768319.21946   -377343.75342  24383820.3444                   24383824.0314
 -12228623.786 7  -9514533.076 7  22302811.141
 -20027722.171 8 -15593211.316 7  20979683.023
 -15417195.89247 -11973187.62545  21947761.5634                   21947762.6054
 -17678936.188 8 -13751344.797 7  21392740.867
 -10823430.438 7  -8418157.714 6  22674366.945
  -8678961.47047  -6717727.11545  22639587.8754                   22639589.9384
 -11823384.76247  -9164783.18845  22490302.2424                   22490300.7854
  -4010387.70846  -2599405.12343  24426200.6644                   24426201.3094
 11  8 25  2 52  0.0000000  0 10G12G18G25G29G26G05G15G30G02G21
  -7209514.771 7  -5595819.276 6  23318720.781
  -1855292.68046   -445115.06142  24367269.2894                   24367272.8754
 -12169043.662 7  -9468107.075 7  22314148.891
 -20085626.182 8 -15638331.300 7  20968664.172
 -15484610.48947 -12025718.43445  21934933.1174                   21934933.9694
 -17609620.160 8 -13697332.308 7  21405931.336
 -10915254.941 7  -8489709.171 6  22656893.117
  -8613041.04547  -6666360.56245  22652132.1884                   22652134.3754
 -11773388.96747  -9125825.44645  22499815.4384                   22499814.4654
  -4069219.26246  -2645247.80743  24415005.2974                   24415007.2304
 11  8 25  2 52 30.0000000  0 10G12G18G25G29G26G05G15G30G02G21
  -7115539.845 7  -5522592.112 6  23336604.180
  -1942083.40746   -512744.02343  24350753.3914                   24350757.0234
 -12109092.805 7  -9421392.139 7  22325557.555
 -20143191.257 8 -15683187.173 7  20957710.047
 -15551563.97947 -12077889.94045  21922191.8754                   21922193.0514
 -17540022.728 8 -13643100.540 7  21419174.859
 -11006890.348 7  -8561113.321 6  22639455.180
  -8546791.24347  -6614737.37645  22664739.5004                   22664741.2034
 -11723279.02347  -9086778.73745  22509351.3914                   22509350.0354
  -4128071.90446  -2691106.97443  24403805.8674                   24403807.5164
 11  8 25  2 53  0.0000000  0 10G12G18G25G29G26G05G15G30G02G21
  -7021480.281 7  -5449298.971 6  23354502.820
  -2028692.15746   -580231.16743  24334272.2344                   24334275.8914
 -12048775.429 7  -9374391.621 7  22337035.539
 -20200416.375 8 -15727778.153 7  20946820.148
 -15618054.63847 -12129700.80445  21909539.1954                   21909540.0554
 -17470147.762 8 -13588652.537 7  21432472.156
 -11098335.315 7  -8632369.074 6  22622053.938
  -8480216.36447  -6562860.89445  22677408.6254                   22677410.1844
 -11673056.03547  -9047643.91945  22518908.5784                   22518907.6684
  -4186946.69446  -2736983.37743  24392602.5944                   24392603.5434
 11  8 25  2 53 30.0000000  0 10G12G18G25G29G26G05G15G30G02G21
  -6927337.322 7  -5375940.886 6  23372418.242
  -2115115.92246   -647574.15342  24317826.4844                   24317829.0704
 -11988092.585 7  -9327106.338 7  22348582.852
 -20257297.595 8 -15772101.144 7  20935995.977
 -15684076.86648 -12181146.64145  21896976.1414                   21896976.3324
 -17399995.722 8 -13533988.602 7  21445821.406
 -11189584.793 7  -8703472.491 7  22604690.102
  -8413317.90247  -6510732.23345  22690138.3054                   22690140.3524
 -11622717.70847  -9008419.25945  22528487.3914                   22528485.9734
  -4245842.95446  -2782876.53943  24381394.3834                   24381395.7154
 11  8 25  2 54  0.0000000  0 10G12G18G25G29G26G05G15G30G02G21
  -6833115.530 7  -5302521.327 6  23390347.648
  -2201355.07646   -714773.27943  24301415.5554                   24301417.9774
 -11927048.757 7  -9279539.761 7  22360199.367
 -20313834.330 8 -15816155.715 7  20925237.367
 -15749629.14048 -12232226.29845  21884501.7424                   21884502.6454
 -17329570.849 8 -13479112.085 7  21459222.664
 -11280637.366 7  -8774422.485 7  22587362.563
  -8346100.50847  -6458355.07245  22702929.2344                   22702931.9964
 -11572265.59347  -8969105.92445  22538088.4694                   22538086.6294
  -4304762.25946  -2828787.62843  24370182.6024                   24370183.7114
 11  8 25  2 54 30.0000000  0 10G12G18G25G29G26G05G15G30G02G21
  -6738817.858 7  -5229042.687 6  23408291.883
  -2287408.22346   -781827.46643  24285040.2034                   24285043.1724
 -11865646.759 7  -9231694.088 7  22371883.984
 -20370023.693 8 -15859939.603 7  20914544.828
 -15814708.34747 -12282937.33645  21872117.1484                   21872117.8794
 -17258875.675 8 -13424024.936 7  21472675.484
 -11371489.761 7  -8845216.482 7  22570074.188
  -8278567.27147  -6405731.82745  22715780.8364                   22715783.2424
 -11521699.26447  -8929703.60545  22547710.8594                   22547709.4774
  -4363705.25046  -2874717.21143  24358966.2584                   24358966.6334
 11  8 25  2 55  0.0000000  0 10G12G18G25G29G26G05G15G30G02G21
  -6644446.019 7  -5155506.224 6  23426250.195
  -2373273.43446   -848735.22243  24268700.1254                   24268703.3014
 -11803888.355 7  -9183570.667 7  22383635.961
 -20425862.975 8 -15903450.710 7  20903919.063
 -15879309.82948 -12333276.09945  21859824.0004                   21859824.5084
 -17187911.169 8 -13368727.904 7  21486179.430
 -11462138.007 7  -8915851.393 7  22552824.281
  -8210720.33747  -6352864.11745  22728691.3284                   22728694.1374
 -11471017.21647  -8890211.08945  22557355.2974                   22557353.9694
  -4422670.95946  -2920664.45943  24347745.0704                   24347745.2774
 11  8 25  2 55 30.0000000  0 10G12G18G25G29G26G05G15G30G02G21
  -6550003.955 7  -5081915.066 6  23444222.086
  -2458950.21446   -915496.13942  24252395.9694                   24252399.2114
 -11741776.834 7  -9135172.117 7  22395455.547
 -20481350.244 8 -15946687.528 7  20893360.078
 -15943431.30347 -12383240.86645  21847621.6564                   21847623.0594
 -17116680.585 8 -13313223.563 7  21499734.453
 -11552579.449 7  -8986325.175 7  22535614.023
  -8142563.17647  -6299754.65745  22741661.4774                   22741663.5984
 -11420219.50447  -8850628.47945  22567021.7734                   22567020.2934
  -4481660.10946  -2966630.01843  24336520.4534                   24336520.1414
 11  8 25  2 56  0.0000000  0 10G12G18G25G29G26G05G15G30G02G21
  -6455494.961 7  -5008271.773 6  23462206.984
  -2544437.40546   -982109.34243  24236128.0164                   24236130.6094
 -11679315.489 7  -9086500.968 7  22407341.297
 -20536483.315 8 -15989648.333 7  20882868.484
 -16007069.62047 -12432829.11545  21835512.5634                   21835512.7934
 -17045186.499 8 -13257513.900 7  21513339.438
 -11642811.051 7  -9056635.443 7  22518443.539
  -8074099.31047  -6246406.23345  22754689.6954                   22754692.0664
 -11369306.31047  -8810955.86645  22576710.6334                   22576708.8054
  -4540673.56046  -3012614.44843  24325289.9614                   24325291.0664
 11  8 25  2 56 30.0000000  0 10G12G18G25G29G26G05G15G30G02G21
  -6360921.257 7  -4934577.998 6  23480203.820
  -2629733.44546  -1048573.49843  24219896.5784                   24219899.7154
 -11616506.312 7  -9037558.763 7  22419293.883
 -20591259.025 8 -16032330.680 7  20872445.109
 -16070220.36947 -12482037.48145  21823494.5784                   21823495.3094
 -16973430.534 8 -13201600.153 7  21526994.344
 -11732828.952 7  -9126779.220 7  22501312.984
  -8005331.02547  -6192820.59945  22767776.0004                   22767778.6374
 -11318276.29347  -8771192.22845  22586420.4144                   22586419.3404
  -4599710.66646  -3058617.33443  24314055.4454                   24314056.3754
 11  8 25  2 57  0.0000000  0 10G12G18G25G29G26G05G15G30G02G21
  -6266287.103 7  -4860837.138 6  23498211.586
  -2714838.28846  -1114888.79843  24203702.0784                   24203704.0664
 -11553353.670 7  -8988348.946 7  22431311.250
 -20645676.903 8 -16074734.191 7  20862090.141
 -16132882.21647 -12530864.86345  21811570.3594                   21811571.0354
 -16901416.393 8 -13145485.239 7  21540697.852
 -11822631.542 7  -9196755.178 7  22484224.508
  -7936262.93447  -6139001.37444  22780919.2194                   22780921.5314
 -11267130.48047  -8731338.36145  22596153.9844                   22596152.4774
  -4658773.25446  -3104640.07743  24302816.1414                   24302817.4264
 11  8 25  2 57 30.0000000  0 10G12G18G25G29G26G05G15G30G02G21
  -6171594.579 7  -4787050.812 6  23516231.813
  -2799750.33246  -1181053.78143  24187543.7734                   24187546.4964
 -11489859.570 7  -8938873.048 7  22443393.898
 -20699733.554 8 -16116856.230 8  20851803.086
 -16195050.72247 -12579307.81645  21799740.3984                   21799740.7154
 -16829145.752 8 -13089170.456 7  21554450.453
 -11912214.774 7  -9266560.236 7  22467177.359
  -7866897.26447  -6084950.24344  22794118.8364                   22794121.4264
 -11215867.75347  -8691393.38445  22605908.5394                   22605907.3714
  -4717860.91546  -3150682.36243  24291571.6174                   24291573.4344
 11  8 25  2 58  0.0000000  0 10G12G18G25G29G26G05G15G30G02G21
  -6076847.270 7  -4713221.798 6  23534261.000
  -2884469.10346  -1247068.23043  24171421.9144                   24171424.2034
 -11426027.607 7  -8889133.869 7  22455540.695
 -20753427.100 8 -16158695.338 7  20841585.672
 -16256723.80147 -12627364.73445  21788004.2274                   21788004.9414
 -16756621.829 8 -13032658.317 7  21568251.844
 -12001576.297 7  -9336192.539 7  22450172.367
  -7797237.95847  -6030670.29144  22807374.9144                   22807376.5864
 -11164488.31447  -8651357.48945  22615685.1334                   22615684.2974
  -4776974.40446  -3196744.76543  24280323.3524                   24280324.1844
 11  8 25  2 58 30.0000000  0 10G12G18G25G29G26G05G15G30G02G21
  -5982047.066 7  -4639351.528 6  23552300.844
  -2968992.44246  -1312930.37243  24155337.8594                   24155340.3914
 -11361859.623 7  -8839132.861 7  22467752.109
 -20806754.373 8 -16200249.044 7  20831437.742
 -16317896.87647 -12675032.04845  21776363.4924                   21776364.0824
 -16683845.806 8 -12975949.731 7  21582100.289
 -12090711.785 7  -9405648.720 7  22433210.852
  -7727286.95447  -5976163.05744  22820685.8054                   22820688.0234
 -11112990.56447  -8611229.37945  22625485.8204                   22625484.2154
  -4836112.70546  -3242826.52143  24269070.0164                   24269070.3954
 11  8 25  2 59  0.0000000  0 10G12G18G25G29G26G05G15G30G02G21
  -5887197.216 7  -4565442.592 6  23570350.750
  -3053319.42946  -1378639.50943  24139291.1644                   24139292.8634
 -11297358.645 7  -8788872.370 7  22480025.305
 -20859713.308 8 -16241515.721 7  20821359.977
 -16378567.15747 -12722307.55045  21764817.7344                   21764818.9884
 -16610820.671 8 -12919047.025 7  21595996.797
 -12179618.326 7  -9474926.500 7  22416291.867
  -7657047.65147  -5921431.18844  22834051.9534                   22834054.4924
 -11061374.19047  -8571008.82945  22635308.2344                   22635306.4574
  -4895276.72446  -3288928.30543  24257810.6334                   24257811.7304
 11  8 25  2 59 30.0000000  0 10G12G18G25G29G26G05G15G30G02G21
  -5792302.048 7  -4491498.375 6  23588408.453
  -3137450.22746  -1444195.82143  24123281.1254                   24123282.5984
 -11232528.954 7  -8738355.746 7  22492362.547
 -20912302.965 8 -16282494.660 7  20811352.367
 -16438732.71347 -12769189.77645  21753368.7974                   21753370.0394
 -16537549.487 8 -12861952.603 7  21609939.570
 -12268294.056 7  -9544024.413 7  22399417.148
  -7586524.46147  -5866478.09344  22847472.0634                   22847474.3484
 -11009640.45447  -8530696.85545  22645152.8054                   22645150.9454
  -4954467.91146  -3335051.22643  24246546.9454                   24246548.2154
 11  8 25  3  0  0.0000000  0 10G12G18G25G29G26G05G15G30G02G21
  -5697363.254 6  -4417520.136 6  23606474.727
  -3221382.41846  -1509597.30643  24107308.7424                   24107311.1954
 -11167372.154 7  -8687584.205 7  22504761.461
 -20964519.783 8 -16323183.069 8  20801415.789
 -16498389.21847 -12815675.33845  21742016.5634                   21742017.1374
 -16464033.637 8 -12804667.518 7  21623928.570
 -12356734.678 7  -9612939.131 7  22382587.711
  -7515719.39847  -5811305.35744  22860945.9304                   22860948.0744
 -10957787.51847  -8490291.96645  22655019.5944                   22655018.4844
  -5013685.92946  -3381195.09443  24235278.7034                   24235279.1724
 11  8 25  3  0 30.0000000  0 10G12G18G25G29G26G05G15G30G02G21
  -5602383.522 6  -4343510.007 6  23624549.016
  -3305115.25647  -1574843.52043  24091375.2974                   24091377.1214
 -11101891.289 7  -8636560.175 7  22517221.820
 -21016361.203 8 -16363578.952 7  20791550.977
 -16557533.48248 -12861761.74245  21730762.1804                   21730762.6094
 -16390275.472 8 -12747193.637 7  21637964.523
 -12444936.938 7  -9681668.121 7  22365803.461
  -7444635.42747  -5755915.30544  22874472.5944                   22874475.1804
 -10905814.88947  -8449793.83844  22664910.0944                   22664908.4264
  -5072930.32046  -3427359.48843  24224004.3054                   24224005.7974
 11  8 25  3  1  0.0000000  0 10G12G18G25G29G26G05G15G30G02G21
  -5507366.149 7  -4269470.561 6  23642629.977
  -3388647.81046  -1639933.67243  24075479.4924                   24075480.4384
 -11036089.636 7  -8585286.194 7  22529743.641
 -21067825.497 8 -16403680.982 8  20781757.273
 -16616162.56647 -12907446.69745  21719604.7974                   21719606.2384
 -16316277.920 7 -12689533.203 7  21652046.109
 -12532898.294 7  -9750209.391 7  22349065.047
  -7373276.22946  -5700310.75444  22888052.3204                   22888054.3484
 -10853722.69447  -8409202.53545  22674821.9454                   22674820.8444
  -5132201.76246  -3473544.94143  24212725.6174                   24212726.5944
 11  8 25  3  1 30.0000000  0 10G12G18G25G29G26G05G15G30G02G21
  -5412313.922 6  -4195403.936 6  23660717.539
  -3471978.99946  -1704866.87943  24059621.2114                   24059623.5274
 -10969969.733 7  -8533764.183 7  22542326.023
 -21118910.175 8 -16443487.199 8  20772036.133
 -16674273.42847 -12952727.86945  21708547.3204                   21708547.4414
 -16242042.748 8 -12631687.630 7  21666172.516
 -12620614.783 7  -9818559.864 7  22332373.234
  -7301644.57847  -5644493.91544  22901683.2664                   22901685.5784
 -10801510.23247  -8368517.50145  22684758.5554                   22684757.0234
  -5191500.38047  -3519751.58444  24201440.5784                   24201442.5514
 11  8 25  3  2  0.0000000  0 10G12G18G25G29G26G05G15G30G02G21
  -5317229.974 6  -4121312.591 6  23678812.141
  -3555107.51446  -1769642.20943  24043801.8914                   24043805.0204
 -10903534.769 7  -8481996.707 7  22554967.875
 -21169613.167 8 -16482996.004 8  20762387.586
 -16731863.01047 -12997602.82645  21697587.6484                   21697588.6994
 -16167572.613 8 -12573658.950 7  21680343.508
 -12708083.963 7  -9886717.594 7  22315728.313
  -7229743.83047  -5588467.40244  22915365.5314                   22915367.3634
 -10749177.11347  -8327738.45645  22694717.4064                   22694715.4964
  -5250826.57546  -3565979.73644  24190152.1724                   24190153.0634
 11  8 25  3  2 30.0000000  0 10G12G18G25G29G26G05G15G30G02G21
  -5222118.341 6  -4047199.698 6  23696910.344
  -3638033.71246  -1834259.89643  24028021.7344                   24028024.8284
 -10836789.001 7  -8429987.028 7  22567669.234
 -21219933.356 8 -16522206.528 7  20752812.352
 -16788929.64947 -13042070.30145  21686728.2664                   21686729.4654
 -16092871.331 8 -12515450.156 7  21694558.859
 -12795303.895 7  -9954681.142 7  22299130.320
  -7157578.50047  -5532234.71844  22929098.0634                   22929100.1054
 -10696724.35947  -8286866.19644  22704698.4064                   22704697.0634
  -5310181.97746  -3612230.60443  24178856.8834                   24178857.7664
 11  8 25  3  3  0.0000000  0 10G12G18G25G29G26G05G15G30G02G21
  -5126978.736 7  -3973064.988 6  23715014.906
  -3720753.72746  -1898716.90243  24012280.5164                   24012282.7234
 -10769732.190 7  -8377735.005 7  22580429.594
 -21269865.126 8 -16561114.382 7  20743310.656
 -16845466.78547 -13086125.19345  21675970.3524                   21675970.3754
 -16017937.714 7 -12457060.332 7  21708817.844
 -12882268.194 7 -10022445.485 7  22282581.703
  -7085148.48646  -5475795.77744  22942881.9534                   22942883.1844
 -10644148.41547  -8245897.93844  22714702.7274                   22714701.3324
  -5369563.60547  -3658501.92543  24167556.5084                   24167557.5904
 11  8 25  3  3 30.0000000  0 10G12G18G25G29G26G05G15G30G02G21
  -5031817.220 6  -3898913.174 6  23733123.844
  -3803269.70946  -1963014.91243  23996578.8674                   23996581.0744
 -10702370.397 7  -8325245.271 7  22593248.359
 -21319410.003 8 -16599720.766 7  20733882.430
 -16901474.90247 -13129767.84345  21665311.9774                   21665312.2544
 -15942777.479 8 -12398493.928 7  21723120.836
 -12968976.833 7 -10090010.615 7  22266081.633
  -7012460.11747  -5419155.51544  22956713.2504                   22956715.3984
 -10591451.70447  -8204835.56944  22724730.7274                   22724729.4804
  -5428974.62247  -3704796.15843  24156251.4844                   24156252.2424
 11  8 25  3  4  0.0000000  0 10G12G18G25G29G26G05G15G30G02G21
  -4936635.978 7  -3824746.038 6  23751236.742
  -3885579.24546  -2027152.09443  23980915.3364                   23980917.1564
 -10634705.606 7  -8272519.489 7  22606124.063
 -21368564.207 8 -16638022.732 7  20724528.414
 -16956949.81547 -13172995.02145  21654755.2894                   21654755.9844
 -15867391.840 8 -12339751.869 7  21737466.469
 -13055425.686 7 -10157373.316 7  22249630.422
  -6939515.59347  -5362315.65344  22970594.2504                   22970596.3634
 -10538632.96447  -8163678.13844  22734781.6954                   22734780.4534
  -5488414.65647  -3751112.98144  24144940.6174                   24144940.8244
 11  8 25  3  4 30.0000000  0 10G12G18G25G29G26G05G15G30G02G21
  -4841437.775 7  -3750565.663 6  23769352.750
  -3967681.92446  -2091128.13143  23965291.3364                   23965293.3794
 -10566741.116 7  -8219560.145 7  22619058.086
 -21417325.721 8 -16676018.701 7  20715249.609
 -17011888.90047 -13215804.66345  21644300.6254                   21644301.6094
 -15791783.623 8 -12280836.383 7  21751854.008
 -13141612.330 7 -10224531.694 7  22233230.203
  -6866318.40247  -5305278.91244  22984523.5234                   22984524.7774
 -10485691.97347  -8122425.42744  22744856.0084                   22744855.3984
  -5547883.77647  -3797452.49744  24133623.5474                   24133624.0824
 11  8 25  3  5  0.0000000  0 10G12G18G25G29G26G05G15G30G02G21
  -4746225.142 7  -3676374.045 6  23787470.422
  -4049576.36246  -2154941.88743  23949707.8204                   23949709.5864
 -10498479.370 7  -8166369.179 7  22632047.180
 -21465692.231 8 -16713706.866 8  20706045.789
 -17066288.57247 -13258193.99545  21633949.0634                   21633949.9804
 -15715954.649 7 -12221748.864 7  21766283.883
 -13227532.480 7 -10291482.410 7  22216880.117
  -6792871.08247  -5248047.25344  22998500.1254                   22998501.0084
 -10432627.86747  -8081076.80144  22754954.0394                   22754953.0744
  -5607381.77047  -3843814.46543  24122301.5314                   24122302.2194
 11  8 25  3  5 30.0000000  0 10G12G18G25G29G26G05G15G30G02G21
  -4651002.760 7  -3602174.838 6  23805590.609
  -4131263.04746  -2218593.74543  23934163.0084                   23934164.8834
 -10429925.280 7  -8112950.439 7  22645093.070
 -21513663.282 8 -16751086.901 7  20696917.227
 -17120148.12948 -13300162.44045  21623699.4224                   21623700.4924
 -15639908.912 8 -12162492.451 7  21780754.648
 -13313185.409 7 -10358224.902 7  22200580.781
  -6719178.92547  -5190624.80244  23012522.9694                   23012524.3484
 -10379442.16747  -8039633.39644  22765075.2584                   22765074.1374
  -5666910.85346  -3890200.75643  24110973.5784                   24110973.8204
 11  8 25  3  6  0.0000000  0 10G12G18G25G29G26G05G15G30G02G21
  -4555771.579 7  -3527968.804 6  23823712.805
  -4212738.94146  -2282081.35743  23918658.2274                   23918660.5234
 -10361079.638 7  -8059304.506 7  22658193.719
 -21561234.122 8 -16788155.081 8  20687864.961
 -17173461.94847 -13341705.65945  21613554.7504                   21613554.4494
 -15563646.770 8 -12103067.407 7  21795266.961
 -13398565.468 7 -10424754.780 7  22184334.000
  -6645242.70747  -5133012.18744  23026592.5634                   23026594.5744
 -10326132.20247  -7998093.17944  22775219.6334                   22775218.2424
  -5726468.94947  -3936609.56543  24099639.7814                   24099640.3984
 11  8 25  3  6 30.0000000  0 10G12G18G25G29G26G05G15G30G02G21
  -4460533.974 6  -3453757.733 6  23841835.711
  -4294002.92046  -2345403.85343  23903194.8754                   23903196.3484
 -10291945.137 7  -8005433.506 7  22671349.961
 -21608402.559 8 -16824909.694 8  20678888.781
 -17226227.31647 -13382821.49745  21603513.6644                   21603513.7504
 -15487170.073 8 -12043475.168 7  21809819.828
 -13483669.393 7 -10491069.488 7  22168138.727
  -6571065.47347  -5075211.77144  23040708.4384                   23040709.9774
 -10272697.28147  -7956455.58644  22785388.5634                   22785386.2274
  -5786056.28247  -3983041.15743  24088301.1954                   24088300.7854
 11  8 25  3  7  0.0000000  0 10G12G18G25G29G26G05G15G30G02G21
  -4365294.611 6  -3379545.334 6  23859960.141
  -4375056.02147  -2408562.01643  23887771.2974                   23887772.9924
 -10222526.825 7  -7951341.319 7  22684559.695
 -21655168.420 8 -16861350.605 7  20669989.219
 -17278443.20848 -13423509.18945  21593577.1334                   21593577.5204
 -15410483.275 8 -11983719.240 7  21824413.328
 -13568496.174 7 -10557168.241 7  22151996.547
  -6496652.36447  -5017227.55544  23054868.2664                   23054870.5704
 -10219138.78947  -7914721.71744  22795580.0554                   22795578.0864
  -5845674.80947  -4029497.07944  24076955.4454                   24076955.8164
 11  8 25  3  7 30.0000000  0 10G12G18G25G29G26G05G15G30G02G21
  -4270055.208 6  -3305332.838 6  23878082.680
  -4455895.88646  -2471554.01343  23872387.5394                   23872389.1214
 -10152826.285 7  -7897029.226 7  22697823.016
 -21701527.733 8 -16897474.736 7  20661167.547
 -17330105.20247 -13463765.25845  21583746.1094                   21583746.8674
 -15333587.286 8 -11923800.288 7  21839045.867
 -13653041.162 7 -10623047.400 7  22135908.414
  -6422005.13447  -4959060.90844  23069073.5394                   23069075.1644
 -10165455.18347  -7872890.33544  22805795.7504                   22805794.5394
  -5905323.42447  -4075976.45943  24065604.3834                   24065604.8794
 11  8 25  3  8  0.0000000  0 10G12G18G25G29G26G05G15G30G02G21
  -4174818.383 7  -3231122.367 6  23896206.297
  -4536521.47647  -2534379.06443  23857045.2034                   23857046.3954
 -10082846.405 7  -7842499.485 7  22711140.016
 -21747478.637 8 -16933280.626 7  20652423.508
 -17381210.36347 -13503587.43845  21574020.7734                   21574021.8014
 -15256484.255 8 -11863719.989 7  21853718.172
 -13737301.182 7 -10688704.516 7  22119874.352
  -6347126.91747  -4900714.26044  23083321.8754                   23083323.8244
 -10111645.74847  -7830960.92344  22816035.9144                   22816033.6684
  -5965002.08347  -4122479.25243  24054248.5164                   24054248.6254
 11  8 25  3  8 30.0000000  0 10G12G18G25G29G26G05G15G30G02G21
  -4079587.802 6  -3156916.816 6  23914327.320
  -4616932.45047  -2597036.86643  23841743.0314                   23841744.4654
 -10012590.902 7  -7787754.979 7  22724508.977
 -21793019.354 8 -16968766.891 8  20643757.375
 -17431756.58248 -13542974.08645  21564403.1414                   21564403.6254
 -15179177.303 7 -11803480.807 7  21868429.531
 -13821274.058 7 -10754137.886 7  22103894.914
  -6272021.45447  -4842190.54144  23097613.8594                   23097616.1024
 -10057711.10847  -7788933.93944  22826298.8054                   22826297.3714
  -6024711.63947  -4169006.09644  24042885.6094                   24042886.0744
 11  8 25  3  9  0.0000000  0 10G12G18G25G29G26G05G15G30G02G21
  -3984366.250 6  -3082718.276 6  23932447.531
  -4697127.89247  -2659526.71843  23826482.1884                   23826483.8164
  -9942063.112 7  -7732798.278 7  22737930.492
 -21838148.340 8 -17003932.326 8  20635169.430
 -17481741.39048 -13581923.26845  21554890.6024                   21554891.4104
 -15101668.719 8 -11743084.507 7  21883178.188
 -13904956.720 7 -10819345.109 7  22087970.141
  -6196692.45647  -4783492.63944  23111948.6564                   23111951.7664
 -10003650.53447  -7746808.83044  22836586.3364                   22836584.8164
  -6084452.44047  -4215557.28444  24031517.1564                   24031517.1644
 11  8 25  3  9 30.0000000  0 10G12G18G25G29G26G05G15G30G02G21
  -3889155.996 7  -3008528.556 6  23950565.625
  -4777106.75846  -2721847.84543  23811262.8284                   23811263.9534
  -9871265.194 7  -7677631.084 7  22751402.469
 -21882862.178 8 -17038774.280 8  20626660.781
 -17531161.39748 -13620432.32845  21545486.3134                   21545487.1884
 -15023959.998 7 -11682532.256 7  21897965.859
 -13988345.287 7 -10884323.170 7  22072101.656
  -6121142.07547  -4724622.23644  23126325.7424                   23126328.1454
  -9949462.99347  -7704584.76344  22846897.2814                   22846896.1214
  -6144223.92947  -4262132.40044  24020143.3524                   24020142.8954
 11  8 25  3 10  0.0000000  0 10G12G18G25G29G26G05G15G30G02G21
  -3793960.494 6  -2934350.313 6  23968681.000
  -4856868.65347  -2783999.85343  23796084.8204                   23796085.4614
  -9800200.852 7  -7622256.293 7  22764926.063
 -21927159.027 8 -17073291.290 8  20618231.039
 -17580014.02748 -13658499.29545  21536189.8524                   21536190.4534
 -14946054.267 7 -11621826.499 7  21912791.008
 -14071437.551 7 -10949070.346 7  22056289.977
  -6045374.15647  -4665582.33444  23140744.1334                   23140746.1884
  -9895148.55547  -7662261.85444  22857233.6334                   22857231.7734
  -6204027.18147  -4308732.26744  24008762.8524                   24008763.5554
 11  8 25  3 10 30.0000000  0 10G12G18G25G29G26G05G15G30G02G21
  -3698783.127 7  -2860186.220 6  23986792.992
  -4936413.27346  -2845982.63243  23780947.3134                   23780947.7934
  -9728874.077 7  -7566677.022 7  22778498.617
 -21971038.620 8 -17107483.167 8  20609881.609
 -17628297.96648 -13696123.11645  21527001.5634                   21527002.8164
 -14867954.594 7 -11560969.614 7  21927652.734
 -14154231.137 7 -11013584.790 7  22040534.836
  -5969392.99446  -4606376.27044  23155202.8594                   23155204.8554
  -9840707.80447  -7619840.48844  22867592.7974                   22867591.4224
  -6263863.39447  -4355357.86644  23997376.0944                   23997376.7584
 11  8 25  3 11  0.0000000  0 10G12G18G25G29G26G05G15G30G02G21
  -3603625.334 6  -2786037.336 6  24004900.844
  -5015738.13746  -2907794.08943  23765852.7894                   23765852.7974
  -9657285.980 7  -7510894.118 7  22792121.570
 -22014496.661 8 -17141346.570 8  20601611.305
 -17676008.21147 -13733299.90845  21517922.7034                   21517923.6994
 -14789661.432 8 -11499961.953 7  21942551.789
 -14236721.093 7 -11077862.643 7  22024837.422
  -5893199.80947  -4547004.96544  23169701.9924                   23169704.4184
  -9786138.58747  -7577319.03045  22877977.5864                   22877975.8054
  -6323730.45947  -4402007.46544  23985984.2344                   23985985.1684
 11  8 25  3 11 30.0000000  0 10G12G18G25G29G26G05G15G30G02G21
  -3508491.232 6  -2711906.971 6  24023004.352
  -5094843.79246  -2969434.78243  23750799.4774                   23750800.1804
  -9585441.162 7  -7454911.181 7  22805793.047
 -22057532.445 8 -17174880.928 8  20593422.492
 -17723143.81248 -13770028.92245  21508953.2814                   21508954.2854
 -14711178.429 7 -11438806.360 7  21957486.656
 -14318905.776 7 -11141902.628 7  22009198.336
  -5816799.34247  -4487472.14944  23184240.7894                   23184242.6764
  -9731441.84647  -7534698.20044  22888385.7734                   22888384.1174
  -6383629.81547  -4448682.28644  23974586.1334                   23974586.4304
 11  8 25  3 12  0.0000000  0 10G12G18G25G29G26G05G15G30G02G21
  -3413382.179 7  -2637796.105 6  24041103.258
  -5173727.95346  -3030902.87543  23735787.8444                   23735788.7344
  -9513341.371 7  -7398729.530 7  22819513.039
 -22100142.547 8 -17208083.604 8  20585313.445
 -17769700.62247 -13806306.94845  21500093.7894                   21500094.6524
 -14632506.717 8 -11377503.729 7  21972456.898
 -14400780.978 7 -11205701.441 7  21993617.578
  -5740193.47047  -4427779.30344  23198818.0314                   23198820.3444
  -9676616.05047  -7491976.79044  22898818.3524                   22898817.3754
  -6443560.61247  -4495381.53743  23963181.0314                   23963182.1454
 11  8 25  3 12 30.0000000  0 10G12G18G25G29G26G05G15G30G02G21
  -3318302.126 7  -2563707.800 6  24059195.852
  -5252391.21046  -3092198.81343  23720818.1484                   23720819.9924
  -9440990.731 7  -7342352.464 7  22833280.609
 -22142325.674 8 -17240953.558 8  20577286.547
 -17815677.42247 -13842132.99245  21491344.6334                   21491345.3834
 -14553649.801 7 -11316056.788 7  21987463.172
 -14482344.802 8 -11269257.633 7  21978096.633
  -5663386.45146  -4367929.69144  23213433.6094                   23213435.8954
  -9621661.65547  -7449155.20244  22909275.8674                   22909274.2624
  -6503524.01147  -4542106.24143  23951770.1024                   23951771.4734
 11  8 25  3 13  0.0000000  0 10G12G18G25G29G26G05G15G30G02G21
  -3223253.181 7  -2489643.749 6  24077283.594
  -5330831.40447  -3153320.94843  23705891.5554                   23705893.1604
  -9368391.584 7  -7285781.724 7  22847096.531
 -22184079.173 8 -17273488.741 8  20569341.211
 -17861070.43747 -13877504.14045  21482706.9454                   21482707.6214
 -14474608.981 7 -11254466.551 7  22002504.086
 -14563593.382 7 -11332568.174 7  21962635.586
  -5586380.78547  -4307925.29244  23228087.2814                   23228090.3094
  -9566577.54247  -7406232.52344  22919758.3364                   22919757.0904
  -6563519.67447  -4588856.06444  23940353.4694                   23940354.4304
 11  8 25  3 13 30.0000000  0 10G12G18G25G29G26G05G15G30G02G21
  -3128238.672 7  -2415606.556 6  24095364.195
  -5409048.38446  -3214269.16943  23691006.8444                   23691008.5744
  -9295547.615 7  -7229020.230 7  22860957.898
 -22225401.653 8 -17305688.067 8  20561477.602
 -17905877.95147 -13912419.06745  21474179.9774                   21474180.4144
 -14395386.896 7 -11192735.070 7  22017579.930
 -14644524.581 7 -11395631.410 7  21947234.836
  -5509180.31246  -4247769.09844  23242778.0234                   23242780.5314
  -9511363.76247  -7363208.82644  22930264.8674                   22930263.2074
  -6623548.16047  -4635631.43744  23928930.8054                   23928931.0864
 11  8 25  3 14  0.0000000  0 10G12G18G25G29G26G05G15G30G02G21
  -3033261.402 7  -2341598.362 6  24113437.109
  -5487042.09446  -3275043.37843  23676165.8524                   23676166.4024
  -9222461.955 7  -7172070.393 7  22874865.773
 -22266290.949 8 -17337549.844 8  20553696.625
 -17950097.42848 -13946875.78245  21465765.3444                   21465766.1024
 -14315986.101 7 -11130864.322 7  22032689.070
 -14725134.859 8 -11458444.571 7  21931895.336
  -5431788.24247  -4187463.61344  23257506.2344                   23257507.7274
  -9456020.05947  -7320083.88144  22940796.6174                   22940795.6214
  -6683609.74947  -4682432.64543  23917501.0784                   23917501.0744
 11  8 25  3 14 30.0000000  0 10G12G18G25G29G26G05G15G30G02G21
  -2938323.745 7  -2267621.058 6  24131503.789
  -5564810.90946  -3335642.33343  23661366.7114                   23661368.4414
  -9149137.239 7  -7114934.272 7  22888818.984
 -22306744.831 8 -17369072.324 8  20545998.891
 -17993725.86547 -13980871.93645  21457463.1644                   21457463.8484
 -14236408.435 7 -11068855.757 7  22047832.195
 -14805421.113 8 -11521005.254 7  21916617.273
  -5354207.38246  -4127011.03644  23272269.0084                   23272271.2974
  -9400545.65747  -7276857.10144  22951353.5084                   22951351.9844
  -6743703.76447  -4729259.09444  23906065.7894                   23906066.0744
 11  8 25  3 15  0.0000000  0 10G12G18G25G29G26G05G15G30G02G21
  -2843428.053 7  -2193676.422 6  24149561.781
  -5642353.47047  -3396064.99843  23646610.3984                   23646612.2034
  -9075576.202 7  -7057614.019 7  22902817.469
 -22346760.427 8 -17400253.305 8  20538384.102
 -18036760.35048 -14014405.28045  21449273.6414                   21449274.4184
 -14156655.549 7 -11006710.659 7  22063008.820
 -14885380.073 7 -11583310.908 7  21901401.336
  -5276440.60746  -4066413.57444  23287068.0234                   23287070.0314
  -9344939.74047  -7233527.80644  22961935.1174                   22961933.1134
  -6803830.04947  -4776110.68743  23894624.4844                   23894623.8674
 11  8 25  3 15 30.0000000  0 10G12G18G25G29G26G05G15G30G02G21
  -2748579.466 6  -2119768.564 6  24167611.383
  -5719671.22047  -3456312.50943  23631897.3674                   23631899.3594
  -9001784.243 7  -7000113.828 7  22916859.438
 -22386338.521 8 -17431093.357 8  20530852.477
 -18079200.87947 -14047475.78945  21441197.7504                   21441198.0704
 -14076732.076 7 -10944432.626 7  22078217.422
 -14965011.092 8 -11645361.018 7  21886248.859
  -5198493.36947  -4005675.47644  23301900.3134                   23301902.1994
  -9289204.32347  -7190097.61744  22972540.6804                   22972538.9384
  -6863991.30247  -4822989.56444  23883175.3134                   23883175.8404
 11  8 25  3 16  0.0000000  0 10G12G18G25G29G26G05G15G30G02G21
  -2653776.766 6  -2045896.404 6  24185651.328
  -5796760.33647  -3516381.81944  23617227.6334                   23617229.6054
  -8927760.640 7  -6942433.130 7  22930945.602
 -22425472.986 8 -17461587.731 8  20523405.383
 -18121041.05547 -14080078.49845  21433236.0084                   21433236.6764
 -13996636.743 7 -10882020.696 7  22093459.164
 -15044306.993 8 -11707149.993 7  21871158.953
  -5120365.20147  -3944796.41744  23316767.6414                   23316769.1414
  -9233334.96947  -7146563.07344  22983172.3674                   22983171.3714
  -6924183.68547  -4869892.66044  23871721.7734                   23871721.7274
 11  8 25  3 16 30.0000000  0 10G12G18G25G29G26G05G15G30G02G21
  -2559025.878 7  -1972064.629 6  24203682.383
  -5873622.35447  -3576274.22244  23602601.3834                   23602603.2234
  -8853511.355 7  -6884576.587 7  22945075.047
 -22464164.873 8 -17491737.231 8  20516042.539
 -18162281.43448 -14112213.82345  21425387.8524                   21425388.4304
 -13916374.336 7 -10819478.581 7  22108732.711
 -15123267.759 8 -11768677.822 7  21856133.094
  -5042062.03946  -3883780.98144  23331667.9614                   23331669.1134
  -9177334.27847  -7102926.18544  22993829.1174                   22993828.0864
  -6984410.08847  -4916822.28144  23860260.8594                   23860261.2504
 11  8 25  3 17  0.0000000  0 10G12G18G25G29G26G05G15G30G02G21
  -2464329.562 6  -1898275.393 6  24221701.961
  -5950256.52047  -3635989.03344  23588018.5084                   23588020.0864
  -8779039.880 7  -6826546.902 7  22959246.938
 -22502412.470 8 -17521540.527 8  20508764.117
 -18202919.73148 -14143879.99945  21417654.7274                   21417655.6994
 -13835947.463 7 -10756808.307 7  22124037.398
 -15201891.157 8 -11829942.780 7  21841171.391
  -4963587.50346  -3822632.00644  23346601.1724                   23346603.1374
  -9121201.76847  -7059186.59544  23004509.8284                   23004509.4064
  -7044671.00747  -4963778.81144  23848792.8204                   23848793.1804
 11  8 25  3 17 30.0000000  0 10G12G18G25G29G26G05G15G30G02G21
  -2369689.048 6  -1824529.651 6  24239712.242
  -6026661.21147  -3695525.08344  23573479.3284                   23573480.3794
  -8704347.633 7  -6768345.194 7  22973459.820
 -22540212.471 8 -17550995.043 8  20501571.203
 -18242952.27648 -14175074.15445  21410036.7194                   21410037.4264
 -13755356.774 7 -10694010.372 7  22139373.188
 -15280172.255 8 -11890941.010 7  21826275.297
  -4884943.18246  -3761350.74244  23361566.5394                   23361568.7384
  -9064935.93847  -7015343.12444  23015217.7424                   23015216.7774
  -7104964.89047  -5010760.98344  23837320.2894                   23837320.4494
 11  8 25  3 18  0.0000000  0 10G12G18G25G29G26G05G15G30G02G21
  -2275108.025 6  -1750830.236 6  24257710.109
  -6102836.44446  -3754882.29143  23558983.7974                   23558984.6054
  -8629438.874 7  -6709974.762 7  22987714.266
 -22577563.624 8 -17580099.819 8  20494463.313
 -18282377.71347 -14205795.25145  21402534.0164                   21402535.0554
 -13674605.464 7 -10631087.275 7  22154739.406
 -15358109.274 7 -11951671.123 7  21811443.945
  -4806133.43947  -3699940.61144  23376563.6334                   23376565.6454
  -9008537.08947  -6971395.98644  23025949.3914                   23025948.9454
  -7165292.88947  -5057769.76944  23825839.4144                   23825839.4694
 11  8 25  3 18 30.0000000  0 10G12G18G25G29G26G05G15G30G02G21
  -2180588.297 6  -1677178.585 6  24275696.727
  -6178780.38547  -3814059.32544  23544531.9534                   23544532.5474
  -8554315.464 7  -6651437.086 7  23002009.984
 -22614462.835 8 -17608852.426 8  20487441.477
 -18321192.26648 -14236040.33045  21395148.3204                   21395148.9344
 -13593694.893 7 -10568040.077 7  22170136.531
 -15435698.115 8 -12012129.940 7  21796679.289
  -4727160.24146  -3638403.09344  23391591.9534                   23391593.9304
  -8952003.89247  -6927344.15244  23036708.1804                   23036706.6134
  -7225654.25547  -5104804.55144  23814352.9534                   23814353.6564
 11  8 25  3 19  0.0000000  0 10G12G18G25G29G26G05G15G30G02G21
  -2086132.464 7  -1603576.730 6  24293671.211
  -6254492.13346  -3873055.38644  23530123.7194                   23530126.2194
  -8478980.522 7  -6592734.579 6  23016345.859
 -22650908.070 8 -17637251.289 8  20480506.086
 -18359393.83348 -14265807.76745  21387878.7194                   21387878.8914
 -13512626.935 7 -10504870.236 7  22185563.094
 -15512935.760 7 -12072315.073 7  21781981.055
  -4648026.69146  -3576740.60043  23406650.7424                   23406652.6994
  -8895335.70747  -6883187.13544  23047491.6484                   23047490.4024
  -7286048.52147  -5151864.96444  23802860.3524                   23802860.6684
 11  8 25  3 19 30.0000000  0 10G12G18G25G29G26G05G15G30G02G21
  -1991744.856 6  -1530028.025 6  24311633.016
  -6329972.92046  -3931871.49043  23515760.6564                   23515761.7384
  -8403438.891 7  -6533870.989 7  23030720.969
 -22686899.148 8 -17665296.256 8  20473657.641
 -18396982.21948 -14295097.39545  21380725.6564                   21380726.9064
 -13431405.250 7 -10441580.617 7  22201019.617
 -15589820.893 7 -12132225.538 7  21767350.383
  -4568737.86446  -3514957.12944  23421738.8364                   23421740.4694
  -8838534.07647  -6838926.13644  23058301.0864                   23058299.6134
  -7346477.65247  -5198952.52544  23791360.5864                   23791361.5124
 11  8 25  3 20  0.0000000  0 10G12G18G25G29G26G05G15G30G02G21
  -1897427.092 7  -1456533.746 6  24329580.750
  -6405220.56847  -3990506.00544  23501441.2034                   23501442.9344
  -8327692.263 7  -6474847.695 7  23045134.852
 -22722432.785 8 -17692984.788 8  20466895.531
 -18433953.17148 -14323905.89345  21373690.6884                   21373691.3444
 -13350030.675 7 -10378171.866 7  22216504.383
 -15666349.470 7 -12191858.152 7  21752787.633
  -4489295.45446  -3453053.95144  23436856.2114                   23436858.1374
  -8781597.04947  -6794559.62344  23069135.4144                   23069133.8484
  -7406940.33247  -5246066.22843  23779855.5864                   23779855.9264
 11  8 25  3 20 30.0000000  0 10G12G18G25G29G26G05G15G30G02G21
  -1803182.061 7  -1383096.134 6  24347515.188
  -6480235.20147  -4048958.83043  23487165.4614                   23487167.7624
  -8251744.665 7  -6415667.783 6  23059586.977
 -22757507.911 8 -17720316.036 8  20460220.695
 -18470305.57248 -14352232.41345  21366772.9774                   21366773.5784
 -13268506.606 7 -10314646.631 7  22232017.711
 -15742519.306 8 -12251211.236 7  21738293.148
  -4409703.66846  -3391034.42844  23452002.1954                   23452004.1844
  -8724525.07846  -6750087.96744  23079995.6804                   23079994.1334
  -7467437.43147  -5293206.76944  23768343.2734                   23768342.9304
 11  8 25  3 21  0.0000000  0 10G12G18G25G29G26G05G15G30G02G21
  -1709011.975 7  -1309716.938 6  24365435.523
  -6555015.69747  -4107229.29043  23472936.0084                   23472936.8954
  -8175598.439 7  -6356333.110 6  23074077.813
 -22792122.193 8 -17747288.183 8  20453634.336
 -18506036.53348 -14380074.71745  21359973.5234                   21359973.7624
 -13186834.380 7 -10251005.916 7  22247559.797
 -15818326.491 8 -12310281.732 7  21723867.266
  -4329964.92147  -3328900.38644  23467176.0864                   23467178.6604
  -8667317.17247  -6705510.40644  23090882.4454                   23090880.6524
  -7527968.34147  -5340373.65944  23756824.5394                   23756824.5744
 11  8 25  3 21 30.0000000  0 10G12G18G25G29G26G05G15G30G02G21
  -1614919.952 6  -1236398.564 6  24383341.164
  -6629561.43847  -4165316.76944  23458750.7194                   23458751.2274
  -8099256.962 7  -6296846.268 6  23088604.938
 -22826273.546 8 -17773899.606 8  20447135.266
 -18541144.11548 -14407431.24245  21353293.0084                   21353293.1334
 -13105016.280 7 -10187251.563 7  22263129.109
 -15893768.976 8 -12369068.052 7  21709511.305
  -4250082.60447  -3266654.46344  23482376.9534                   23482378.9024
  -8609973.12446  -6660826.74144  23101794.4844                   23101793.3914
  -7588533.38347  -5387567.10543  23745299.2584                   23745298.6884
 11  8 25  3 22  0.0000000  0 10G12G18G25G29G26G05G15G30G02G21
  -1520908.233 7  -1163142.769 6  24401229.922
  -6703871.48847  -4223220.66243  23444608.9844                   23444610.3834
  -8022723.055 7  -6237209.498 6  23103169.039
 -22859960.188 8 -17800148.919 8  20440725.031
 -18575625.94648 -14434300.17345  21346731.0944                   21346731.4654
 -13023054.177 7 -10123385.003 7  22278726.039
 -15968843.213 8 -12427567.429 7  21695224.914
  -4170059.73347  -3204299.00144  23497604.6414                   23497606.8444
  -8552492.17747  -6616036.40344  23112732.7274                   23112730.7974
  -7649132.30847  -5434786.99643  23733767.6174                   23733767.3634
 11  8 25  3 22 30.0000000  0 10G12G18G25G29G26G05G15G30G02G21
  -1426980.199 6  -1089952.158 6  24419103.398
  -6777945.87847  -4280940.85243  23430513.5474                   23430514.8524
  -7946000.573 7  -6177425.790 7  23117769.086
 -22893180.698 8 -17826035.020 8  20434403.234
 -18609480.68147 -14460680.47545  21340288.8834                   21340289.2624
 -12940950.822 7 -10059408.372 7  22294349.773
 -16043547.004 8 -12485778.121 7  21681009.125
  -4089900.14747  -3141837.02744  23512858.2274                   23512860.7344
  -8494874.59647  -6571139.59744  23123697.1804                   23123696.0124
  -7709765.83946  -5482033.85344  23722229.2194                   23722229.2154
 11  8 25  3 23  0.0000000  0 10G12G18G25G29G26G05G15G30G02G21
  -1333138.274 6  -1016828.648 6  24436961.195
  -6851783.48847  -4338476.55644  23416462.6884                   23416463.7664
  -7869092.061 7  -6117497.108 7  23132404.063
 -22925932.904 8 -17851556.218 8  20428170.859
 -18642705.53747 -14486569.94945  21333965.8754                   21333966.4224
 -12858708.084 8  -9995323.131 7  22310000.102
 -16117876.999 8 -12543697.560 7  21666864.820
  -4009606.47946  -3079270.57744  23528138.2974                   23528140.1884
  -8437119.69047  -6526135.81544  23134687.0864                   23134686.1294
  -7770433.38846  -5529307.21144  23710684.5554                   23710684.7344
 11  8 25  3 23 30.0000000  0 10G12G18G25G29G26G05G15G30G02G21
  -1239384.535 6   -943773.906 6  24454802.016
  -6925383.59147  -4395827.20344  23402457.2814                   23402458.0234
  -7792000.554 7  -6057425.855 7  23147073.945
 -22958214.726 8 -17876710.867 8  20422027.398
 -18675298.46947 -14511967.01445  21327763.8834                   21327764.1414
 -12776327.908 8  -9931130.777 7  22325676.469
 -16191830.388 8 -12601323.554 7  21652791.672
  -3929181.82547  -3016602.07144  23543442.7034                   23543444.5394
  -8379226.84847  -6481024.54344  23145703.8204                   23145703.5204
  -7831134.64547  -5576606.82744  23699133.3204                   23699133.6094
 11  8 25  3 24  0.0000000  0 10G12G18G25G29G26G05G15G30G02G21
  -1145721.793 6   -870790.029 6  24472625.898
  -6998745.65747  -4452992.38643  23388496.3204                   23388497.4924
  -7714729.257 7  -5997214.476 7  23161778.250
 -22990024.332 8 -17901497.566 8  20415974.531
 -18707257.38848 -14536870.05145  21321682.3524                   21321682.7384
 -12693812.291 7  -9866832.908 7  22341378.438
 -16265404.106 8 -12658653.689 7  21638791.500
  -3848629.52446  -2953834.07943  23558770.6884                   23558773.4734
  -8321195.44547  -6435805.27744  23156747.3754                   23156745.7504
  -7891869.71647  -5623932.80344  23687576.2424                   23687576.5354
 11  8 25  3 24 30.0000000  0 10G12G18G25G29G26G05G15G30G02G21
  -1052153.665 6   -797879.891 5  24490431.578
  -7071870.11447  -4509972.36844  23374581.1024                   23374582.3204
  -7637282.306 7  -5936866.253 7  23176516.328
 -23021360.901 8 -17925915.672 8  20410011.289
 -18738581.73348 -14561278.60945  21315721.4144                   21315721.9774
 -12611164.634 7  -9802432.135 7  22357106.023
 -16338596.563 8 -12715686.761 7  21624863.461
  -3767953.69346  -2890969.87444  23574123.7114                   23574125.9064
  -8263026.49847  -6390478.86244  23167815.9144                   23167814.5354
  -7952640.03247  -5671286.22244  23676011.9304                   23676012.1524
 11  8 25  3 25  0.0000000  0 10G12G18G25G29G26G05G15G30G02G21
   -958680.996 6   -725044.138 6  24508218.750
  -7144754.18847  -4566765.14044  23360712.7894                   23360713.1804
  -7559660.956 7  -5876382.114 7  23191286.727
 -23052221.353 8 -17949962.773 8  20404138.953
 -18769267.29947 -14585189.42045  21309882.1174                   21309882.5904
 -12528384.885 7  -9737928.458 7  22372858.523
 -16411403.124 8 -12772419.113 7  21611008.477
  -3687155.71247  -2828010.45244  23589498.6724                   23589501.3874
  -8204717.63446  -6345043.40144  23178911.2424                   23178910.7034
  -8013443.58447  -5718665.54344  23664441.7194                   23664441.2624
 11  8 25  3 25 30.0000000  0 10G12G18G25G29G26G05G15G30G02G21
   -865308.607 6   -652286.483 6  24525986.891
  -7217400.23847  -4623372.40044  23346888.1094                   23346888.9064
  -7481870.512 7  -5815766.214 7  23206089.930
 -23082605.932 8 -17973639.068 8  20398357.156
 -18799314.41647 -14608602.73745  21304164.0234                   21304164.8404
 -12445477.495 7  -9673325.296 7  22388635.063
 -16483823.070 8 -12828850.202 7  21597227.203
  -3606240.92546  -2764960.01544  23604896.4384                   23604898.9494
  -8146270.70246  -6299500.36344  23190034.8524                   23190032.7544
  -8074282.40747  -5766072.34544  23652863.9694                   23652863.9734
 11  8 25  3 26  0.0000000  0 10G12G18G25G29G26G05G15G30G02G21
   -772037.258 6   -579607.648 6  24543736.039
  -7289805.61347  -4679792.08844  23333109.6414                   23333110.5904
  -7403912.366 7  -5755019.602 7  23220924.859
 -23112510.495 8 -17996941.316 8  20392665.789
 -18828719.51447 -14631515.77345  21298568.4924                   21298569.4414
 -12362442.884 7  -9608623.012 7  22404436.227
 -16555851.769 8 -12884976.431 7  21583520.742
  -3525210.73846  -2701819.65344  23620315.8364                   23620318.2664
  -8087683.46247  -6253847.99944  23201182.9224                   23201181.9064
  -8135154.55247  -5813505.12944  23641280.3674                   23641280.3364
 11  8 25  3 26 30.0000000  0 10G12G18G25G29G26G05G15G30G02G21
   -678870.533 6   -507010.306 6  24561465.164
  -7361970.54947  -4736024.46344  23319377.4384                   23319378.2344
  -7325790.624 7  -5694145.543 6  23235791.313
 -23141935.109 8 -18019869.594 8  20387067.086
 -18857481.75147 -14653927.90245  21293095.0004                   21293096.1174
 -12279283.879 7  -9543823.796 7  22420260.758
 -16627487.493 8 -12940796.454 7  21569889.063
  -3444069.40347  -2638592.70443  23635756.7274                   23635758.4654
  -8028956.56046  -6208086.79244  23212358.5394                   23212356.9774
  -8196061.15446  -5860964.75744  23629689.9534                   23629689.6844
 11  8 25  3 27  0.0000000  0 10G12G18G25G29G26G05G15G30G02G21
   -585810.170 6   -434495.796 6  24579174.438
  -7433893.57947  -4792068.29844  23305690.1644                   23305691.5314
  -7247507.395 7  -5633145.672 7  23250688.109
 -23170876.665 8 -18042421.454 8  20381559.250
 -18885598.35448 -14675836.93045  21287745.2974                   21287745.6994
 -12196001.627 7  -9478928.552 7  22436108.820
 -16698726.529 8 -12996307.356 7  21556332.336
  -3362818.94246  -2575280.68644  23651218.0634                   23651220.0594
  -7970088.62446  -6162215.68844  23223560.3524                   23223559.1454
  -8257001.52647  -5908450.68644  23618093.1644                   23618094.0514
 11  8 25  3 27 30.0000000  0 10G12G18G25G29G26G05G15G30G02G21
   -492859.775 6   -362067.058 6  24596861.953
  -7505575.38247  -4847924.19443  23292049.7424                   23292050.6484
  -7169067.057 7  -5572023.354 6  23265614.867
 -23199334.656 8 -18064596.518 8  20376144.016
 -18913068.67048 -14697242.34845  21282517.4844                   21282518.0474
 -12112599.422 7  -9413939.829 7  22451979.711
 -16769567.224 8 -13051507.872 7  21542851.867
  -3281463.90246  -2511887.20443  23666699.8134                   23666701.4264
  -7911080.09146  -6116235.05044  23234788.9774                   23234788.6604
  -8317976.66247  -5955963.70444  23606490.0634                   23606490.5274
 11  8 25  3 28  0.0000000  0 10G12G18G25G29G26G05G15G30G02G21
   -400020.348 6   -289724.754 6  24614528.961
  -7577013.79347  -4903590.44444  23278455.4924                   23278456.6024
  -7090470.870 7  -5510779.574 7  23280571.438
 -23227305.435 8 -18086391.935 8  20370821.133
 -18939888.84748 -14718141.18145  21277413.8834                   21277414.1994
 -12029077.531 7  -9348857.843 7  22467873.211
 -16840005.026 8 -13106394.437 7  21529448.125
  -3200005.50646  -2448413.15943  23682199.9454                   23682202.5434
  -7851929.32446  -6070143.58044  23246045.0004                   23246044.6524
  -8378984.37947  -6003502.14744  23594880.0864                   23594881.0634
 11  8 25  3 28 30.0000000  0 10G12G18G25G29G26G05G15G30G02G21
   -307296.369 6   -217472.375 6  24632173.594
  -7648210.26847  -4959068.18644  23264906.9844                   23264908.4414
  -7011724.087 7  -5449418.467 6  23295556.305
 -23254789.679 8 -18107808.230 8  20365591.297
 -18966059.53648 -14738533.90645  21272433.5704                   21272434.3284
 -11945440.283 7  -9283685.976 6  22483789.406
 -16910039.485 8 -13160966.723 7  21516121.008
  -3118449.09446  -2384862.76044  23697719.8204                   23697722.5824
  -7792638.07646  -6023942.64044  23257328.6804                   23257327.3984
  -8440026.95247  -6051067.74344  23583265.0234                   23583265.3954
 11  8 25  3 29  0.0000000  0 10G12G18G25G29G26G05G15G30G02G21
   -214689.939 6   -145311.610 6  24649796.016
  -7719163.59347  -5014356.43344  23251405.3364                   23251406.4734
  -6932829.352 7  -5387942.082 6  23310569.516
 -23281785.218 8 -18128843.709 8  20360454.164
 -18991578.41248 -14758418.73945  21267577.5704                   21267578.0204
 -11861689.107 7  -9218425.335 6  22499726.188
 -16979666.934 8 -13215221.844 7  21502871.516
  -3036797.35346  -2321238.02944  23713257.9844                   23713260.1374
  -7733205.27146  -5977631.41044  23268637.6954                   23268636.8754
  -8501103.69547  -6098659.94844  23571642.0944                   23571642.4884
 11  8 25  3 29 30.0000000  0 10G12G18G25G29G26G05G15G30G02G21
   -122202.990 6    -73243.955 6  24667395.586
  -7789872.67946  -5069454.34844  23237950.1024                   23237951.3164
  -6853789.137 7  -5326352.335 6  23325610.398
 -23308289.625 8 -18149496.497 8  20355410.703
 -19016443.13248 -14777793.81245  21262845.8054                   21262846.3914
 -11777825.186 7  -9153076.828 7  22515685.063
 -17048884.382 7 -13269157.486 7  21489699.930
  -2955052.77546  -2257540.99644  23728813.2974                   23728815.7344
  -7673629.93347  -5931209.10644  23279975.1414                   23279973.9264
  -8562214.01247  -6146278.34244  23560013.9224                   23560013.7664
 11  8 25  3 30  0.0000000  0 10G12G18G25G29G26G05G15G30G02G21
    -29837.552 6     -1270.987 6  24684972.055
  -7860336.95547  -5124361.51444  23224540.7584                   23224541.6214
  -6774606.166 7  -5264651.344 6  23340678.180
 -23334301.043 8 -18169765.125 8  20350460.836
 -19040651.52548 -14796657.49145  21258239.1884                   21258239.7234
 -11693850.280 7  -9087641.828 7  22531664.859
 -17117688.772 8 -13322771.268 7  21476606.922
  -2873218.01546  -2193773.71343  23744386.8524                   23744388.6604
  -7613911.41346  -5884675.19744  23291338.5314                   23291337.4454
  -8623357.38247  -6193922.47244  23548378.5554                   23548377.3914
 11  8 25  3 30 30.0000000  0 10G12G18G25G29G26G05G15G30G02G21
     62402.753 6     70604.461 5  24702525.258
  -7930557.13847  -5179078.50244  23211178.5164                   23211179.0124
  -6695284.592 7  -5202842.364 6  23355772.344
 -23359818.728 8 -18189649.029 8  20345604.844
 -19064203.52947 -14815009.68045  21253757.8834                   21253757.8094
 -11609767.537 7  -9022122.834 7  22547665.492
 -17186078.437 8 -13376061.888 7  21463592.539
  -2791297.50746  -2129939.58443  23759974.8834                   23759977.7974
  -7554050.14446  -5838030.08344  23302730.2504                   23302729.0594
  -8684535.05747  -6241593.35044  23536735.8834                   23536735.9304
 11  8 25  3 31  0.0000000  0 10G12G18G25G29G26G05G15G30G02G21
    154515.759 6    142380.738 5  24720053.828
  -8000532.11947  -5233604.39444  23197862.5864                   23197863.3244
  -6615827.170 7  -5140927.493 7  23370891.992
 -23384840.973 8 -18209146.877 8  20340843.367
 -19087096.74848 -14832848.53945  21249400.8594                   21249401.4654
 -11525578.832 7  -8956521.271 7  22563686.344
 -17254050.271 8 -13429026.923 7  21450657.602
  -2709293.82646  -2066040.65844  23775580.2344                   23775583.0234
  -7494045.45247  -5791273.20244  23314148.3054                   23314147.0664
  -8745746.19747  -6289290.30244  23525087.6174                   23525088.3054
 11  8 25  3 31 30.0000000  0 10G12G18G25G29G26G05G15G30G02G21
    246498.790 5    214055.726 5  24737556.945
  -8070261.38947  -5287938.82744  23184593.5394                   23184594.2584
  -6536237.174 7  -5078909.363 6  23386038.617
 -23409365.993 8 -18228257.278 8  20336176.344
 -19109329.92548 -14850173.07945  21245170.3594                   21245170.3204
 -11441285.950 7  -8890838.530 7  22579727.063
 -17321601.709 8 -13481664.383 7  21437803.141
  -2627210.39747  -2002079.55344  23791200.2194                   23791202.9344
  -7433897.12547  -5744404.37644  23325594.7974                   23325593.4384
  -8806991.07547  -6337013.54344  23513433.8284                   23513433.3364
 11  8 25  3 32  0.0000000  0  9G18G25G29G26G05G15G30G02G21
  -8139741.66747  -5342079.22344  23171371.7114                   23171372.1254
  -6456515.075 7  -5016788.276 6  23401208.781
 -23433389.635 8 -18246976.988 8  20331604.984
 -19130898.69148 -14866979.88545  21241065.3834                   21241066.1564
 -11356888.450 7  -8825074.250 7  22595787.086
 -17388727.473 8 -13533970.140 7  21425029.477
  -2545047.61747  -1938056.63543  23806835.6884                   23806837.9144
  -7373602.21647  -5697421.33644  23337068.7894                   23337066.9694
  -8868266.74947  -6384760.78844  23501773.1174                   23501773.2274
 11  8 25  3 32 30.0000000  0  9G18G25G29G26G05G15G30G02G21
  -8208977.86547  -5396029.44544  23158196.5474                   23158197.1134
  -6376668.872 7  -4954570.465 6  23416402.992
 -23456915.847 8 -18265309.098 8  20327128.070
 -19151806.78547 -14883271.89245  21237087.1254                   21237087.3094
 -11272392.911 7  -8759233.582 7  22611866.500
 -17455429.952 8 -13585946.067 7  21412336.266
  -2462813.50747  -1873978.13344  23822483.5554                   23822486.4614
  -7313165.65147  -5650327.93044  23348569.2344                   23348568.2424
  -8929578.42047  -6432536.11944  23490106.0084                   23490105.9734
 11  8 25  3 33  0.0000000  0  9G18G25G29G26G05G15G30G02G21
  -8277966.39247  -5449786.64344  23145068.2194                   23145068.8874
  -6296698.477 7  -4892255.925 6  23431620.797
 -23479939.389 8 -18283249.514 8  20322746.797
 -19172049.38647 -14899045.33245  21233235.1094                   21233235.5474
 -11187798.216 7  -8693315.654 7  22627963.250
 -17521703.087 8 -13637587.439 7  21399724.664
  -2380508.05947  -1809844.06044  23838146.3204                   23838148.2304
  -7252583.34147  -5603120.92944  23360097.5474                   23360095.7814
  -8990922.41347  -6480336.59944  23478432.4144                   23478433.1454
 11  8 25  3 33 30.0000000  0  9G18G25G29G26G05G15G30G02G21
  -8346706.85947  -5503350.56544  23131987.3984                   23131987.6724
  -6216606.967 7  -4829846.991 6  23446862.242
 -23502458.808 8 -18300797.113 8  20318461.039
 -19191624.83848 -14914298.90745  21229509.6334                   21229510.2584
 -11103106.366 7  -8627322.027 7  22644079.930
 -17587544.198 8 -13688892.173 7  21387196.008
  -2298134.29847  -1745656.75043  23853821.4534                   23853822.8524
  -7191855.14247  -5555800.26544  23371653.8674                   23371652.0984
  -9052298.37447  -6528162.01144  23466753.7344                   23466752.9024
 11  8 25  3 34  0.0000000  0  9G18G25G29G26G05G15G30G02G21
  -8415200.67747  -5556722.30144  23118953.2504                   23118953.4774
  -6136399.290 7  -4767347.522 7  23462125.109
 -23524474.542 8 -18317952.225 8  20314271.984
 -19210533.94447 -14929033.25345  21225911.2424                   21225911.8914
 -11018321.180 7  -8561255.658 7  22660214.078
 -17652952.697 8 -13739859.813 7  21374749.344
  -2215697.23347  -1681420.10543  23869508.8054                   23869511.1294
  -7130982.61147  -5508367.11944  23383237.3754                   23383236.0744
  -9113708.23747  -6576013.81844  23455067.1334                   23455067.5554
 11  8 25  3 34 30.0000000  0  9G18G25G29G26G05G15G30G02G21
  -8483445.66347  -5609900.12444  23105966.6484                   23105967.1024
  -6056076.951 7  -4704758.734 6  23477409.602
 -23545983.303 8 -18334712.295 8  20310179.172
 -19228773.40648 -14943245.80845  21222440.8054                   21222441.0704
 -10933442.986 7  -8495116.795 7  22676365.664
 -17717924.469 8 -13790487.141 7  21362385.234
  -2133198.33547  -1617135.28143  23885207.6644                   23885209.3404
  -7069963.51047  -5460819.79844  23394849.0474                   23394847.1604
  -9175150.07247  -6623890.57544  23443375.5234                   23443375.2734
 11  8 25  3 35  0.0000000  0  9G18G25G29G26G05G15G30G02G21
  -8551442.06147  -5662884.25144  23093027.3834                   23093027.7734
  -5975643.671 7  -4642083.481 6  23492716.133
 -23566984.453 8 -18351076.831 8  20306182.508
 -19246342.61448 -14956936.08045  21219097.2274                   21219097.3094
 -10848474.401 7  -8428907.526 7  22692535.063
 -17782457.433 8 -13840772.544 7  21350105.250
  -2050641.42946  -1552805.27343  23900917.8284                   23900920.2464
  -7008798.34447  -5413158.63544  23406487.7194                   23406486.9734
  -9236624.69447  -6671792.86144  23431677.1484                   23431676.7704
 11  8 25  3 35 30.0000000  0  9G18G25G29G26G05G15G30G02G21
  -8619189.26247  -5715674.19744  23080135.9774                   23080135.4804
  -5895102.331 7  -4579324.037 6  23508042.133
 -23587476.184 8 -18367044.406 8  20302283.406
 -19263240.09348 -14970102.91945  21215881.9454                   21215882.2034
 -10763417.006 7  -8362629.035 7  22708721.094
 -17846548.806 7 -13890713.863 7  21337908.734
  -1968029.21046  -1488432.17744  23916638.2894                   23916640.7774
  -6947486.50547  -5365383.21343  23418154.8524                   23418154.4024
  -9298131.37247  -6719720.13844  23419973.2504                   23419972.2194
 11  8 25  3 36  0.0000000  0  9G18G25G29G26G05G15G30G02G21
  -8686686.96147  -5768269.72044  23067291.3284                   23067291.3984
  -5814456.059 7  -4516482.821 7  23523389.063
 -23607457.009 8 -18382613.876 8  20298480.750
 -19279464.65448 -14982745.41145  21212794.6644                   21212794.2624
 -10678272.948 7  -8296283.005 7  22724923.336
 -17910196.226 7 -13940309.231 7  21325797.250
  -1885365.01346  -1424018.51643  23932368.6174                   23932371.8484
  -6886027.79546  -5317493.32143  23429850.8054                   23429849.1254
  -9359670.25747  -6767672.50344  23408262.8984                   23408261.8714
 11  8 25  3 36 30.0000000  0  9G18G25G29G26G05G15G30G02G21
  -8753934.49947  -5820670.29844  23054494.1254                   23054494.5594
  -5733707.543 7  -4453561.944 7  23538754.086
 -23626925.332 8 -18397784.001 8  20294776.148
 -19295014.73748 -14994862.33745  21209835.4774                   21209835.6564
 -10593043.545 7  -8229870.502 7  22741141.703
 -17973396.766 8 -13989556.379 7  21313770.945
  -1802651.38846  -1359566.44643  23948108.2344                   23948112.1804
  -6824421.42647  -5269488.34643  23441573.9224                   23441571.9534
  -9421240.70747  -6815649.47044  23396546.1414                   23396545.3594
 11  8 25  3 37  0.0000000  0  9G18G25G29G26G05G15G30G02G21
  -8820932.16847  -5872876.21844  23041744.9384                   23041745.1524
  -5652860.479 7  -4390564.258 6  23554139.305
 -23645880.262 8 -18412554.075 8  20291169.234
 -19309889.61648 -15006453.14045  21207004.5084                   21207005.3984
 -10507731.326 7  -8163393.468 7  22757375.867
 -18036148.422 8 -14038453.768 7  21301829.250
  -1719892.05946  -1295078.73643  23963857.1094                   23963860.3874
  -6762667.55046  -5221368.46043  23453324.8834                   23453323.3874
  -9482843.27247  -6863651.43344  23384822.6804                   23384822.8444
 11  8 25  3 37 30.0000000  0  9G18G25G29G26G05G15G30G02G21
  -8887678.98147  -5924886.64744  23029043.0084                   23029043.3954
  -5571917.652 7  -4327491.946 6  23569542.453
 -23664320.208 8 -18426922.866 8  20287660.406
 -19324087.72948 -15017516.58345  21204303.1254                   21204303.5704
 -10422337.904 7  -8096853.151 7  22773625.391
 -18098448.213 8 -14086999.040 7  21289974.203
  -1637089.83646  -1230557.56843  23979614.1644                   23979618.2624
  -6700765.65746  -5173133.25744  23465104.6024                   23465103.3984
  -9544477.34047  -6911677.96344  23373094.6254                   23373094.2464
 11  8 25  3 38  0.0000000  0  9G18G25G29G26G05G15G30G02G21
  -8954174.68147  -5976701.37044  23016389.1024                   23016390.1024
  -5490881.666 7  -4264347.076 7  23584963.469
 -23682243.555 8 -18440889.099 8  20284249.641
 -19337607.63348 -15028051.56145  21201730.0394                   21201730.8754
 -10336864.952 7  -8030250.836 6  22789890.750
 -18160293.596 8 -14135190.220 7  21278205.078
  -1554247.31446  -1166005.01743  23995378.2344                   23995381.9494
  -6638714.95646  -5124782.06243  23476912.8284                   23476911.4064
  -9606142.25647  -6959728.52144  23361360.2734                   23361360.1094
 11  8 25  3 38 30.0000000  0  9G18G25G29G26G05G15G30G02G21
  -9020419.77347  -6028320.86344  23003783.6724                   23003784.0434
  -5409756.785 7  -4201132.932 7  23600400.648
 -23699649.809 8 -18454452.422 8  20280937.070
 -19350449.28148 -15038058.02845  21199286.6954                   21199287.1724
 -10251315.119 7  -7963588.645 6  22806170.711
 -18221683.189 8 -14183026.246 7  21266523.289
  -1471368.63346  -1101424.28343  24011149.6804                   24011153.0084
  -6576516.35347  -5076315.61643  23488748.8754                   23488747.1094
  -9667838.69447  -7007803.64544  23349619.6334                   23349619.2424
 11  8 25  3 39  0.0000000  0  9G18G25G29G26G05G15G30G02G21
  -9086413.73447  -6079744.65344  22991225.2664                   22991225.5004
  -5328545.698 6  -4137851.617 6  23615854.281
 -23716537.429 8 -18467611.606 8  20277723.375
 -19362611.41448 -15047534.98345  21196972.2894                   21196972.3284
 -10165690.147 7  -7896867.873 7  22822464.531
 -18282613.795 8 -14230504.625 7  21254928.336
  -1388456.58046  -1036817.53643  24026926.9614                   24026930.2274
  -6514169.17046  -5027733.44543  23500612.8364                   23500611.8484
  -9729566.39147  -7055903.08744  23337873.3834                   23337873.2114
 11  8 25  3 39 30.0000000  0  9G18G25G29G26G05G15G30G02G21
  -9152155.30447  -6130971.74944  22978714.8444                   22978715.1804
  -5247250.588 6  -4074504.793 6  23631324.289
 -23732904.127 8 -18480364.865 8  20274609.008
 -19374091.95448 -15056480.85146  21194787.6644                   21194788.2704
 -10079990.903 7  -7830089.237 7  22838772.914
 -18343082.281 8 -14277622.906 7  21243421.914
  -1305513.28446   -972186.47843  24042711.7504                   24042714.0554
  -6451671.92046  -4979034.30943  23512506.3594                   23512504.5984
  -9791323.91747  -7104025.77444  23326120.8524                   23326120.9304
 11  8 25  3 40  0.0000000  0  9G18G25G29G26G05G15G30G02G21
  -9217645.55447  -6182003.03744  22966252.5554                   22966253.0204
  -5165875.902 7  -4011096.008 6  23646809.742
 -23748750.307 8 -18492712.554 8  20271593.852
 -19384891.19448 -15064895.82545  21192732.1334                   21192732.8054
  -9994220.647 7  -7763255.262 7  22855094.281
 -18403087.960 7 -14324380.554 7  21232002.883
  -1222543.27646   -907534.55543  24058500.3524                   24058502.2344
  -6389026.03046  -4930219.37043  23524427.1254                   23524426.3524
  -9853112.35346  -7152172.54844  23314362.6094                   23314363.4184
 11  8 25  3 40 30.0000000  0  9G18G25G29G26G05G15G30G02G21
  -9282881.77547  -6232836.39444  22953838.1564                   22953839.4024
  -5084422.332 6  -3947625.680 6  23662309.422
 -23764072.040 8 -18504651.565 8  20268678.156
 -19395005.94048 -15072777.44345  21190807.7814                   21190808.0434
  -9908378.709 7  -7696365.452 7  22871429.141
 -18462625.809 8 -14370773.682 7  21220673.188
  -1139547.09846   -842862.26543  24074293.2034                   24074295.9384
  -6326228.72146  -4881286.42944  23536377.5234                   23536376.0784
  -9914929.27947  -7200341.50344  23302599.6884                   23302599.8714
 11  8 25  3 41  0.0000000  0  9G18G25G29G26G05G15G30G02G21
  -9347867.42247  -6283474.49844  22941472.1094                   22941471.7974
  -5002896.455 7  -3884099.095 6  23677823.625
 -23778871.776 8 -18516183.821 8  20265861.648
 -19404438.77148 -15080127.68745  21189012.5394                   21189013.1454
  -9822470.353 7  -7629423.892 7  22887776.859
 -18521696.704 8 -14416802.918 7  21209432.359
  -1056531.34646   -778174.72943  24090090.6024                   24090093.3914
  -6263282.94046  -4832237.76244  23548354.4924                   23548354.0434
  -9976778.28047  -7248535.46644  23290830.2974                   23290830.4614
 11  8 25  3 41 30.0000000  0  9G18G25G29G26G05G15G30G02G21
  -9412599.29847  -6333914.83444  22929153.8364                   22929155.0274
  -4921298.584 7  -3820516.327 6  23693351.789
 -23793145.260 8 -18527306.015 8  20263145.680
 -19413185.85547 -15086943.58645  21187348.0314                   21187348.3324
  -9736494.917 7  -7562430.076 7  22904137.117
 -18580295.595 8 -14462464.351 7  21198281.648
   -973496.26846   -713472.12543  24105891.9614                   24105895.0554
  -6200185.98646  -4783071.35044  23560362.0634                   23560361.3094
 -10038655.81747  -7296751.64844  23279055.6174                   23279055.2584
 11  8 25  3 42  0.0000000  0  9G18G25G29G26G05G15G30G02G21
  -9477078.10047  -6384158.01244  22916883.6884                   22916884.1134
  -4839632.622 7  -3756880.556 6  23708892.164
 -23806892.483 8 -18538018.130 8  20260529.633
 -19421247.28948 -15093225.20845  21185814.0704                   21185814.2734
  -9650454.952 7  -7495385.950 7  22920510.266
 -18638421.498 8 -14507757.258 7  21187220.227
   -890445.81246   -648757.54943  24121696.3754                   24121699.6134
  -6136938.20746  -4733787.37744  23572397.2114                   23572396.9494
 -10100562.83047  -7344990.81044  23267274.7344                   23267273.7704
 11  8 25  3 42 30.0000000  0  9G18G25G29G26G05G15G30G02G21
  -9541303.80547  -6434203.94844  22904662.0704                   22904662.1174
  -4757901.969 7  -3693194.361 6  23724444.609
 -23820112.431 8 -18548319.388 8  20258014.094
 -19428622.63947 -15098972.22345  21184410.4224                   21184410.8284
  -9564352.674 7  -7428293.289 6  22936895.438
 -18696072.055 8 -14552679.734 7  21176249.891
   -807383.24147   -584033.53843  24137502.5864                   24137505.6524
  -6073539.80547  -4684386.03244  23584462.2734                   23584461.2304
 -10162499.30547  -7393252.93244  23255488.9304                   23255487.2464
 11  8 25  3 43  0.0000000  0  9G18G25G29G26G05G15G30G02G21
  -9605275.69447  -6484052.13744  22892488.4064                   22892489.0004
  -4676109.116 7  -3629459.692 6  23740009.695
 -23832803.429 8 -18558208.471 8  20255598.813
 -19435310.71347 -15104183.70545  21183137.8364                   21183138.6174
  -9478189.320 7  -7361153.021 6  22953292.250
 -18753244.332 8 -14597229.543 7  21165370.094
   -724311.13047   -519302.04743  24153311.0864                   24153313.2504
  -6009989.79446  -4634866.55944  23596555.2034                   23596554.2234
 -10224464.56447  -7441537.47044  23243696.9924                   23243696.1844
 11  8 25  3 43 30.0000000  0  9G18G25G29G26G05G15G30G02G21
  -9668993.25547  -6533702.10944  22880363.4614                   22880363.7154
  -4594256.843 7  -3565678.782 6  23755585.438
 -23844964.202 8 -18567684.397 8  20253285.000
 -19441310.20347 -15108858.61445  21181995.7974                   21181996.5234
  -9391966.543 7  -7293966.414 6  22969699.742
 -18809935.775 8 -14641404.673 7  21154582.234
   -641232.12946   -454565.20343  24169120.4454                   24169122.6374
  -5946287.83647  -4585228.67644  23608678.1804                   23608676.9304
 -10286457.74847  -7489843.79844  23231899.9304                   23231899.1484
 11  8 25  3 44  0.0000000  0  9G18G25G29G26G05G15G30G02G21
  -9732456.93847  -6583154.27144  22868286.4144                   22868286.3954
  -4512348.707 7  -3501854.240 6  23771172.023
 -23856594.081 8 -18576746.639 8  20251071.836
 -19446621.04847 -15112996.91745  21180985.2894                   21180986.1684
  -9305686.347 7  -7226735.103 6  22986118.023
 -18866144.640 8 -14685203.779 7  21143885.859
   -558149.82347   -389825.77543  24184930.2814                   24184932.6374
  -5882434.12546  -4535472.55244  23620828.0234                   23620826.8444
 -10348479.37747  -7538172.25944  23220097.3674                   23220097.2234
 11  8 25  3 44 30.0000000  0  9G18G25G29G26G05G15G30G02G21
  -9795666.24547  -6632408.22744  22856258.3594                   22856258.3134
  -4430387.322 7  -3437988.268 6  23786769.023
 -23867691.483 8 -18585393.960 8  20248960.219
 -19451241.92547 -15116597.58845  21180105.8984                   21180106.4414
  -9219350.489 7  -7159460.407 6  23002547.227
 -18921868.368 8 -14728624.846 7  21133282.242
   -475066.76846   -325085.79043  24200740.5864                   24200742.1524
  -5818427.70346  -4485597.43744  23633009.0164                   23633006.9614
 -10410528.38147  -7586522.08244  23208290.1024                   23208289.7074
 11  8 25  3 45  0.0000000  0  9G18G25G29G26G05G15G30G02G21
  -9858620.86447  -6681463.70544  22844278.3754                   22844278.1804
  -4348375.912 7  -3374083.336 6  23802375.320
 -23878255.555 8 -18593625.707 8  20246949.469
 -19455172.72847 -15119660.54245  21179357.9224                   21179358.5594
  -9132960.202 7  -7092143.300 6  23018986.047
 -18977105.005 8 -14771666.353 7  21122770.953
   -391986.26147   -260347.72843  24216549.9144                   24216551.5164
  -5754268.71746  -4435603.46044  23645217.0554                   23645216.2074
 -10472604.77147  -7634893.21644  23196477.0704                   23196476.8134
 11  8 25  3 45 30.0000000  0  9G18G25G29G26G05G15G30G02G21
  -9921321.33747  -6730321.17244  22832346.3984                   22832347.5474
  -4266317.679 7  -3310141.896 6  23817990.648
 -23888285.444 8 -18601441.203 8  20245041.039
 -19458412.78947 -15122185.24245  21178741.3674                   21178741.7854
  -9046517.748 7  -7024785.563 6  23035435.250
 -19031852.364 8 -14814326.627 7  21112352.789
   -308911.16846   -195613.96243  24232358.5394                   24232360.8484
  -5689957.14547  -4385490.54744  23657455.6174                   23657454.3914
 -10534708.37647  -7683285.58345  23184659.3524                   23184659.1564
 11  8 25  3 46  0.0000000  0  9G18G25G29G26G05G15G30G02G21
  -9983766.42847  -6778979.64044  22820463.8524                   22820463.9104
  -4184214.957 7  -3246165.818 6  23833613.961
 -23897779.360 8 -18608839.053 8  20243234.336
 -19460960.91347 -15124170.77645  21178256.6094                   21178256.9414
  -8960024.241 7  -6957388.045 7  23051894.875
 -19086107.564 8 -14856603.384 7  21102028.000
   -225844.02346   -130886.31843  24248165.8984                   24248167.9494
  -5625492.21846  -4335258.18244  23669723.0164                   23669722.0434
 -10596838.57347  -7731698.67344  23172836.4534                   23172836.3874
 11  8 25  3 46 30.0000000  0  9G18G25G29G26G05G15G30G02G21
 -10045956.79747  -6827439.61044  22808629.2034                   22808629.2304
  -4102071.628 7  -3182158.069 6  23849244.938
 -23906737.519 8 -18615819.439 8  20241529.547
 -19462817.32748 -15125617.32945  21177903.4224                   21177903.8834
  -8873482.365 7  -6889952.843 6  23068363.141
 -19139869.343 8 -14898495.671 7  21091797.656
   -142788.45346    -66167.76743  24263970.5944                   24263972.9304
  -5560874.32946  -4284906.58844  23682019.1414                   23682018.0204
 -10658995.61747  -7780132.67144  23161008.3284                   23161007.5984
 11  8 25  3 47  0.0000000  0  9G18G25G29G26G05G15G30G02G21
 -10107893.24147  -6875701.72744  22796842.8444                   22796843.3134
  -4019891.393 7  -3118121.612 6  23864883.438
 -23915159.479 8 -18622381.996 8  20239926.953
 -19463982.32548 -15126525.09445  21177681.3594                   21177682.0704
  -8786894.504 7  -6822481.790 6  23084840.609
 -19193136.452 8 -14940002.472 7  21081661.422
    -59748.34546     -1461.27643  24279773.1484                   24279775.7274
  -5496103.62046  -4234435.93544  23694344.4694                   23694343.3914
 -10721179.88747  -7828587.89744  23149174.8444                   23149174.1024
 11  8 25  3 47 30.0000000  0  9G18G25G29G26G05G15G30G02G21
 -10169572.89547  -6923763.76344  22785106.0394                   22785106.5044
  -3937674.880 7  -3054056.799 6  23880528.930
 -23923041.650 8 -18628523.945 8  20238427.352
 -19464452.99348 -15126891.82745  21177592.0084                   21177592.2464
  -8700259.965 7  -6754974.359 6  23101326.828
 -19245903.715 8 -14981119.814 7  21071620.234
     23275.97846     63232.93543  24295572.5004                   24295575.2544
  -5431177.67646  -4183844.32044  23706699.8674                   23706698.5474
 -10783388.16447  -7877061.83244  23137336.7974                   23137335.8984
 11  8 25  3 48  0.0000000  0  9G18G25G29G26G05G15G30G02G21
 -10230997.52847  -6971627.09044  22773416.5864                   22773417.1604
  -3855426.962 6  -2989967.599 6  23896180.625
 -23930385.090 8 -18634246.103 8  20237029.781
 -19464230.76548 -15126718.65745  21177633.9384                   21177635.2114
  -8613582.366 7  -6687433.379 6  23117820.859
 -19298171.368 8 -15021847.845 7  21061674.047
    106279.48746    127910.92043  24311366.7424                   24311370.1684
  -5366098.18847  -4133133.02643  23719084.5084                   23719082.3094
 -10845622.41447  -7925555.99945  23125493.8364                   23125492.8444
 11  8 25  3 48 30.0000000  0  9G18G25G29G26G05G15G30G02G21
 -10292166.41447  -7019291.11644  22761777.1024                   22761777.5004
  -3773149.982 6  -2925855.699 6  23911837.711
 -23937187.999 8 -18639547.067 8  20235734.898
 -19463314.38047 -15126004.57145  21177808.2664                   21177808.9884
  -8526862.636 7  -6619859.582 6  23134322.703
 -19349936.361 8 -15062184.187 7  21051823.352
    189259.92246    192570.92043  24327157.9144                   24327160.9924
  -5300864.49646  -4082301.61343  23731498.1564                   23731496.4884
 -10907881.57147  -7974069.60444  23113646.8444                   23113645.3674
 11  8 25  3 49  0.0000000  0  9G18G25G29G26G05G15G30G02G21
 -10353080.35147  -7066756.47344  22750185.4614                   22750185.8594
  -3690847.475 6  -2861723.911 6  23927498.453
 -23943450.448 8 -18644426.900 8  20234543.891
 -19461704.40747 -15124750.02645  21178114.6174                   21178115.8134
  -8440103.112 7  -6552254.778 6  23150832.773
 -19401197.455 8 -15102127.873 7  21042068.234
    272213.95446    257210.33143  24342943.5314                   24342946.2074
  -5235476.63146  -4031350.04143  23743940.4454                   23743938.8054
 -10970165.62447  -8022602.58344  23101794.5554                   23101793.4144
 11  8 25  3 49 30.0000000  0  9G18G25G29G26G05G15G30G02G21
 -10413737.81047  -7114022.01544  22738643.0164                   22738642.8524
  -3608521.279 6  -2797573.669 6  23943165.031
 -23949170.328 8 -18648883.941 8  20233454.984
 -19459398.94147 -15122953.55645  21178553.5004                   21178554.3954
  -8353304.233 7  -6484619.313 6  23167350.266
 -19451951.362 8 -15141676.350 7  21032410.219
    355139.62146    321827.68143  24358724.2504                   24358727.3014
  -5169933.25847  -3980277.35043  23756413.3284                   23756411.7584
 -11032473.51447  -8071154.11744  23089937.0474                   23089936.4734
 11  8 25  3 50  0.0000000  0  9G18G25G29G26G05G15G30G02G21
 -10474139.12847  -7161087.94944  22727148.7274                   22727149.4414
  -3526174.801 7  -2733407.649 6  23958835.258
 -23954346.885 8 -18652917.631 8  20232470.141
 -19456398.42947 -15120615.48045  21179124.5084                   21179124.6724
  -8266467.808 7  -6416954.577 6  23183874.586
 -19502196.405 8 -15180828.313 7  21022849.078
    438033.65146    386420.36443  24374497.8984                   24374501.5204
  -5104234.53546  -3929083.54743  23768914.9144                   23768913.3754
 -11094804.84247  -8119723.90944  23078076.1334                   23078075.4964
 11  8 25  3 50 30.0000000  0  9G18G25G29G26G05G15G30G02G21
 -10534284.69647  -7207954.61244  22715703.5634                   22715703.4774
  -3443811.308 7  -2669228.360 6  23974508.523
 -23958979.997 8 -18656527.849 8  20231588.273
 -19452702.60047 -15117735.60045  21179827.8674                   21179828.1054
  -8179595.937 7  -6349262.251 7  23200405.484
 -19551930.659 8 -15219582.268 7  21013384.961
    520892.96946    450986.00043  24390265.7114                   24390268.3834
  -5038380.80546  -3877768.97343  23781446.3284                   23781446.0474
 -11157159.74347  -8168312.06245  23066209.9304                   23066210.0704
 11  8 25  3 51  0.0000000  0  9G18G25G29G26G05G15G30G02G21
 -10594174.73647  -7254622.15944  22704306.7974                   22704306.6134
  -3361434.162 7  -2605038.364 6  23990184.141
 -23963068.928 8 -18659714.030 8  20230810.273
 -19448311.84348 -15114314.21145  21180663.5394                   21180663.6644
  -8092691.144 7  -6281544.256 7  23216943.633
 -19601153.051 8 -15257937.355 7  21004018.047
    603714.13146    515521.87543  24406025.9534                   24406029.8244
  -4972371.77846  -3826333.43243  23794007.9454                   23794006.5124
 -11219538.01247  -8216918.44045  23054340.1414                   23054340.3164
 11  8 25  3 51 30.0000000  0  9G18G25G29G26G05G15G30G02G21
 -10653807.99047  -7301089.59844  22692958.7734                   22692958.6134
  -3279045.209 7  -2540839.249 6  24005862.914
 -23966611.666 8 -18662474.600 8  20230136.078
 -19443224.80548 -15110350.27845  21181631.5164                   21181631.6684
  -8005753.306 7  -6213800.489 7  23233486.359
 -19649859.823 8 -15295890.660 7  20994750.094
    686495.43646    580026.73343  24421779.5234                   24421781.8554
  -4906206.27747  -3774775.86443  23806599.0004                   23806597.6604
 -11281937.80747  -8265541.58445  23042465.5704                   23042465.7584
 11  8 25  3 52  0.0000000  0  9G18G25G29G26G05G15G30G02G21
 -10713185.82947  -7347358.01744  22681659.4454                   22681659.5274
  -3196648.779 7  -2476634.292 6  24021542.211
 -23969609.120 8 -18664810.278 8  20229565.516
 -19437442.55848 -15105844.60845  21182731.8594                   21182732.2384
  -7918785.502 7  -6146033.406 7  23250036.750
 -19698050.773 8 -15333442.031 7  20985579.414
    769232.59146    644497.19943  24437523.0314                   24437526.5164
  -4839885.62047  -3723097.46243  23819218.6884                   23819217.5744
 -11344359.92747  -8314182.15945  23030587.2034                   23030586.8594
 11  8 25  3 52 30.0000000  0  9G18G25G29G26G05G15G30G02G21
 -10772306.44247  -7393425.99945  22670409.4304                   22670409.8714
  -3114246.082 7  -2412424.420 6  24037223.305
 -23972058.625 8 -18666718.984 8  20229099.453
 -19430963.30848 -15100795.83045  21183964.6724                   21183964.8834
  -7831788.049 7  -6078243.189 6  23266590.898
 -19745722.209 8 -15370588.584 7  20976507.852
    851924.38046    708932.34243  24453258.9924                   24453262.3284
  -4773407.89347  -3671296.67543  23831869.3204                   23831867.9144
 -11406803.43547  -8362839.36945  23018704.3914                   23018704.0234
 11  8 25  3 53  0.0000000  0  9G18G25G29G26G05G15G30G02G21
 -10831171.53947  -7439294.88444  22659207.4614                   22659207.8984
  -3031841.383 7  -2348212.983 6  24052904.313
 -23973960.948 8 -18668201.316 8  20228737.656
 -19423788.22348 -15095204.84345  21185330.0634                   21185330.6764
  -7744763.362 7  -6010431.778 6  23283151.336
 -19792873.341 8 -15407329.689 7  20967535.477
    934566.71946    773328.86543  24468985.4304                   24468988.5634
  -4706774.32447  -3619374.38643  23844548.9694                   23844547.9924
 -11469268.21647  -8411513.17544  23006818.1174                   23006815.8204
 11  8 25  3 53 30.0000000  0  9G18G25G29G26G05G15G30G02G21
 -10889780.17247  -7484963.93744  22648055.3914                   22648054.5944
  -2949437.163 7  -2284001.961 6  24068585.141
 -23975315.104 8 -18669256.500 8  20228479.633
 -19415916.89748 -15089071.32845  21186827.4064                   21186827.9064
  -7657712.946 6  -5942600.309 6  23299716.258
 -19839502.182 8 -15443663.829 7  20958662.055
   1017157.14946    837685.00642  24484702.1724                   24484705.4574
  -4639983.92946  -3567329.98543  23857258.9224                   23857258.3164
 -11531753.74647  -8460203.16544  22994927.4924                   22994925.8014
 11  8 25  3 54  0.0000000  0  9G18G25G29G26G05G15G30G02G21
 -10948131.84147  -7530432.76644  22636950.7344                   22636950.3634
  -2867035.942 7  -2219793.235 6  24084265.266
 -23976119.380 8 -18669883.199 8  20228326.766
 -19407348.89548 -15082394.94945  21188458.9144                   21188459.1374
  -7570637.754 7  -5874749.527 6  23316286.547
 -19885605.998 8 -15479588.864 7  20949888.477
   1099693.44246    901998.88243  24500407.7974                   24500411.7424
  -4573036.34446  -3515162.98743  23869998.8204                   23869997.6374
 -11594258.87247  -8508908.39944  22983032.2504                   22983031.3794
 11  8 25  3 54 30.0000000  0  9G18G25G29G26G05G15G30G02G21
 -11006227.34147  -7575701.96744  22625895.4614                   22625895.3714
  -2784641.318 7  -2155589.679 6  24099945.188
 -23976374.332 8 -18670081.868 8  20228278.273
 -19398084.81848 -15075176.18045  21190221.5314                   21190221.5664
  -7483539.979 6  -5806881.156 6  23332860.695
 -19931183.666 8 -15515103.898 7  20941215.438
   1182171.73146    966267.67843  24516102.8204                   24516106.6684
  -4505931.86346  -3462873.81343  23882768.4304                   23882766.6954
 -11656783.54647  -8557628.89345  22971134.6024                   22971133.2274
 11  8 25  3 55  0.0000000  0  9G18G25G29G26G05G15G30G02G21
 -11064066.47147  -7620771.41844  22614889.7664                   22614889.0204
  -2702255.611 7  -2091393.044 6  24115621.797
 -23976078.612 8 -18669851.433 8  20228334.602
 -19388123.98848 -15067414.48245  21192116.5314                   21192117.0594
  -7396420.909 7  -5738996.187 6  23349438.836
 -19976233.060 8 -15550207.305 7  20932642.852
   1264589.97246   1030489.56042  24531787.9224                   24531790.0434
  -4438670.14046  -3410462.13943  23895568.3984                   23895566.3874
 -11719327.15347  -8606364.12945  22959232.7114                   22959232.2774
 11  8 25  3 55 30.0000000  0  9G18G25G29G26G05G15G30G02G21
 -11121649.50047  -7665641.26545  22603932.0164                   22603931.3094
  -2619882.165 7  -2027205.976 6  24131297.211
 -23975231.917 8 -18669191.667 8  20228495.680
 -19377467.11348 -15059110.40845  21194145.0394                   21194145.0514
  -7309282.225 7  -5671095.932 6  23366021.523
 -20020752.564 8 -15584897.803 7  20924171.258
   1346944.85146   1094662.14742  24547458.3444                   24547461.2304
  -4371251.21146  -3357927.92043  23908397.7664                   23908395.7704
 -11781889.77747  -8655114.17945  22947327.6094                   22947326.9924
 11  8 25  3 56  0.0000000  0  9G18G25G29G26G05G15G30G02G21
 -11178975.39447  -7710310.77144  22593023.0394                   22593022.1054
  -2537523.117 6  -1963030.173 6  24146970.016
 -23973832.900 8 -18668101.529 8  20228761.953
 -19366113.78048 -15050263.63145  21196305.5164                   21196305.7034
  -7222124.563 7  -5603180.904 6  23382605.953
 -20064739.593 8 -15619173.390 7  20915800.711
   1429234.28146   1158783.69043  24563118.0084                   24563120.1604
  -4303674.11447  -3305270.46543  23921257.0554                   23921255.6564
 -11844469.99447  -8703877.97245  22935419.3364                   22935418.9064
 11  8 25  3 56 30.0000000  0  9G18G25G29G26G05G15G30G02G21
 -11236045.72847  -7754781.13944  22582162.5084                   22582162.7304
  -2455182.678 6  -1898868.861 6  24162639.344
 -23971882.402 8 -18666581.666 8  20229132.906
 -19354064.99848 -15040874.95445  21198597.8834                   21198598.1334
  -7134951.051 7  -5535253.516 6  23399194.672
 -20108193.687 8 -15653033.706 7  20907531.391
   1511454.18746   1222851.11243  24578764.2194                   24578765.9064
  -4235939.88747  -3252490.58743  23934146.2034                   23934144.9304
 -11907068.14547  -8752655.74445  22923507.1024                   22923507.0824
